[[{"header":{"parameterUnit":"m.s-1","parameterCategory":1,"la1":30.6,"la2":29.2853,"lo1":-89.7004,"lo2":-87.6739,"dy":0.0162,"dx":0.0183,"nx":112,"ny":82,"refTime":"2023-09-09T12:00:00:Z","depth":0,"parameterNumber":2,"parameterNumberName":"U-component_of_WINDS"},"data":[0.0,0.0,0.0,0.0,0.0,0.0,0.0,0.0,0.0,0.0,0.0,0.0,0.0,0.0,0.0,0.0,0.0,0.0,0.0,0.0,0.0,0.0,0.0,0.0,0.0,0.0,0.0,0.0,0.0,0.0,0.0,0.0,0.0,0.0,0.0,0.0,0.0,0.0,0.0,0.0,0.0,0.0,0.0,0.0,0.0,0.0,0.0,0.0,0.0,0.0,0.0,0.0,0.0,0.0,0.0,0.0,0.0,0.0,0.0,0.0,0.0,0.0,0.0,0.0,0.0,0.0,0.0,0.0,0.0,0.0,0.0,0.0,0.0,0.0,0.0,0.0,0.0,0.0,0.0,0.0,0.0,0.0,0.0,0.0,0.0,0.0,0.0,0.0,0.0,0.0,3.0506,3.0506,3.0506,3.0506,3.0506,3.0506,3.062,3.0881,0.0,0.0,0.0,0.0,0.0,0.0,0.0,0.0,0.0,0.0,0.0,0.0,0.0,0.0,0.0,0.0,0.0,0.0,0.0,0.0,0.0,0.0,0.0,0.0,0.0,0.0,0.0,0.0,0.0,0.0,0.0,0.0,0.0,0.0,0.0,0.0,0.0,0.0,0.0,0.0,0.0,0.0,0.0,0.0,0.0,0.0,0.0,0.0,0.0,0.0,0.0,0.0,0.0,0.0,0.0,0.0,0.0,0.0,0.0,0.0,0.0,0.0,0.0,0.0,0.0,0.0,0.0,0.0,0.0,0.0,0.0,0.0,0.0,0.0,0.0,0.0,0.0,0.0,0.0,0.0,0.0,0.0,0.0,0.0,0.0,0.0,0.0,0.0,0.0,0.0,0.0,0.0,0.0,0.0,0.0,0.0,0.0,0.0,0.0,0.0,0.0,0.0,0.0,0.0,3.0506,3.0506,3.0506,3.0506,3.0506,3.0506,3.062,3.0881,0.0,0.0,0.0,0.0,0.0,0.0,0.0,0.0,0.0,0.0,0.0,0.0,0.0,0.0,0.0,0.0,0.0,0.0,0.0,0.0,0.0,0.0,0.0,0.0,0.0,0.0,0.0,0.0,0.0,0.0,0.0,0.0,0.0,0.0,0.0,0.0,0.0,0.0,0.0,0.0,0.0,0.0,0.0,0.0,0.0,0.0,0.0,0.0,0.0,0.0,0.0,0.0,0.0,0.0,0.0,0.0,0.0,0.0,0.0,0.0,0.0,0.0,0.0,0.0,0.0,0.0,0.0,0.0,0.0,0.0,0.0,0.0,0.0,0.0,0.0,0.0,0.0,0.0,0.0,0.0,0.0,0.0,0.0,0.0,0.0,0.0,0.0,0.0,0.0,0.0,0.0,0.0,0.0,0.0,0.0,0.0,0.0,0.0,0.0,0.0,0.0,0.0,0.0,3.0547,3.0654,3.1052,3.0737,3.0654,3.1068,3.0737,3.0572,3.0773,3.0861,0.0,0.0,0.0,0.0,0.0,0.0,0.0,0.0,0.0,0.0,0.0,0.0,0.0,0.0,0.0,0.0,0.0,0.0,0.0,0.0,0.0,0.0,0.0,0.0,0.0,0.0,0.0,0.0,0.0,0.0,0.0,0.0,0.0,0.0,0.0,0.0,0.0,0.0,0.0,0.0,0.0,0.0,0.0,0.0,0.0,0.0,0.0,0.0,0.0,0.0,0.0,0.0,0.0,0.0,0.0,0.0,0.0,0.0,0.0,0.0,0.0,0.0,0.0,0.0,0.0,0.0,0.0,0.0,0.0,0.0,0.0,0.0,0.0,0.0,0.0,0.0,0.0,0.0,0.0,0.0,0.0,0.0,0.0,0.0,0.0,0.0,0.0,0.0,0.0,0.0,0.0,0.0,0.0,0.0,0.0,0.0,0.0,0.0,0.0,0.0,0.0,0.0,3.0654,3.0986,3.1548,3.1261,3.1178,3.1565,3.1085,3.074,3.0708,3.08,0.0,0.0,0.0,0.0,0.0,0.0,0.0,0.0,0.0,0.0,0.0,0.0,0.0,0.0,0.0,0.0,0.0,0.0,0.0,0.0,0.0,0.0,0.0,0.0,0.0,0.0,0.0,0.0,0.0,0.0,0.0,0.0,0.0,0.0,0.0,0.0,0.0,0.0,0.0,0.0,0.0,0.0,0.0,0.0,0.0,0.0,0.0,0.0,0.0,0.0,0.0,0.0,0.0,0.0,0.0,0.0,0.0,0.0,0.0,0.0,0.0,0.0,0.0,0.0,0.0,0.0,0.0,0.0,0.0,0.0,0.0,0.0,0.0,0.0,0.0,0.0,0.0,0.0,0.0,0.0,0.0,0.0,0.0,0.0,0.0,0.0,0.0,0.0,0.0,0.0,0.0,0.0,0.0,0.0,0.0,0.0,0.0,0.0,0.0,0.0,0.0,0.0,3.1101,3.1548,3.1587,3.2166,3.2282,3.1648,3.1548,3.1287,3.0742,3.0702,0.0,0.0,0.0,0.0,0.0,0.0,0.0,0.0,0.0,0.0,0.0,0.0,0.0,0.0,0.0,0.0,0.0,0.0,0.0,0.0,0.0,0.0,0.0,0.0,0.0,0.0,0.0,0.0,0.0,0.0,0.0,0.0,0.0,0.0,0.0,0.0,0.0,0.0,0.0,0.0,0.0,0.0,0.0,0.0,0.0,0.0,0.0,0.0,0.0,0.0,0.0,0.0,0.0,0.0,0.0,0.0,0.0,0.0,0.0,0.0,0.0,0.0,0.0,0.0,0.0,0.0,0.0,0.0,0.0,0.0,0.0,0.0,0.0,0.0,0.0,0.0,0.0,0.0,0.0,0.0,0.0,0.0,0.0,0.0,0.0,0.0,0.0,0.0,0.0,0.0,0.0,0.0,0.0,0.0,0.0,0.0,0.0,0.0,0.0,0.0,0.0,0.0,3.1135,3.178,3.2249,3.2542,3.2774,3.2961,3.2139,3.1536,3.1397,0.0,0.0,0.0,0.0,0.0,0.0,0.0,0.0,0.0,0.0,0.0,0.0,0.0,0.0,0.0,0.0,0.0,0.0,0.0,0.0,0.0,0.0,0.0,0.0,0.0,0.0,0.0,0.0,0.0,0.0,0.0,0.0,0.0,0.0,0.0,0.0,0.0,0.0,0.0,0.0,0.0,0.0,0.0,0.0,0.0,0.0,0.0,0.0,0.0,0.0,0.0,0.0,0.0,0.0,0.0,0.0,0.0,0.0,0.0,0.0,0.0,0.0,0.0,0.0,0.0,0.0,0.0,0.0,0.0,0.0,0.0,0.0,0.0,0.0,0.0,0.0,0.0,0.0,0.0,0.0,0.0,0.0,0.0,0.0,0.0,0.0,0.0,0.0,0.0,0.0,0.0,0.0,0.0,0.0,0.0,0.0,0.0,0.0,0.0,0.0,0.0,0.0,3.082,3.1493,3.2232,3.2972,3.3254,3.3503,3.3784,3.2663,3.189,3.176,0.0,0.0,0.0,0.0,0.0,0.0,0.0,0.0,0.0,0.0,0.0,0.0,0.0,0.0,0.0,0.0,0.0,0.0,0.0,0.0,0.0,0.0,0.0,0.0,0.0,0.0,0.0,0.0,0.0,0.0,0.0,0.0,0.0,0.0,0.0,0.0,0.0,0.0,0.0,0.0,0.0,0.0,0.0,0.0,0.0,0.0,0.0,0.0,0.0,0.0,0.0,0.0,0.0,0.0,0.0,0.0,0.0,0.0,0.0,0.0,0.0,0.0,0.0,0.0,0.0,0.0,0.0,0.0,0.0,0.0,0.0,0.0,0.0,0.0,0.0,0.0,0.0,0.0,0.0,0.0,0.0,0.0,0.0,0.0,0.0,0.0,0.0,0.0,0.0,0.0,0.0,0.0,0.0,0.0,0.0,0.0,0.0,0.0,0.0,0.0,0.0,0.0,3.1515,3.2249,3.2989,3.3718,3.4452,3.4601,3.3867,3.3138,3.2398,0.0,0.0,0.0,0.0,0.0,0.0,0.0,0.0,0.0,0.0,0.0,0.0,0.0,0.0,0.0,0.0,0.0,0.0,0.0,0.0,0.0,0.0,0.0,0.0,0.0,0.0,0.0,0.0,0.0,0.0,0.0,0.0,0.0,0.0,0.0,0.0,0.0,0.0,0.0,0.0,0.0,0.0,0.0,0.0,0.0,0.0,0.0,0.0,0.0,0.0,0.0,0.0,0.0,0.0,0.0,0.0,0.0,0.0,0.0,0.0,0.0,0.0,0.0,0.0,0.0,0.0,0.0,0.0,0.0,0.0,0.0,0.0,0.0,0.0,0.0,0.0,0.0,0.0,0.0,0.0,0.0,0.0,0.0,0.0,0.0,0.0,0.0,0.0,0.0,0.0,0.0,0.0,0.0,0.0,0.0,0.0,0.0,0.0,0.0,0.0,0.0,0.0,0.0,3.1565,3.2696,3.3569,3.3784,3.4452,3.48,3.4584,3.39,3.3194,3.2563,0.0,0.0,0.0,0.0,0.0,0.0,0.0,0.0,0.0,0.0,0.0,0.0,0.0,0.0,0.0,0.0,0.0,0.0,0.0,0.0,0.0,0.0,0.0,0.0,0.0,0.0,0.0,0.0,0.0,0.0,0.0,0.0,0.0,0.0,0.0,0.0,0.0,0.0,0.0,0.0,0.0,0.0,0.0,0.0,0.0,0.0,0.0,0.0,0.0,0.0,0.0,0.0,0.0,0.0,0.0,0.0,0.0,0.0,0.0,0.0,0.0,0.0,0.0,0.0,0.0,0.0,0.0,0.0,0.0,0.0,0.0,0.0,0.0,0.0,0.0,0.0,0.0,0.0,0.0,0.0,0.0,0.0,0.0,0.0,0.0,0.0,0.0,0.0,0.0,0.0,0.0,0.0,0.0,0.0,0.0,0.0,0.0,0.0,0.0,0.0,0.0,0.0,3.2404,3.3259,3.3917,3.4215,3.4646,3.4899,3.4899,3.4232,3.3658,3.3278,0.0,0.0,0.0,0.0,0.0,0.0,0.0,0.0,0.0,0.0,0.0,0.0,0.0,0.0,0.0,0.0,0.0,0.0,0.0,0.0,0.0,0.0,0.0,0.0,0.0,0.0,0.0,0.0,0.0,0.0,0.0,0.0,0.0,0.0,0.0,0.0,0.0,0.0,0.0,0.0,0.0,0.0,0.0,0.0,0.0,0.0,0.0,0.0,0.0,0.0,0.0,0.0,0.0,0.0,0.0,0.0,0.0,0.0,0.0,0.0,0.0,0.0,0.0,0.0,0.0,0.0,0.0,0.0,0.0,0.0,0.0,0.0,0.0,0.0,0.0,0.0,0.0,0.0,0.0,0.0,0.0,0.0,0.0,0.0,0.0,0.0,0.0,0.0,0.0,0.0,0.0,0.0,0.0,0.0,0.0,0.0,0.0,0.0,0.0,0.0,0.0,0.0,3.3635,3.3917,3.4265,3.4932,3.4998,3.4998,3.4998,3.4331,3.3867,3.3801,0.0,0.0,0.0,0.0,0.0,0.0,0.0,0.0,0.0,0.0,0.0,0.0,0.0,0.0,0.0,0.0,0.0,0.0,0.0,0.0,0.0,0.0,0.0,0.0,0.0,0.0,0.0,0.0,0.0,0.0,0.0,0.0,0.0,0.0,0.0,0.0,0.0,0.0,0.0,0.0,0.0,0.0,0.0,0.0,0.0,0.0,0.0,0.0,0.0,0.0,0.0,0.0,0.0,0.0,0.0,0.0,0.0,0.0,0.0,0.0,2.7648,2.7519,0.0,0.0,0.0,0.0,0.0,0.0,0.0,0.0,0.0,0.0,0.0,0.0,0.0,0.0,0.0,0.0,0.0,0.0,0.0,0.0,0.0,0.0,0.0,0.0,0.0,0.0,0.0,0.0,0.0,0.0,0.0,0.0,0.0,0.0,0.0,0.0,0.0,0.0,0.0,0.0,3.3768,3.48,3.5595,3.5744,3.5777,3.5777,3.5777,3.5081,3.443,3.3834,3.3491,0.0,0.0,0.0,0.0,0.0,0.0,0.0,0.0,0.0,0.0,0.0,0.0,0.0,0.0,0.0,0.0,0.0,0.0,0.0,0.0,0.0,0.0,0.0,0.0,0.0,0.0,0.0,0.0,0.0,0.0,0.0,0.0,0.0,0.0,0.0,0.0,0.0,0.0,0.0,0.0,0.0,0.0,0.0,0.0,0.0,0.0,0.0,0.0,0.0,0.0,0.0,0.0,0.0,0.0,0.0,0.0,0.0,0.0,0.0,2.8337,2.8103,0.0,0.0,0.0,0.0,0.0,0.0,0.0,0.0,0.0,0.0,0.0,0.0,0.0,0.0,0.0,0.0,0.0,0.0,0.0,0.0,0.0,0.0,0.0,0.0,0.0,0.0,0.0,0.0,0.0,0.0,0.0,0.0,0.0,0.0,0.0,0.0,0.0,0.0,0.0,0.0,3.48,3.5843,3.6539,3.6539,3.6539,3.6539,3.6539,3.586,3.5263,3.4883,3.4199,0.0,0.0,0.0,0.0,0.0,0.0,0.0,0.0,0.0,0.0,0.0,0.0,0.0,0.0,0.0,0.0,0.0,0.0,0.0,0.0,0.0,0.0,0.0,0.0,0.0,0.0,0.0,0.0,0.0,0.0,0.0,0.0,0.0,0.0,0.0,0.0,0.0,0.0,0.0,0.0,0.0,0.0,0.0,0.0,0.0,0.0,0.0,0.0,0.0,0.0,0.0,0.0,0.0,2.7659,2.7831,2.8271,2.8152,2.8372,2.8898,2.9846,2.9355,2.7897,2.8233,0.0,0.0,0.0,0.0,0.0,0.0,0.0,0.0,0.0,0.0,0.0,0.0,0.0,0.0,0.0,0.0,0.0,0.0,0.0,0.0,0.0,0.0,3.1193,3.1339,3.1267,3.1386,3.2205,0.0,0.0,0.0,0.0,0.0,0.0,0.0,0.0,0.0,0.0,0.0,3.6108,3.6837,3.7288,3.7288,3.7288,3.7288,3.7288,3.6622,3.6141,3.6009,3.4849,3.4066,0.0,0.0,0.0,0.0,0.0,0.0,0.0,0.0,0.0,0.0,0.0,0.0,0.0,0.0,0.0,0.0,0.0,0.0,0.0,0.0,0.0,0.0,0.0,0.0,0.0,0.0,0.0,0.0,0.0,0.0,0.0,0.0,2.5005,2.5005,0.0,0.0,0.0,0.0,0.0,0.0,0.0,0.0,0.0,0.0,0.0,0.0,0.0,2.6906,2.6746,2.7738,2.824,2.8228,2.8602,2.9255,3.0124,2.9833,3.0319,3.1424,3.1569,0.0,2.8564,2.8634,0.0,0.0,0.0,0.0,0.0,0.0,0.0,0.0,0.0,0.0,0.0,0.0,0.0,0.0,0.0,0.0,0.0,0.0,0.0,0.0,0.0,0.0,3.1212,3.1896,3.2954,3.3887,3.4176,3.2548,3.1209,3.1825,3.1943,3.2442,0.0,0.0,0.0,0.0,0.0,0.0,3.694,3.7603,3.805,3.805,3.805,3.805,3.805,3.7371,3.6688,3.6042,3.5827,3.5131,3.3851,3.3607,0.0,0.0,0.0,0.0,0.0,0.0,0.0,0.0,0.0,0.0,0.0,0.0,0.0,0.0,0.0,0.0,0.0,0.0,0.0,0.0,0.0,0.0,0.0,0.0,0.0,0.0,0.0,0.0,0.0,2.5005,2.5005,2.5005,2.5005,2.5005,0.0,0.0,0.0,0.0,0.0,0.0,0.0,0.0,0.0,2.7296,2.7779,2.812,2.8331,2.8849,2.9506,3.0276,3.0488,3.1068,3.2008,3.1681,3.2046,3.2946,3.2778,3.2382,3.1816,3.0727,3.0074,2.9784,0.0,0.0,0.0,0.0,3.0893,3.1166,3.0768,3.0629,3.0629,3.0629,0.0,0.0,0.0,0.0,0.0,0.0,0.0,3.1593,3.1881,3.2487,3.31,3.3465,3.3821,3.4174,3.4511,3.3331,3.2557,3.3843,3.3853,3.4081,3.5435,3.546,0.0,0.0,0.0,3.7719,3.7719,3.8361,3.8821,3.8821,3.8821,3.8821,3.8821,3.8146,3.7586,3.7255,3.6854,3.6141,3.5081,3.4646,3.3996,0.0,0.0,0.0,0.0,0.0,0.0,0.0,0.0,0.0,0.0,0.0,0.0,0.0,0.0,0.0,0.0,0.0,0.0,0.0,0.0,0.0,0.0,0.0,0.0,0.0,0.0,0.0,0.0,2.5005,2.5059,2.5208,2.5236,2.529,0.0,0.0,0.0,0.0,0.0,0.0,2.7488,2.8158,2.8488,2.8397,2.9062,2.9596,2.996,3.0344,3.1168,3.2412,3.2473,3.2986,3.3843,3.3503,3.3704,3.429,3.3924,3.4188,3.4745,3.2975,3.1888,3.1353,3.1353,3.1496,3.1708,3.1574,3.1797,3.2106,3.1679,3.1529,3.1529,3.1529,3.1619,3.1679,3.1477,0.0,0.0,0.0,0.0,3.293,3.3096,3.3939,3.4758,3.479,3.4851,3.4957,3.5187,3.491,3.479,3.5375,3.5175,3.5291,3.6472,3.64,0.0,3.7396,3.7995,3.8385,3.8464,3.8954,3.9299,3.9299,3.9299,3.9299,3.9299,3.8805,3.8397,3.8215,3.7685,3.704,3.6307,3.5578,3.4832,3.4069,0.0,0.0,0.0,0.0,0.0,0.0,0.0,0.0,0.0,0.0,0.0,0.0,0.0,0.0,0.0,0.0,0.0,0.0,0.0,0.0,0.0,0.0,0.0,0.0,0.0,0.0,0.0,0.0,0.0,2.5793,2.5861,0.0,0.0,0.0,0.0,2.7569,2.7637,2.8168,2.9295,2.9407,2.9692,3.0256,3.1165,3.1497,3.1223,3.2663,3.3623,3.408,3.4349,3.4878,3.5668,3.527,3.5307,3.5672,3.521,3.5451,3.6112,3.4789,3.3891,3.3358,3.3358,3.3255,3.3057,3.2601,3.2728,3.3057,3.2601,3.2427,3.2427,3.2427,3.2744,3.3104,3.3089,3.3381,0.0,0.0,3.3486,3.3312,3.3889,3.4607,3.5195,3.5341,3.6512,3.7486,3.7071,3.7732,3.7683,3.5142,3.4646,3.5094,3.6632,0.0,3.7263,3.8523,3.8737,3.8879,3.9209,3.9282,3.9299,3.9299,3.9299,3.9299,3.9299,3.9265,3.8954,3.8232,3.8166,3.7801,3.7085,3.634,3.5914,3.5868,3.4219,0.0,0.0,0.0,0.0,0.0,0.0,0.0,0.0,0.0,0.0,0.0,0.0,0.0,0.0,0.0,0.0,0.0,0.0,0.0,0.0,0.0,0.0,0.0,0.0,0.0,0.0,0.0,0.0,2.67,2.7185,0.0,2.7381,2.8279,2.8874,2.8864,2.9411,3.0018,3.0626,3.1229,3.1738,3.2137,3.2808,3.3089,3.2959,3.3511,3.4058,3.458,3.4678,3.5076,3.5734,3.5597,3.5909,3.6561,3.6395,3.6793,3.7491,3.7041,3.6243,3.5299,3.5299,3.526,3.5176,3.5002,3.5054,3.5176,3.5002,3.4948,3.4948,3.4948,3.4794,3.4685,3.5093,3.5035,3.4949,3.5345,3.5328,3.5251,3.5453,3.5962,3.642,3.6468,3.7193,3.7817,3.7647,3.7948,3.8055,3.7436,3.6909,3.6796,3.7435,3.7257,3.7365,3.8399,3.8681,3.8846,3.8955,3.9178,3.9299,3.9299,3.9299,3.9299,3.9299,3.9299,3.9199,3.8921,3.8921,3.8589,3.7834,3.7352,3.6593,3.5509,3.4832,3.3964,0.0,0.0,0.0,0.0,0.0,0.0,0.0,0.0,0.0,0.0,0.0,0.0,0.0,0.0,0.0,0.0,0.0,0.0,0.0,0.0,0.0,0.0,0.0,0.0,0.0,0.0,2.7134,2.7861,2.8608,2.9148,2.9293,3.0088,3.0689,3.089,3.137,3.1797,3.2155,3.2928,3.3363,3.3368,3.4066,3.436,3.4206,3.4409,3.4786,3.5338,3.5338,3.5622,3.6131,3.6131,3.6528,3.7187,3.707,3.7462,3.8183,3.8052,3.7579,3.6925,3.6722,3.6504,3.6301,3.6301,3.6301,3.6301,3.6301,3.6301,3.6301,3.6301,3.6025,3.5781,3.6185,3.6011,3.5796,3.6199,3.6301,3.6301,3.6301,3.6725,3.7166,3.7166,3.7584,3.7998,3.7998,3.8344,3.8676,3.8811,3.8423,3.8153,3.8402,3.8142,3.8187,3.9003,3.9159,3.9331,3.9637,3.9762,3.9875,4.0001,3.9812,3.968,3.968,3.9448,3.9299,3.9299,3.9299,3.903,3.8431,3.8058,3.7295,3.6069,3.5438,3.4494,3.316,0.0,0.0,0.0,0.0,0.0,0.0,0.0,0.0,0.0,0.0,0.0,0.0,0.0,0.0,0.0,0.0,0.0,0.0,0.0,0.0,0.0,0.0,0.0,2.6196,2.7661,2.8969,2.9287,3.0139,3.1188,3.2427,3.2166,3.2439,3.3661,3.3389,3.3405,3.3946,3.4393,3.4463,3.4,3.4983,3.5305,3.4855,3.5425,3.5958,3.6405,3.6425,3.6615,3.6998,3.6998,3.7226,3.7586,3.7167,3.7462,3.8165,3.7763,3.7839,3.8144,3.7564,3.6939,3.6359,3.6359,3.6359,3.6359,3.6359,3.6359,3.6359,3.6359,3.6359,3.6359,3.6359,3.6359,3.6359,3.6359,3.6359,3.6359,3.6359,3.6834,3.7331,3.7331,3.7781,3.8221,3.8221,3.9118,3.974,3.9083,3.8917,3.9026,3.944,3.9503,3.9721,4.0361,4.0197,0.0,4.1238,4.1079,4.1005,4.1352,4.0798,4.0412,4.0395,3.9746,3.9332,3.9299,3.9299,3.9148,3.8832,3.8421,3.8042,3.7667,3.6033,3.4927,3.4334,0.0,0.0,0.0,0.0,0.0,0.0,0.0,0.0,0.0,0.0,0.0,0.0,0.0,0.0,0.0,0.0,0.0,0.0,0.0,0.0,0.0,2.9213,2.9542,2.8694,2.9457,3.0561,3.1815,3.2566,3.3212,3.3744,3.4359,3.4715,3.4779,3.4696,3.4887,3.5462,3.5623,3.5833,3.6131,3.6164,3.6083,3.5965,3.6116,3.6272,3.6405,3.6693,3.6895,3.6998,3.6998,3.7226,3.7586,3.7167,3.7462,3.8165,3.7763,3.7839,3.8188,3.8028,3.7839,3.768,3.768,3.768,3.768,3.768,3.768,3.768,3.768,3.768,3.768,3.768,3.768,3.768,3.768,3.768,3.768,3.768,3.7825,3.7955,3.7955,3.8421,3.8852,3.8852,3.974,4.0499,4.0297,4.0568,4.0558,3.9645,3.9503,3.9565,3.9752,3.9891,4.0091,4.0363,4.048,4.0671,4.099,4.0869,4.0656,4.0415,4.021,3.9879,3.9332,3.9299,3.9258,3.9178,3.8644,3.7827,3.6777,3.583,3.526,0.0,0.0,0.0,0.0,0.0,0.0,0.0,0.0,0.0,0.0,0.0,0.0,0.0,0.0,0.0,0.0,0.0,0.0,0.0,0.0,0.0,0.0,3.0993,3.1717,3.145,3.1854,3.2497,3.3278,3.4272,3.5077,3.5511,3.5925,3.618,3.6212,3.6057,3.6117,3.645,3.6631,3.6805,3.6984,3.6948,3.6937,3.703,3.703,3.7169,3.7459,3.7672,3.7791,3.7791,3.7791,3.8023,3.8376,3.8161,3.8401,3.8967,3.8457,3.8414,3.8594,0.0,0.0,0.0,0.0,3.8202,3.8202,3.8202,3.8202,3.8202,3.8202,3.8202,3.8202,3.8202,3.8202,3.8202,3.8202,3.8202,3.8202,3.8202,3.8202,3.8202,3.8202,3.8464,3.8723,3.8723,3.9633,4.0424,4.0424,4.1056,0.0,4.0514,4.0372,4.042,4.0563,4.0642,4.0768,4.105,4.1096,4.1233,4.1581,4.1468,4.1271,4.108,4.0657,0.0,0.0,0.0,3.9245,3.9094,3.8516,0.0,0.0,0.0,3.5962,3.5821,3.5537,0.0,0.0,3.4002,3.397,0.0,0.0,0.0,0.0,0.0,0.0,0.0,0.0,0.0,0.0,0.0,0.0,0.0,0.0,0.0,0.0,3.2625,3.3736,3.4123,3.4487,3.4614,3.4324,3.5544,3.666,3.7346,3.7076,3.7086,3.7639,3.7341,3.7134,3.7134,3.7476,0.0,0.0,0.0,3.7816,3.8084,3.8084,3.8386,3.8962,3.9023,3.9043,3.9043,3.9043,3.9226,3.9562,3.9522,3.9727,4.006,3.9465,3.9223,3.9131,3.8463,3.8202,3.8202,3.8202,3.8202,3.8202,3.8202,0.0,0.0,3.8202,3.8202,3.8202,3.8202,3.8202,3.8202,3.8202,3.8202,3.8202,3.8202,3.8202,3.8202,3.8202,3.8202,3.8202,3.8202,3.906,3.9816,3.9816,4.0735,4.1506,4.1506,4.1555,4.1703,4.1997,4.1785,4.1818,4.2413,4.2222,4.219,4.2554,4.2279,0.0,4.206,4.1187,4.058,4.0456,3.9775,3.9179,3.8722,3.8215,3.7915,3.7857,3.7281,3.6821,3.6519,3.5932,3.5646,3.563,3.5472,3.5408,0.0,0.0,0.0,0.0,0.0,0.0,0.0,0.0,0.0,0.0,0.0,0.0,0.0,0.0,0.0,3.3475,3.4015,3.4598,3.569,3.6349,3.6715,3.666,3.6932,3.736,3.797,3.7953,3.7959,3.8089,3.8014,3.7976,3.7976,3.8033,3.8298,3.8755,3.8537,3.8667,3.9196,3.9196,3.9253,3.9401,3.9707,0.0,3.9872,3.9872,3.9926,3.9965,3.9642,3.9727,4.0069,3.9632,3.936,3.9131,3.8463,3.8202,3.8202,3.8202,3.8202,3.8202,3.8202,3.8202,3.8202,3.8202,3.8202,3.8202,3.8202,3.8202,0.0,3.8202,3.8202,3.8202,3.8202,3.8202,3.8202,3.8202,3.8202,3.8202,3.8202,3.876,3.9253,3.9253,4.0196,4.0936,4.0936,4.1306,4.1621,4.1687,4.1638,4.1654,4.1785,4.1736,4.1932,4.2538,4.2518,4.2456,4.2406,4.2196,4.1725,4.0857,4.017,3.9275,3.8118,3.8219,3.8078,3.7583,3.7441,3.7348,3.729,3.7163,3.7084,3.7068,3.593,3.5408,0.0,0.0,0.0,0.0,0.0,0.0,0.0,0.0,0.0,0.0,0.0,3.1452,0.0,0.0,3.3862,3.5137,3.5616,3.6065,3.6722,3.736,3.7651,3.7346,3.7578,3.7883,3.8173,3.8202,3.8202,3.8202,3.8202,3.8347,3.8681,3.8696,3.8986,3.9625,3.9463,3.9648,4.0297,4.0311,4.047,4.0801,4.099,4.1091,4.1091,4.1091,4.1091,4.1091,4.0882,4.0923,4.1056,4.0521,4.0036,3.9581,3.8942,3.8507,3.8202,3.8202,3.8202,3.8202,3.8202,3.8202,3.8202,3.8202,3.8202,3.8202,3.8202,3.8202,3.8202,3.8202,3.8202,3.8202,3.8202,3.8202,3.8202,3.8202,3.8202,3.8202,3.8202,3.8877,3.9493,3.9493,4.0409,4.1189,4.1189,4.1423,4.1605,4.1605,4.1605,4.1605,4.1605,4.1605,4.1736,4.2061,4.2397,4.2534,4.2331,4.2125,4.1617,4.072,4.0217,3.9479,3.8444,3.8431,3.8155,3.751,3.7495,3.7495,3.7495,3.7495,3.7495,3.7479,3.6768,3.6452,0.0,0.0,0.0,0.0,0.0,0.0,0.0,0.0,3.0509,3.18,3.2598,3.3396,3.4557,3.5215,3.5781,3.6402,3.6954,3.7327,3.7462,3.7897,3.8028,3.7535,3.7912,3.8202,3.8202,3.8202,3.8202,3.8202,3.8318,3.8638,3.9175,3.9305,3.9654,4.0263,4.0292,4.0612,4.1279,4.1279,4.157,4.2092,4.2092,4.2092,4.2092,4.2092,4.2092,4.2092,4.2092,4.2092,4.2049,4.1512,4.0902,4.0249,3.9755,3.9088,3.8376,3.8246,3.8202,3.8202,3.8202,3.8202,3.8202,3.8202,3.8202,3.8202,3.8202,3.8202,3.8202,3.8202,3.8202,3.8202,3.8202,3.8202,3.8202,3.8202,3.8202,3.8202,3.8202,3.8932,3.9568,3.9568,4.0497,4.1274,4.1274,4.144,4.1605,4.1605,4.1605,4.1605,4.1605,4.1605,4.1621,4.1687,4.2174,4.2413,4.2206,4.1897,4.1375,4.0588,4.0314,3.9841,3.9046,3.888,3.8505,3.789,3.789,3.789,3.789,3.789,3.789,3.789,3.789,3.7811,2.7448,2.8042,2.8637,2.9247,2.9421,2.9769,0.0,0.0,3.254,3.3802,3.462,3.5273,3.5967,3.6156,3.6417,3.7085,3.724,3.7491,3.8028,3.8159,3.8173,3.8115,3.8159,3.8202,3.8202,3.8202,3.8202,3.8202,3.8754,3.9117,3.9204,3.9712,4.0292,4.096,4.0989,4.1308,4.1976,4.199,4.202,4.2092,4.2092,4.2092,4.2092,4.2092,4.2092,4.2092,4.2092,4.2092,4.2092,4.202,4.1584,4.0974,4.0902,4.0147,3.9015,3.842,3.8202,3.8202,3.8202,3.8202,3.8202,3.8202,3.8202,3.8202,3.8202,3.8202,3.8202,3.8202,3.8202,3.8202,3.8202,3.8202,3.8202,3.8202,3.8202,3.8202,3.8202,3.8296,3.8393,3.8393,3.9316,4.0098,4.0098,4.0939,4.1605,4.1605,4.1605,4.1605,4.1605,4.1605,4.172,4.2013,4.2109,4.2254,4.2524,4.2506,4.2056,4.1083,4.0942,4.045,3.947,3.9687,3.9655,3.9281,3.9281,3.9281,3.9281,3.9281,3.9281,3.9281,3.9281,3.8965,2.8652,2.9552,3.0466,3.1133,3.1584,3.2193,3.3487,3.3995,3.4445,3.5311,3.604,3.6577,3.6838,3.7172,3.7506,0.0,3.7825,3.7912,3.8159,3.8202,3.8202,3.8202,3.8202,3.8202,3.8202,3.8202,3.8362,3.8754,3.9044,3.9523,4.0263,4.0539,4.0989,4.1657,4.1671,4.1816,4.2092,4.2092,4.2092,4.2092,4.2092,4.2092,4.2092,4.2092,4.2092,4.2092,4.2092,4.2092,4.2092,4.2092,4.1932,4.1642,4.125,4.0771,4.0176,3.916,3.8536,3.8202,3.8202,3.8202,3.8202,3.8202,3.8202,3.8202,3.8202,3.8202,3.8202,3.8202,3.8202,3.8202,3.8202,3.8202,3.8202,3.8202,3.8202,3.8202,3.8202,3.8482,3.8723,3.8723,3.9367,4.001,4.0357,4.0819,4.124,4.1555,4.1605,4.1605,4.1605,4.1605,4.1736,4.2061,4.1932,4.2013,4.2554,4.2238,4.1917,4.1709,4.147,4.0991,4.0166,4.0277,4.0071,3.9503,3.9503,3.9503,3.9503,3.9503,3.9503,3.9503,3.9503,3.9582,2.9958,3.106,3.2208,3.2859,3.353,3.4317,3.5407,3.5781,3.6043,3.6489,3.7099,3.7549,3.7549,3.7912,3.8202,3.8202,3.8202,3.8202,3.8202,3.8202,3.8275,3.8449,3.8478,3.8551,3.871,3.858,3.8754,3.9407,3.9625,4.0133,4.1047,4.1279,4.1599,4.2078,4.2092,4.2092,4.2092,4.2092,4.2092,4.2092,4.2092,4.2092,4.2092,4.2092,4.2092,4.2092,4.2092,4.2092,4.2092,4.2092,4.2092,4.2049,4.157,4.1265,4.0989,4.006,3.9189,3.8449,3.826,3.8202,3.8202,3.8202,3.8202,3.8202,3.8202,3.8202,3.8202,3.8202,3.8202,3.8202,3.8202,3.8202,3.8202,3.8202,3.8202,3.8202,3.8202,3.8538,3.8848,3.8848,3.9421,4.0045,4.0476,4.0817,4.1139,4.1539,4.1605,4.1605,4.1605,4.1605,4.1687,4.1932,4.1834,4.19,4.2285,4.1964,4.1802,4.1948,4.1818,4.1514,4.1039,4.1023,4.0769,4.023,4.0135,4.0072,4.0072,4.0072,4.0072,4.0072,4.0072,4.0372,3.1293,3.2411,3.3574,3.4196,3.4852,3.5508,3.6127,3.678,3.7259,3.7273,3.7752,3.8173,3.8173,3.8188,3.8202,3.8202,3.8202,3.8202,3.8202,3.8202,3.8449,3.9088,3.9175,3.9407,0.0,3.9509,3.9421,4.0031,4.067,4.1062,4.1091,4.1715,4.2078,4.2092,4.2092,4.2092,4.2092,4.2092,4.2092,4.2092,4.2092,4.2092,4.2092,4.2092,4.2092,4.2092,4.2092,4.2092,4.2092,4.2092,4.2092,4.2092,4.2078,4.1671,4.1091,4.1062,4.0249,3.9088,3.8434,3.8202,3.8202,3.8202,3.8202,3.8202,3.8202,3.8202,3.8202,3.8202,3.8202,3.8202,3.8202,3.8202,3.8202,3.8202,3.8202,3.8202,3.8202,3.8221,3.8221,3.8221,3.9136,3.9907,3.9925,4.0854,4.1572,4.1605,4.1605,4.1605,4.1605,4.1605,4.1605,4.1605,4.1899,4.1964,4.1654,4.1916,4.1948,4.1638,4.1916,4.2077,4.2061,4.2045,4.2029,4.2013,4.1705,4.1542,4.1542,4.1542,4.1542,4.1542,4.1542,4.1557,3.3367,3.437,3.5503,3.617,3.6489,3.6809,3.7418,3.7738,3.7897,3.7897,3.8057,3.8315,3.8723,3.8464,3.8333,3.8723,3.8464,3.8202,3.8202,3.858,3.8942,3.9175,3.9552,0.0,0.0,0.0,4.006,4.0713,4.0974,4.1279,4.1744,4.1976,4.2092,4.2092,4.2092,4.2092,4.2092,4.2092,4.2092,4.2092,4.2092,4.2092,4.2092,4.2092,4.2092,4.2092,4.2092,4.2092,4.2092,4.2092,4.2092,4.2092,4.2092,4.1961,4.17,4.1265,4.0829,4.0307,3.9233,3.887,3.8797,3.8347,3.8202,3.8202,3.8202,3.8202,3.8202,3.8202,3.8202,3.8202,3.8202,3.8202,3.8202,3.8202,3.8202,3.8202,3.8202,3.8202,3.8202,3.8202,3.8505,3.9009,3.9766,4.022,4.072,4.1489,4.1605,4.1605,4.1605,4.1605,4.1605,4.1605,4.1703,4.1818,4.1916,4.1834,4.1818,4.1916,4.1834,4.1769,4.1769,4.1769,4.1769,4.1769,4.1654,4.1605,4.1605,4.1605,4.1605,4.1605,4.1605,4.1605,3.4948,3.5848,3.6765,3.7201,3.7462,3.7723,3.8115,3.8202,3.8258,3.8482,3.8519,3.8705,3.9274,3.891,3.8649,3.905,3.876,3.8445,3.8221,3.8943,3.9478,3.9513,4.0075,4.0713,0.0,0.0,4.0989,4.1424,4.1453,4.1642,4.2078,4.2092,4.2092,4.2092,4.2092,4.2092,4.2092,4.2092,4.2092,4.2092,4.2092,4.2092,4.2092,4.2092,4.2092,4.2092,4.2092,4.2092,4.2092,4.2092,4.2092,4.2092,4.2092,4.2092,4.2049,4.1613,4.1453,4.1265,3.9973,3.9523,3.9421,3.8768,3.8565,3.8507,3.8275,3.8202,3.8202,3.8202,3.8202,3.8202,3.8202,3.8202,3.8202,3.8202,3.8202,3.8202,3.8202,3.8202,3.8202,3.8202,3.8371,3.8819,3.973,4.0255,4.0754,4.1489,4.1605,4.1605,4.1605,4.1605,4.1605,4.1605,4.1605,4.1687,4.1899,4.172,4.1687,4.1916,4.1834,4.1785,4.1785,4.1785,4.1785,4.1785,4.1671,4.1605,4.1605,4.1605,4.1671,4.1785,4.1785,4.1785,3.6025,3.6838,3.736,3.736,3.7781,3.8202,3.8202,3.8202,3.8371,3.8977,3.9104,3.9271,0.0,0.0,3.9104,3.9141,3.909,3.8852,3.8277,3.9245,4.0024,0.0,0.0,0.0,0.0,0.0,4.2092,4.2092,4.2092,4.2092,4.2092,4.2092,4.2092,4.2092,4.2092,4.2092,4.2092,4.2092,4.2092,4.2092,4.2092,4.2092,4.2092,4.2092,4.2092,4.2092,4.2092,4.2092,4.2092,4.2092,4.2092,4.2092,4.2092,4.2092,4.2092,4.2092,4.2092,4.1918,4.0641,4.0176,4.0046,3.945,3.9247,3.9117,3.8449,3.826,3.8246,3.8217,3.8202,3.8202,3.8202,3.8202,3.8202,3.8202,3.8202,3.8202,3.8202,3.8202,3.8202,3.824,3.876,3.9361,3.9852,4.0871,4.1605,4.1605,4.1605,4.1605,4.1605,4.1605,4.1605,4.1605,4.1605,4.1605,4.1605,4.1605,4.1605,4.1605,4.1899,4.2077,4.2077,4.2077,4.2077,4.2077,4.1785,4.1621,4.1621,4.1638,4.1802,4.2126,4.2109,4.2093,3.6823,3.7506,3.797,3.797,3.8086,3.8202,3.8202,3.8202,3.8371,3.8977,3.9104,3.9397,4.0389,3.9773,3.9235,3.9636,3.8969,0.0,3.8221,3.928,0.0,4.0094,0.0,4.1903,4.2078,4.2092,0.0,4.2092,4.2092,4.2092,4.2092,4.2092,4.2092,4.2092,4.2092,4.2092,4.2092,4.2092,4.2092,4.2092,4.2092,4.2092,4.2092,4.2092,4.2092,4.2092,4.2092,4.2092,4.2092,4.2092,4.2092,4.2092,4.2092,4.2092,4.2092,4.2092,4.2092,4.2049,4.17,4.1265,4.0728,4.0075,3.9871,3.9755,3.9131,3.8942,3.8841,3.8347,3.8202,3.8202,3.8202,3.8202,3.8202,3.8202,3.8202,3.8202,3.8202,3.8202,3.8333,3.8778,3.9684,4.0405,4.056,4.114,4.1605,4.1605,4.1605,4.1605,4.1605,4.1605,4.1605,4.1605,4.1605,4.1605,4.1605,4.1605,4.1605,4.1605,4.1687,4.1736,4.1736,4.1736,4.1736,4.1736,4.1883,4.1964,4.1964,4.2222,4.238,4.2459,4.2222,4.2093,3.7535,3.7941,3.8202,3.8202,3.8202,3.8202,3.8202,3.8408,3.8672,3.8952,3.9196,3.9527,4.0114,3.9762,3.9375,3.9445,3.9173,0.0,3.8631,3.9925,4.0795,0.0,4.1673,0.0,4.2133,4.2092,4.2092,4.2092,4.2092,4.2092,4.2092,4.2092,4.2092,4.2092,4.2092,4.2092,4.2092,4.2092,4.2092,4.2092,4.2092,4.2092,4.2092,4.2092,4.2092,4.2092,4.2092,4.2092,4.2092,4.2092,4.2092,4.2092,4.2092,4.2092,4.2092,4.2092,4.2092,4.2092,4.2092,4.1845,4.1424,4.0757,4.0539,4.0423,3.9784,3.9596,3.9523,3.9146,3.8841,3.8638,3.8638,3.842,3.8275,3.8565,3.8638,3.871,3.8986,3.903,3.9129,3.9421,4.0232,4.0828,4.0811,4.124,4.1605,4.1605,4.1605,4.1605,4.1605,4.1605,4.1654,4.1802,4.1818,4.1883,4.2029,4.2045,4.2045,4.2045,4.2045,4.2045,4.2045,4.2045,4.2045,4.2045,4.2222,4.2317,4.2317,4.2507,4.2679,4.2803,4.2633,4.2539,3.8043,3.8202,3.8202,3.8202,3.8202,3.8206,3.8179,3.8572,3.894,3.8879,3.9238,3.9536,3.9519,3.9545,3.9438,3.9055,3.9421,3.9637,3.9256,4.0763,4.1707,4.1173,4.2233,4.2795,4.2263,4.2222,4.2222,4.2222,4.2222,4.2195,4.2092,4.2092,4.2092,4.2092,4.2092,4.2092,4.2092,4.2092,4.2092,4.2092,4.2092,4.2092,4.2092,4.2092,4.2092,4.2092,4.2092,4.2092,4.2092,4.2092,4.2092,4.2092,4.2092,4.2092,4.2092,4.2092,4.2092,4.2092,4.2092,4.2092,4.199,4.1424,4.1221,4.1105,4.0437,4.0234,4.0205,4.0118,3.9712,3.932,3.932,3.8884,3.8609,3.9175,3.932,3.9465,3.9987,4.0148,4.0242,4.0244,4.0733,4.1161,4.1172,4.1494,4.1763,4.1763,4.1668,4.1621,4.1654,4.1621,4.172,4.1997,4.2029,4.2142,4.2444,4.2507,4.2522,4.2522,4.257,4.2601,4.2601,4.2601,4.2601,4.2601,4.2648,4.2663,4.2663,4.271,4.2865,4.3174,4.3128,4.3113,3.8043,3.8202,3.8202,3.8202,3.8202,3.8169,3.8053,3.8118,3.8294,3.8668,3.8809,3.9007,3.9424,3.9154,3.9029,3.9487,3.9298,3.9228,3.9688,4.0988,4.1874,0.0,4.2476,4.2975,4.2855,4.2835,4.2835,4.2835,4.2835,4.2642,4.2133,4.2092,4.2092,4.2092,4.2092,4.2092,4.2092,4.2092,4.2092,4.2092,4.2092,4.2092,4.2092,4.2092,4.2092,4.2092,4.2092,4.2092,4.2092,4.2092,4.2092,4.2092,4.2092,4.2092,4.2092,4.2092,4.2092,4.2092,4.2092,4.2092,4.2078,4.1961,4.1918,4.1802,4.1134,4.0916,4.08,4.0249,4.0017,3.9944,3.9944,3.9857,3.9799,3.9915,3.9944,3.9973,4.0075,4.048,4.0991,4.1482,4.2053,4.2629,4.3102,4.2802,4.2522,4.2522,4.2,4.1703,4.198,4.1769,4.1621,4.1687,4.1687,4.172,4.1769,4.2029,4.219,4.219,4.246,4.2601,4.2601,4.2601,4.2601,4.2601,4.2881,4.3005,4.3005,4.328,4.3462,4.3507,4.3235,4.3113,3.8043,3.8202,3.8202,3.8202,3.797,3.7765,3.7958,3.7973,3.8001,3.8141,3.8402,3.8576,3.8477,3.8528,3.8715,3.9126,3.9263,3.9573,4.0265,4.1541,4.24,4.2382,4.3301,4.3815,4.3497,4.3477,4.3477,4.3477,4.3477,4.32,4.2602,4.2569,4.2571,4.2571,4.2905,4.3079,4.3079,4.3079,4.3079,4.3079,4.3079,4.3079,4.3079,4.3079,4.289,4.2571,4.2571,4.2382,4.2092,4.2092,4.2092,4.2092,4.2092,4.2092,4.2092,4.2092,4.2092,4.2092,4.2092,4.2092,4.2092,4.2092,4.2092,4.2034,4.1715,4.1613,4.1555,4.1221,4.0887,4.0612,4.0612,4.0365,4.0191,4.0539,4.0887,4.1134,4.1134,4.1621,4.2116,4.2368,4.2919,4.3409,4.3649,4.3437,4.3215,4.3215,4.2932,4.2829,4.3213,4.293,4.2611,4.2398,4.2381,4.2444,4.2617,4.2789,4.2882,4.2882,4.3036,4.3128,4.3128,4.3128,4.3128,4.3128,4.328,4.3357,4.3357,4.3507,4.3598,4.3598,4.3432,4.3357,3.7839,3.7897,3.7839,3.797,3.7549,3.7204,3.7673,3.7727,3.7687,3.7669,3.798,3.8128,3.759,3.7938,3.8417,3.8807,3.9319,3.9956,4.0861,4.2062,4.2903,4.2974,4.3937,0.0,4.4128,4.4086,4.4086,4.4086,4.4086,4.3895,4.3449,4.3284,4.3282,4.3413,4.3803,4.3993,4.3993,4.3993,4.3993,4.3993,4.3993,4.3993,4.3993,4.3993,4.3703,4.3195,4.3195,4.2955,4.2498,4.2498,4.2411,4.2281,4.2281,4.2208,4.2092,4.2092,4.2092,4.2092,4.2092,4.2092,4.2092,4.2092,4.2092,4.2092,4.2092,4.2092,4.2092,4.2092,4.1715,4.1308,4.1308,4.0916,4.0655,4.1192,4.1715,4.2092,4.2092,4.2459,4.2867,4.3071,4.3513,4.3898,4.4118,4.402,4.391,4.391,4.3783,4.3844,4.422,4.4084,4.3838,4.3609,4.3301,4.3184,4.3373,4.3447,4.3492,4.3492,4.3568,4.3598,4.3598,4.3598,4.3598,4.3598,4.3598,4.3598,4.3598,4.3598,4.3598,4.3598,4.3598,4.3598,3.7201,3.6939,3.6635,3.7244,3.6881,3.6509,3.6914,3.6998,3.7097,3.7446,3.756,3.7574,3.7511,3.7542,3.8002,0.0,0.0,3.9992,4.1333,4.2201,4.2942,4.3556,4.3784,4.4106,4.4656,4.4718,4.4718,4.4718,4.4718,4.4749,4.4807,4.4181,4.4125,4.4801,4.43,4.3993,4.3993,4.3993,4.3993,4.3993,4.3993,4.3993,4.3993,4.3993,4.3964,4.3906,4.3906,4.3863,4.3841,4.3841,4.3456,4.2919,4.2919,4.2571,4.2092,4.2092,4.2092,4.2092,4.2092,4.2092,4.2092,4.2092,4.2092,4.2092,4.2092,4.2092,4.2092,4.2092,4.2049,4.2005,4.2005,4.1961,4.1932,4.199,4.2049,4.2092,4.2092,4.2133,4.252,4.3598,4.3855,4.4262,4.5418,4.5047,4.4605,4.4605,4.4085,4.3812,4.4171,4.4489,4.4805,4.5079,4.3945,4.3057,4.2714,4.2975,4.3143,4.3143,4.3432,4.3598,4.3598,4.3598,4.3598,4.3598,4.3598,4.3598,4.3598,4.3598,4.3598,4.3598,4.3598,4.3598,3.6896,3.6751,3.6501,3.7371,3.6889,3.6272,3.6649,3.6444,3.6199,3.6228,3.6246,3.6373,3.6769,3.6848,3.7276,0.0,0.0,0.0,4.1135,4.2117,4.3016,4.3903,4.4202,4.4626,4.5332,4.5395,4.5395,4.5395,4.5395,4.5787,4.6702,4.5319,4.4642,4.4928,4.5062,4.5148,4.5148,4.5148,4.5148,4.5148,4.5148,4.5148,4.5148,4.5148,4.4908,4.4552,4.4552,4.4349,4.3993,4.3993,4.3834,4.3587,4.3587,4.3195,4.2629,4.2629,4.2411,4.2092,4.2092,4.2092,4.2092,4.2092,4.2092,4.2092,4.2092,4.2092,4.2092,4.2092,4.2092,4.2092,4.2092,4.2092,4.2092,4.2092,4.2092,4.2092,4.2092,4.2392,4.2955,4.4055,4.4358,4.4809,4.5907,4.5683,4.5437,4.5639,4.5435,4.5469,4.6052,4.6085,4.6123,4.6255,4.5355,4.4703,4.4534,4.4658,4.4735,4.4735,4.4843,4.492,4.492,4.492,4.4721,4.4274,4.4257,4.4027,4.3598,4.3598,4.3598,4.3598,4.3598,4.3598,3.6106,3.6001,3.5796,3.6681,3.6177,3.556,3.5922,3.5731,3.5486,3.5419,3.5464,3.5698,3.6295,3.6393,3.685,0.0,0.0,3.999,4.0958,4.2013,4.2968,4.3804,4.4388,4.493,4.543,4.5663,4.5789,4.5789,4.5789,4.6237,4.7214,4.6116,4.555,4.5784,4.6042,4.6105,4.5903,4.5903,4.5903,4.5903,4.5903,4.5903,4.5903,4.5903,4.5656,4.5206,4.5206,4.4959,4.4545,4.4545,4.4465,4.4255,4.4255,4.3863,4.3297,4.3297,4.289,4.2368,4.2368,4.2237,4.2092,4.2092,4.2092,4.2092,4.2092,4.2092,4.2092,4.2092,4.2092,4.2092,4.2092,4.2092,4.2092,4.2092,4.2092,4.2092,4.2092,4.2581,4.3304,4.4293,4.4759,4.5295,4.6303,4.628,4.6207,4.6442,4.6477,4.6669,4.7185,4.7133,4.7039,4.7045,4.6695,4.6262,4.5847,4.5813,4.5813,4.5813,4.5813,4.5813,4.5813,4.5813,4.5565,4.5035,4.5035,4.4771,4.4242,4.4242,4.4242,4.4242,4.4242,4.4242,3.4666,3.4379,3.4076,3.4682,3.4379,3.406,3.4502,3.4818,3.5074,3.5351,3.5615,3.5919,3.6324,3.6393,3.685,0.0,0.0,0.0,4.0989,4.1977,4.275,4.3167,4.4137,4.4795,4.4725,4.5363,4.5789,4.5789,4.5789,4.5798,4.5812,4.6442,4.7102,4.7858,4.7228,4.658,4.5903,4.5903,4.5903,4.5903,4.5903,4.5903,4.5903,4.5903,4.5903,4.5903,4.5903,4.5903,4.5888,4.5888,4.5496,4.4901,4.4901,4.4523,4.3979,4.3979,4.3558,4.2977,4.2977,4.2586,4.2092,4.2092,4.2092,4.2092,4.2092,4.2092,4.2092,4.2092,4.2092,4.2092,4.2092,4.2092,4.2092,4.2092,4.2092,4.2092,4.2092,4.2581,4.3304,4.4293,4.4968,4.5715,4.672,4.6876,4.6892,4.6876,4.6876,4.6893,4.6893,4.7185,4.7388,4.7404,4.7737,4.7388,4.5914,4.5813,4.5813,4.5813,4.5813,4.5813,4.5813,4.5813,4.5813,4.5797,4.5797,4.5765,4.5765,4.5765,4.5765,4.5765,4.5765,4.5765,3.3958,3.4053,3.4105,3.4984,3.4933,3.4607,3.4438,3.4591,3.4643,3.4078,3.4024,3.427,3.4855,3.5379,3.6082,0.0,0.0,0.0,4.0592,4.1405,4.2236,4.3101,4.4102,4.4916,4.5399,4.5647,4.5789,4.5789,4.5789,4.6,4.6457,4.6677,4.6928,4.7211,4.7465,4.7271,4.6602,4.658,4.6336,4.5903,4.5903,4.5903,4.5903,4.5903,4.5903,4.5903,4.5903,4.5903,4.5903,4.5903,4.5764,4.5576,4.5576,4.5191,4.4625,4.4625,4.3942,4.2992,4.2992,4.26,4.2092,4.2092,4.2092,4.2092,4.2092,4.2092,4.2092,4.2092,4.2092,4.2092,4.2092,4.2092,4.2092,4.2092,4.2092,4.2201,4.2642,4.2855,4.3502,4.5206,4.546,4.5787,4.7032,4.7048,4.6979,4.7218,4.7236,4.7337,4.7621,4.7737,4.782,4.782,4.7919,4.7819,4.7338,4.7305,4.7305,4.7305,4.7305,4.7305,4.7305,4.7305,4.7073,4.656,4.6543,4.6295,4.5813,4.5813,4.5813,4.5813,4.5813,4.5813,3.2653,3.322,3.368,3.4248,3.4449,3.4469,3.4271,3.4284,3.4172,3.3572,3.345,3.3657,3.4326,3.5054,3.588,3.6892,3.8652,0.0,4.0436,4.1355,4.2429,4.3651,4.411,4.4752,4.5879,4.5864,4.5789,4.5789,4.5789,4.5979,4.6408,4.6661,4.6824,4.6852,4.7528,4.7581,4.6897,4.7151,4.6938,4.6284,4.6284,4.615,4.5903,4.5903,4.5903,4.5903,4.5903,4.5903,0.0,4.5903,4.5903,4.5903,4.5903,4.5656,4.5293,4.5293,4.4458,4.3369,4.3369,4.2866,4.2201,4.2201,4.2263,4.2325,4.2325,4.2263,4.2201,4.2201,4.2201,4.2222,4.2304,4.2263,4.2222,4.2304,4.2325,4.25,4.3185,4.3521,4.4171,4.5861,4.6165,4.6463,4.7454,4.7454,4.7387,4.7588,4.7638,4.7721,4.7968,4.8001,4.8001,4.8001,4.8001,4.8001,4.8001,4.8001,4.8001,4.8001,4.8001,4.8001,4.8001,4.8001,4.7785,4.7322,4.7322,4.709,4.6626,4.6626,4.6626,4.6626,4.6626,4.6626,0.0,3.1961,3.2866,3.2686,3.3152,3.372,3.3932,3.3854,0.0,3.3684,3.3694,3.3915,3.4518,3.5291,3.6148,3.7101,3.9086,4.0511,4.0496,4.1664,4.3072,4.4512,4.4086,4.4367,4.6058,4.5961,4.5789,4.5789,4.5789,4.5789,4.5789,4.6392,4.6724,4.6724,4.7442,4.7526,4.6903,4.7511,4.7479,4.6835,4.6835,4.6513,4.5903,4.5903,4.5903,4.5903,4.5903,4.5903,4.5903,4.5903,4.5903,4.5903,4.5903,4.5903,4.5903,4.5859,4.5061,4.3979,4.3957,4.3256,4.2392,4.2412,4.2541,4.2688,4.2688,4.2581,4.2412,4.2412,4.2412,4.2459,4.2648,4.2561,4.2474,4.2662,4.2688,4.2935,4.3784,4.44,4.515,4.6325,4.7016,4.7521,4.7935,4.8001,4.8001,4.8001,4.8001,4.8001,4.8001,4.8001,4.8001,4.8001,4.8001,4.8001,4.8001,4.8001,4.8001,4.8001,4.8001,4.8001,4.8001,4.8001,4.8001,4.8001,4.8001,4.8001,4.8001,4.8001,4.8001,4.8001,4.8001,4.8001,2.9599,0.0,3.1951,3.2063,3.2632,3.3127,0.0,0.0,0.0,0.0,0.0,3.3985,3.3944,3.5128,3.6284,3.6773,3.8904,4.048,4.0436,4.1229,4.2267,4.3441,4.3663,4.4159,4.5334,4.5673,4.5789,4.5789,4.5789,4.5789,4.5789,4.595,4.6044,4.6044,4.6701,4.6981,4.6832,4.6986,4.6752,4.6131,4.6131,4.6049,4.5903,4.5903,4.5903,4.5903,4.5903,4.5903,4.5903,4.5903,4.5903,4.5903,4.5903,4.5903,4.5845,4.5322,4.4654,4.3942,4.3398,4.2863,4.2433,4.2581,4.2648,4.2688,4.2688,4.2668,4.2627,4.2627,4.2627,4.2642,4.2688,4.2648,4.2642,4.2688,4.2688,4.3056,4.432,4.4699,4.5279,4.6879,4.7303,4.7521,4.7935,4.8001,4.8001,4.8001,4.8001,4.8001,4.8001,4.8001,4.8001,4.8001,4.8001,4.8001,4.8001,4.8001,4.8001,4.8001,4.8001,4.8001,4.8001,4.8001,4.8001,4.8001,4.8001,4.8001,4.8001,4.8001,4.8001,4.8001,4.8001,4.8001,2.9436,3.0344,3.144,3.1338,3.1996,3.2707,3.2805,0.0,0.0,0.0,0.0,3.4046,3.4487,3.5461,3.6465,0.0,3.9003,4.0482,4.1095,4.1693,4.2349,4.3117,4.3788,4.4406,4.4919,4.5599,4.5956,4.5807,4.5789,4.5789,4.5789,4.5789,4.5789,4.5789,4.6137,4.6494,4.6797,4.7141,4.696,4.6303,4.6028,4.5754,4.5441,4.5441,4.5453,4.5467,4.5772,4.5903,4.5903,4.5903,4.5903,4.5874,4.5547,4.5453,4.5366,4.4836,4.4153,4.3528,4.3369,4.3043,4.2708,4.291,4.297,4.297,4.297,4.297,4.295,4.2855,4.285,4.287,4.295,4.291,4.2855,4.295,4.297,4.3294,4.4415,4.4962,4.559,4.6879,4.7421,4.7737,4.7968,4.8001,4.8001,4.8001,4.8001,4.8001,4.8001,4.8001,4.8001,4.8001,4.8001,4.8001,4.8001,4.8001,4.8001,4.8001,4.8001,4.8001,4.8001,4.8001,4.8001,4.8001,4.8001,4.8001,4.8001,4.8001,4.8001,4.8001,4.8001,4.8001,2.9677,3.0268,3.1034,3.0601,3.129,3.2236,3.2792,0.0,0.0,0.0,0.0,0.0,3.5337,3.6069,0.0,0.0,0.0,4.0556,4.1981,4.2333,4.259,4.299,4.4023,4.4697,4.4636,4.5628,4.6157,4.5825,4.5789,4.5789,4.5789,4.5789,4.5789,4.5789,4.5862,4.6151,4.6721,4.728,4.727,4.6628,4.613,4.5545,4.4899,4.49,4.4843,4.4777,4.5343,4.5627,4.5657,4.5657,4.568,4.5644,4.5032,4.4836,4.4793,4.4274,4.3684,4.316,4.3469,4.3323,4.3036,4.323,4.329,4.329,4.329,4.329,4.327,4.3095,4.3056,4.3095,4.327,4.3155,4.3095,4.327,4.329,4.3551,4.4472,4.5221,4.5951,4.681,4.7538,4.8001,4.8001,4.8001,4.8001,4.8001,4.8001,4.8001,4.8001,4.8001,4.8001,4.8001,4.8001,4.8001,4.8001,4.8001,4.8001,4.8001,4.8001,4.8001,4.8001,4.8001,4.8001,4.8001,4.8001,4.8001,4.8001,4.8001,4.8001,4.8001,4.8001,4.8001,2.9436,2.9741,3.0299,2.9994,3.0511,3.1301,3.2007,0.0,0.0,0.0,0.0,0.0,0.0,3.6679,3.7863,0.0,0.0,4.0845,4.2313,4.2093,4.1882,4.2237,4.352,4.4353,4.428,4.5498,4.6157,4.5825,4.5789,4.5789,4.5789,4.5789,4.5789,4.5789,4.6084,4.6261,4.639,4.6208,4.6059,4.5943,4.5847,4.5489,4.4905,4.4904,4.4618,4.4139,4.4262,4.4378,4.4558,4.4558,4.4665,4.4765,4.4505,4.4504,4.453,4.3561,4.3368,4.3555,4.321,4.305,4.3036,4.323,4.329,4.329,4.329,4.329,4.329,4.327,4.325,4.327,4.329,4.327,4.327,4.329,4.329,4.3708,4.5187,4.5606,4.6127,4.7554,4.7919,4.8001,4.8001,4.8001,4.8001,4.8001,4.8001,4.8001,4.8001,4.8001,4.8001,4.8001,4.8001,4.8001,4.8001,4.8001,4.8001,4.8001,4.8001,4.8001,4.8001,4.8001,4.8001,4.8001,4.8001,4.8001,4.8001,4.8001,4.8001,4.8001,4.8001,4.8001,3.0228,3.0293,3.0514,2.9978,3.0377,3.1029,3.1466,3.2285,0.0,0.0,0.0,0.0,0.0,0.0,3.7929,3.8568,4.0125,4.1585,4.2471,4.2648,4.2664,4.2633,4.4105,4.4968,4.4556,4.5966,4.6756,4.642,4.6402,4.6402,4.6402,4.6402,4.6402,4.6402,4.6319,4.6303,4.6303,4.5956,4.5895,4.6074,4.5743,4.5141,4.4373,4.4366,4.4026,4.3471,4.3834,4.4044,4.4151,4.4265,4.4336,4.4378,4.3934,4.3908,4.4023,4.3154,4.3104,4.3441,4.3099,4.3076,4.319,4.327,4.329,4.329,4.329,4.329,4.329,4.329,4.329,4.329,4.329,4.329,4.329,4.329,4.329,4.363,4.4793,4.5387,4.602,4.7135,4.7704,4.8001,4.8001,4.8001,4.8001,4.8001,4.8001,4.8001,4.8001,4.8001,4.8001,4.8001,4.8001,4.8001,4.8001,4.8001,4.8001,4.8001,4.8001,4.8001,4.8001,4.8001,4.8001,4.8001,4.8001,4.8001,4.8001,4.8001,4.8001,4.8001,4.8001,4.8001,3.0944,3.0791,3.0818,3.0442,0.0,3.0967,3.1233,0.0,0.0,0.0,0.0,0.0,0.0,3.733,0.0,3.9602,4.0911,4.1959,4.2519,4.2959,4.3174,4.3005,4.443,4.5254,4.4837,4.6156,4.6955,4.6774,4.6755,4.6755,4.6755,4.6842,4.6893,4.6893,4.6669,4.6549,4.6549,4.6386,4.6278,4.6175,4.5803,4.5129,4.4255,4.4349,4.4043,4.3478,4.3837,4.3967,4.3967,4.3939,4.3939,4.386,4.3314,4.3206,4.3349,4.2981,4.301,4.321,4.3115,4.3155,4.329,4.329,4.329,4.329,4.329,4.329,4.329,4.329,4.329,4.329,4.329,4.329,4.329,4.329,4.329,4.3512,4.4335,4.5129,4.5931,4.6656,4.7438,4.8001,4.8001,4.8001,4.8001,4.8001,4.8001,4.8001,4.8001,4.8001,4.8001,4.8001,4.8001,4.8001,4.8001,4.8001,4.8001,4.8001,4.8001,4.8001,4.8001,4.8001,4.8001,4.8001,4.8001,4.8001,4.8001,4.8001,4.8001,4.8001,4.8001,4.8001,3.0888,3.0625,3.0802,3.1479,3.1276,0.0,3.1458,3.2297,0.0,3.4746,0.0,0.0,0.0,3.8359,3.9597,4.0627,4.0941,4.1435,4.2457,4.2365,4.2301,4.2601,4.3629,4.4427,4.4772,4.5485,4.6028,4.6308,4.6338,4.6338,4.6338,4.6703,4.6893,4.6893,4.7168,4.732,4.732,4.7671,4.7166,4.5844,4.6104,4.5895,4.5313,4.5672,4.5492,4.4818,4.4185,4.3916,4.3858,4.3109,4.2815,4.278,4.2562,4.2486,4.2567,4.308,4.317,4.3056,4.323,4.329,4.329,4.329,4.329,4.329,4.329,4.329,4.329,4.329,4.329,4.329,4.329,4.329,4.329,4.329,4.329,4.3512,4.4335,4.5129,4.5931,4.6656,4.7438,4.8001,4.8001,4.8001,4.8001,4.8001,4.8001,4.8001,4.8001,4.8001,4.8001,4.8001,4.8001,4.8001,4.8001,4.8001,4.8001,4.8001,4.8001,4.8001,4.8001,4.8001,4.8001,4.8001,4.8001,4.8001,4.8001,4.8001,4.8001,4.8001,4.8001,4.8001,3.1702,3.1223,3.1073,3.2046,3.1939,0.0,0.0,3.3547,3.4578,3.5069,3.5945,0.0,0.0,0.0,4.0124,4.1166,4.1881,4.2449,4.2848,4.299,4.3082,4.3204,4.4394,4.5068,4.4761,4.5797,4.6553,4.665,4.6683,4.6879,4.7337,4.7488,4.7588,4.7588,4.7454,4.7404,4.7404,4.7337,4.7047,4.649,4.6825,4.6566,4.5769,4.5931,4.5631,4.4967,4.47,4.4569,4.4528,4.3897,4.3634,4.3595,4.315,4.287,4.283,4.317,4.325,4.321,4.327,4.329,4.329,4.329,4.329,4.329,4.329,4.329,4.329,4.329,4.329,4.329,4.329,4.329,4.329,4.329,4.329,4.3512,4.4335,4.5129,4.5931,4.6656,4.7438,4.8001,4.8001,4.8001,4.8001,4.8001,4.8001,4.8001,4.8001,4.8001,4.8001,4.8001,4.8001,4.8001,4.8001,4.8001,4.8001,4.8001,4.8001,4.8001,4.8001,4.8001,4.8001,4.8001,4.8001,4.8001,4.8001,4.8001,4.8001,4.8001,4.8001,4.8001,3.193,3.1384,3.109,0.0,0.0,0.0,3.3716,3.4572,3.5201,3.5514,3.6534,3.7782,3.9074,0.0,0.0,4.1421,4.2256,4.2851,4.3066,4.3295,4.3477,4.3598,4.4705,4.5349,4.5068,4.6051,4.6813,4.7044,4.7061,4.7275,4.777,4.7935,4.8001,4.8001,4.7721,4.7588,4.7588,4.737,4.7252,4.7252,4.7471,4.7185,4.6461,4.6566,4.6394,4.5925,4.5674,4.553,4.5421,4.4803,4.4514,4.4384,4.381,4.3512,4.3379,4.3329,4.329,4.329,4.329,4.329,4.329,4.329,4.329,4.329,4.329,4.329,4.329,4.329,4.329,4.329,4.329,4.329,4.3369,4.361,4.3689,4.3907,4.4699,4.5499,4.6216,4.6708,4.7438,4.8001,4.8001,4.8001,4.8001,4.8001,4.8001,4.8001,4.8001,4.8001,4.8001,4.8001,4.8001,4.8001,4.8001,4.8001,4.8001,4.8001,4.8001,4.8001,4.8001,4.8001,4.8001,4.8001,4.8001,4.8001,4.8001,4.8001,4.8001,4.8001,4.8001,4.8001,3.1407,3.0871,3.0719,0.0,0.0,0.0,3.5226,3.5198,3.5045,3.618,3.7482,3.8502,3.8843,3.9743,0.0,4.1406,4.1851,4.2349,4.3005,4.3096,4.3235,4.3568,4.4257,4.4985,4.5731,4.6092,4.6602,4.7339,4.7404,4.7404,4.7404,4.777,4.8001,4.8001,4.8001,4.8001,4.8001,4.8001,4.8001,4.8001,4.8001,4.7803,4.7421,4.782,4.8001,4.7952,4.7169,4.6708,4.6448,4.5652,4.5183,4.493,4.4388,4.4186,4.4109,4.3517,4.3294,4.3275,4.3275,4.329,4.329,4.329,4.329,4.329,4.329,4.329,4.329,4.329,4.329,4.329,4.329,4.329,4.3492,4.4316,4.4491,4.4718,4.5533,4.6271,4.6794,4.6794,4.7438,4.8001,4.8001,4.8001,4.8001,4.8001,4.8001,4.8001,4.8001,4.8001,4.8001,4.8001,4.8001,4.8001,4.8001,4.8001,4.8001,4.8001,4.8001,4.8001,4.8001,4.8001,4.8001,4.8001,4.8001,4.8001,4.8001,4.8001,4.8001,4.8001,4.8001,4.8001,3.1993,3.179,0.0,3.3061,0.0,0.0,0.0,3.6308,0.0,0.0,3.8115,3.8958,3.9855,4.0468,0.0,4.274,4.3073,4.3219,4.3417,4.3447,4.3477,4.3598,4.4257,4.4786,4.5002,4.5588,4.6252,4.6978,4.706,4.7259,4.7787,4.7935,4.8001,4.8001,4.8001,4.8001,4.8001,4.8001,4.8001,4.8001,4.8001,4.7952,4.7836,4.7952,4.8001,4.7984,4.7754,4.7605,4.7439,4.6141,4.4938,4.3933,4.3769,4.3389,4.291,4.2724,4.2361,4.1953,4.1953,4.2267,4.2676,4.2676,4.2955,4.329,4.329,4.329,4.329,4.329,4.329,4.329,4.329,4.329,4.3492,4.4316,4.4491,4.4718,4.5533,4.6271,4.6794,4.6794,4.7438,4.8001,4.8001,4.8001,4.8001,4.8001,4.8001,4.8001,4.8001,4.8001,4.8001,4.8001,4.8001,4.8001,4.8001,4.8001,4.8001,4.8001,4.8001,4.8001,4.8001,4.8001,4.8001,4.8001,4.8001,4.8001,4.8001,4.8001,4.8001,4.8001,4.8001,4.8001,3.1536,3.1637,0.0,3.2781,3.3096,3.3844,3.6215,0.0,0.0,0.0,3.8472,3.9163,4.0294,4.0761,0.0,4.3141,4.3402,4.3447,4.3583,4.3598,4.3598,4.3598,4.4257,4.4703,4.4703,4.5631,4.6411,4.6874,4.7173,4.7537,4.7984,4.8001,4.8001,4.8001,4.8001,4.8001,4.8001,4.8001,4.8001,4.8001,4.8001,4.8001,4.8001,4.8001,4.8001,4.7984,4.7686,4.7554,4.7471,4.6241,4.5211,4.4376,4.4058,4.3493,4.2874,4.284,4.2221,4.1441,4.1712,4.1889,4.2006,4.2006,4.2256,4.2577,4.2865,4.294,4.3,4.3235,4.329,4.329,4.329,4.3532,4.3907,4.4377,4.4737,4.5187,4.5969,4.6741,4.7287,4.7287,4.7671,4.8001,4.8001,4.8001,4.8001,4.8001,4.8001,4.8001,4.8001,4.8001,4.8001,4.8001,4.8001,4.8001,4.8001,4.8001,4.8001,4.8001,4.8001,4.8001,4.8001,4.8001,4.8001,4.8001,4.8001,4.8001,4.8001,4.8001,4.8001,4.8001,4.8001,4.8001,3.0584,3.0945,0.0,3.1974,3.2886,0.0,3.6246,3.7631,3.8476,3.8434,0.0,3.9159,4.0243,4.0662,4.134,4.2799,4.306,4.3184,4.3552,4.3598,4.3598,4.3598,4.4191,4.4637,4.4687,4.5913,4.6725,4.6792,4.7487,4.7901,4.7901,4.7968,4.8001,4.8001,4.8001,4.8001,4.8001,4.8001,4.8001,4.8001,4.8001,4.8001,4.8001,4.8001,4.8001,4.7968,4.7222,4.6858,4.6742,4.5997,4.5664,4.552,4.4788,4.41,4.3507,4.344,4.2563,4.1493,4.211,4.1934,4.1393,4.1393,4.14,4.1508,4.2126,4.2306,4.2455,4.304,4.322,4.3235,4.329,4.3907,4.4491,4.4491,4.5166,4.5969,4.6656,4.7421,4.8001,4.8001,4.8001,4.8001,4.8001,4.8001,4.8001,4.8001,4.8001,4.8001,4.8001,4.8001,4.8001,4.8001,4.8001,4.8001,4.8001,4.8001,4.8001,4.8001,4.8001,4.8001,4.8001,4.8001,4.8001,4.8001,4.8001,4.8001,4.8001,4.8001,4.8001,4.8001,4.8001,4.8001,3.1592,3.2154,0.0,0.0,3.4326,3.6115,3.659,3.7952,3.9029,3.8764,3.8972,3.9361,3.9925,4.0287,4.0962,4.2402,4.2633,4.2861,4.3515,4.3598,4.3598,4.3598,4.3746,4.406,4.4637,4.4985,4.5416,4.5996,4.6725,4.7139,4.7139,4.7686,4.8001,4.8001,4.8001,4.8001,4.8001,4.8001,4.8001,4.8001,4.8001,4.8001,4.8001,4.8001,4.8001,4.7968,4.7222,4.656,4.5979,4.525,4.4589,4.4062,4.3878,4.3416,4.2816,4.28,4.2248,4.1497,4.1633,4.1565,4.1395,4.1395,4.1391,4.1433,4.1568,4.1613,4.1747,4.2406,4.2586,4.2705,4.319,4.3907,4.4491,4.4491,4.5572,4.6604,4.676,4.7421,4.8001,4.8001,4.8001,4.8001,4.8001,4.8001,4.8001,4.8001,4.8001,4.8001,4.8001,4.8001,4.8001,4.8001,4.8001,4.8001,4.8001,4.8001,4.8001,4.8001,4.8001,4.8001,4.8001,4.8001,4.8001,4.8001,4.8001,4.8001,4.8001,4.8001,4.8001,4.8001,4.8001,4.8001,3.1386,0.0,0.0,3.3694,0.0,3.7182,3.7182,3.8551,3.9735,3.9398,3.9309,3.946,4.0053,4.0282,4.0743,4.1792,4.1974,4.2239,4.2969,4.3083,4.3201,4.3549,4.3598,4.3746,4.4141,4.4489,4.4869,4.525,4.5963,4.6361,4.6361,4.7073,4.7471,4.7471,4.7819,4.8001,4.8001,4.8001,4.8001,4.8001,4.8001,4.8001,4.8001,4.8001,4.8001,4.7934,4.6841,4.6146,4.5731,4.4622,4.3944,4.3598,4.3598,4.3189,4.2632,4.2959,4.2412,4.1558,4.19,4.1763,4.1456,4.1456,4.1234,4.1025,4.131,4.1173,4.1074,4.1733,4.1912,4.2062,4.2701,4.3437,4.4091,4.4414,4.5683,4.6794,4.6794,4.7421,4.8001,4.8001,4.8001,4.8001,4.8001,4.8001,4.8001,4.8001,4.8001,4.8001,4.8001,4.8001,4.8001,4.8001,4.8001,4.8001,4.8001,4.8001,4.8001,4.8001,4.8001,4.8001,4.8001,4.8001,4.8001,4.8001,4.8001,4.8001,4.8001,4.8001,4.8001,4.8001,4.8001,4.8001,3.1027,0.0,3.3442,3.4462,3.6119,0.0,3.7677,3.9004,4.0165,4.0028,3.9677,3.9561,4.0111,4.021,4.0428,4.1127,4.1229,4.1477,4.2206,4.2322,4.2587,4.3317,4.34,4.3449,4.3582,4.4158,4.4506,4.4506,4.52,4.5615,4.5615,4.631,4.6709,4.6709,4.7305,4.7686,4.7819,4.7819,4.7868,4.8001,4.8001,4.8001,4.8001,4.8001,4.8001,4.7918,4.6444,4.5813,4.5697,4.4209,4.3598,4.3598,4.3598,4.3265,4.2834,4.3402,4.285,4.1949,4.257,4.2301,4.1689,4.1689,4.1227,4.0777,4.1268,4.0939,4.0554,4.1201,4.1318,4.1426,4.2204,4.2965,4.3685,4.4372,4.5587,4.6656,4.678,4.7421,4.8001,4.8001,4.8001,4.8001,4.8001,4.8001,4.8001,4.8001,4.8001,4.8001,4.8001,4.8001,4.8001,4.8001,4.8001,4.8001,4.8001,4.8001,4.8001,4.8001,4.8001,4.8001,4.8001,4.8001,4.8001,4.8001,4.8001,4.8001,4.8001,4.8001,4.8001,4.8001,4.8001,4.8001,0.0,0.0,3.3325,0.0,3.531,3.6833,0.0,0.0,3.9617,0.0,4.0054,3.9737,3.9498,3.9448,3.9696,4.0412,4.0528,4.0776,4.1444,4.1543,4.1825,4.257,4.2653,4.2901,4.3532,4.3696,4.3746,4.3746,4.4423,4.4852,4.4852,4.5548,4.5963,4.5963,4.6045,4.6394,4.704,4.704,4.7371,4.8001,4.8001,4.8001,4.8001,4.8001,4.8001,4.7918,4.6444,4.5813,4.5697,4.4209,4.3598,4.3598,4.3598,4.3553,4.3477,4.3568,4.3477,4.3325,4.3432,4.302,4.2443,4.2443,4.1949,4.1376,4.1454,4.1014,4.0616,4.1224,4.0985,4.0815,4.208,4.2996,4.3769,4.4432,4.5277,4.6091,4.6672,4.7421,4.8001,4.8001,4.8001,4.8001,4.8001,4.8001,4.8001,4.8001,4.8001,4.8001,4.8001,4.8001,4.8001,4.8001,4.8001,4.8001,4.8001,4.8001,4.8001,4.8001,4.8001,4.8001,4.8001,4.8001,4.8001,4.8001,4.8001,4.8001,4.8001,4.8001,4.8001,4.8001,4.8001,4.8001,3.2237,3.2706,3.3308,0.0,3.5183,3.6696,3.7244,3.8545,3.9732,4.0059,4.0341,4.0345,3.9742,3.9642,3.9664,3.977,3.9779,4.0031,4.0743,4.0829,4.1094,4.1792,4.1891,4.2007,4.2338,4.2752,4.2969,4.2969,4.3663,4.4092,4.4092,4.4771,4.5184,4.5184,4.5581,4.5963,4.6278,4.6278,4.6643,4.7388,4.7388,4.7603,4.8001,4.8001,4.8001,4.7918,4.6444,4.5813,4.5697,4.4209,4.3598,4.3598,4.3598,4.3598,4.3598,4.3598,4.3598,4.3598,4.3598,4.3417,4.3159,4.3159,4.2695,4.2126,4.2126,4.1624,4.1038,4.0938,4.0679,4.067,4.16,4.2107,4.2745,4.4231,4.487,4.5325,4.6077,4.6831,4.7504,4.7918,4.8001,4.8001,4.8001,4.8001,4.8001,4.8001,4.8001,4.8001,4.8001,4.8001,4.8001,4.8001,4.8001,4.8001,4.8001,4.8001,4.8001,4.8001,4.8001,4.8001,4.8001,4.8001,4.8001,4.8001,4.8001,4.8001,4.8001,4.8001,4.8001,4.8001,4.8001,4.8001,0.0,0.0,3.3229,3.3562,3.497,3.6429,0.0,0.0,3.9557,0.0,4.0491,4.0729,4.0262,4.01,3.991,3.9524,3.9445,3.9618,4.0058,4.0127,4.0379,4.1061,4.116,4.1212,4.1378,4.1908,4.2222,4.2222,4.2721,4.305,4.305,4.3744,4.4141,4.4141,4.4854,4.5334,4.5532,4.5714,4.6079,4.6609,4.6427,4.6725,4.7438,4.7255,4.7371,4.7653,4.6361,4.5813,4.5697,4.4209,4.3598,4.3598,4.3598,4.3598,4.3598,4.3598,4.3598,4.3598,4.3598,4.3598,4.3598,4.3598,4.3265,4.285,4.285,4.2349,4.1673,4.1176,4.089,4.0896,4.1549,4.1693,4.2158,4.3929,4.435,4.4608,4.5589,4.6228,4.6841,4.7587,4.7719,4.7785,4.7968,4.8001,4.8001,4.8001,4.8001,4.8001,4.8001,4.8001,4.8001,4.8001,4.8001,4.8001,4.8001,4.8001,4.8001,4.8001,4.8001,4.8001,4.8001,4.8001,4.8001,4.8001,4.8001,4.8001,4.8001,4.8001,4.8001,4.8001,4.8001,4.8001,0.0,3.2462,0.0,3.3191,3.4311,3.5676,0.0,0.0,3.8624,4.0154,4.0488,4.0613,4.0903,4.0623,4.0257,3.9922,3.9875,3.9763,3.9402,3.9365,3.963,4.0362,4.0445,4.071,4.1345,4.1428,4.1461,4.1461,4.1494,4.151,4.151,4.2206,4.262,4.262,4.3332,4.4044,4.4753,4.5449,4.583,4.5863,4.5151,4.52,4.5881,4.52,4.5631,4.6908,4.6145,4.5813,4.5697,4.4209,4.3598,4.3598,4.3598,4.3598,4.3598,4.3598,4.3598,4.3598,4.3598,4.3598,4.3598,4.3598,4.3583,4.3553,4.3553,4.3066,4.2538,4.2507,4.1997,4.1623,4.2349,4.2539,4.2728,4.3471,4.3653,4.4048,4.55,4.583,4.6079,4.6808,4.6957,4.7173,4.7885,4.8001,4.8001,4.8001,4.8001,4.8001,4.8001,4.8001,4.8001,4.8001,4.8001,4.8001,4.8001,4.8001,4.8001,4.8001,4.8001,4.8001,4.8001,4.8001,4.8001,4.8001,4.8001,4.8001,4.8001,4.8001,4.8001,4.8001,4.8001,4.8001,0.0,0.0,0.0,3.2784,3.3861,3.5146,3.5794,3.6905,3.7997,3.8789,3.9375,3.9912,4.0563,4.0741,4.0664,4.0286,4.0224,4.0104,3.9746,3.9694,3.969,3.969,3.9696,3.9782,4.0031,4.0478,4.076,4.076,4.116,4.1394,4.1394,4.1659,4.1792,4.1792,4.2057,4.2305,4.2585,4.285,4.3199,4.3694,4.3398,4.3663,4.4375,4.411,4.4539,4.5449,4.4721,4.4937,4.5697,4.4209,4.3598,4.3598,4.3598,4.3598,4.3598,4.3598,4.3598,4.3598,4.3598,4.3598,4.3598,4.3598,4.3598,4.3598,4.3598,4.3432,4.3159,4.271,4.2412,4.2269,4.2538,4.2601,4.2772,4.3447,4.3598,4.3731,4.4275,4.4754,4.5316,4.6046,4.6576,4.6974,4.7255,4.7686,4.8001,4.8001,4.8001,4.8001,4.8001,4.8001,4.8001,4.8001,4.8001,4.8001,4.8001,4.8001,4.8001,4.8001,4.8001,4.8001,4.8001,4.8001,4.8001,4.8001,4.8001,4.8001,4.8001,4.8001,4.8001,4.8001,4.8001,4.8001,3.2126,0.0,0.0,0.0,3.3527,3.4532,3.5163,3.6178,3.7209,3.7955,3.8522,3.9136,3.9947,4.0285,4.047,4.0573,4.0599,4.0446,3.9961,3.9901,3.9759,3.9352,3.9299,3.9299,3.9299,3.9746,4.0031,4.0031,4.0445,4.0696,4.0696,4.0928,4.1177,4.1394,4.1394,4.1394,4.1394,4.1394,4.1659,4.2123,4.1891,4.2173,4.2851,4.2636,4.3048,4.3926,4.3183,4.3843,4.5349,4.411,4.3598,4.3598,4.3598,4.3598,4.3598,4.3598,4.3598,4.3598,4.3598,4.3598,4.3598,4.3598,4.3598,4.3598,4.3598,4.3598,4.3507,4.3051,4.2943,4.2943,4.2943,4.2943,4.3051,4.3492,4.3598,4.3598,4.3598,4.3977,4.4539,4.53,4.583,4.6311,4.6808,4.7305,4.7719,4.7968,4.8001,4.8001,4.8001,4.8001,4.8001,4.8001,4.8001,4.8001,4.8001,4.8001,4.8001,4.8001,4.8001,4.8001,4.8001,4.8001,4.8001,4.8001,4.8001,4.8001,4.8001,4.8001,4.8001,4.8001,4.8001,4.8001,0.0,0.0,0.0,0.0,0.0,0.0,3.4978,0.0,3.6223,3.7715,3.8048,3.8311,3.9119,3.9259,3.9633,4.0747,4.0949,4.0707,3.9978,3.9897,3.9759,3.9352,3.9299,3.9299,3.9299,3.9299,3.9299,3.9299,3.9299,3.9299,3.9299,3.9978,4.0677,4.1312,4.1345,4.1345,4.1345,4.1345,4.1345,4.1328,4.0677,4.071,4.1312,4.066,4.111,4.2404,4.1676,4.2601,4.4554,4.3845,4.3582,4.3598,4.3598,4.3598,4.3598,4.3598,4.3598,4.3598,4.3598,4.3598,4.3598,4.3598,4.3598,4.3598,4.3598,4.3598,4.3598,4.3598,4.3598,4.3598,4.3598,4.3598,4.3598,4.3598,4.3598,4.3598,4.3598,4.3598,4.3812,4.4522,4.4687,4.5167,4.6609,4.6891,4.7156,4.7885,4.8001,4.8001,4.8001,4.8001,4.8001,4.8001,4.8001,4.8001,4.8001,4.8001,4.8001,4.8001,4.8001,4.8001,4.8001,4.8001,4.8001,4.8001,4.8001,4.8001,4.8001,4.8001,4.8001,4.8001,4.8001,4.8001,3.2406,0.0,0.0,0.0,0.0,0.0,3.391,0.0,3.5915,3.6346,3.69,3.7542,3.8294,3.8434,3.8646,3.93,3.9863,4.0026,3.9545,3.9712,3.9759,3.9352,3.9299,3.9299,3.9299,3.9299,3.9299,3.9299,3.9299,3.9299,3.9299,3.9497,3.9696,3.9882,3.9882,3.9882,3.9882,3.9882,3.9882,3.9882,3.9683,3.9713,3.9865,3.9696,4.0097,4.0975,4.0776,4.1293,4.2353,4.2669,4.3133,4.3598,4.3598,4.3598,4.3598,4.3598,4.3598,4.3598,4.3598,4.3598,4.3598,4.3598,4.3598,4.3598,4.3598,4.3598,4.3598,4.3598,4.3598,4.3598,4.3598,4.3598,4.3598,4.3598,4.3598,4.3598,4.3598,4.3598,4.3663,4.3861,4.434,4.5002,4.593,4.6543,4.7156,4.7885,4.8001,4.8001,4.8001,4.8001,4.8001,4.8001,4.8001,4.8001,4.8001,4.8001,4.8001,4.8001,4.8001,4.8001,4.8001,4.8001,4.8001,4.8001,4.8001,4.8001,4.8001,4.8001,4.8001,4.8001,4.8001,4.8001,0.0,0.0,0.0,0.0,0.0,0.0,3.3432,3.4196,3.4951,3.5275,3.5706,3.626,3.6995,3.7135,3.7339,3.7944,3.8421,3.8688,3.8639,3.8821,3.882,3.8426,3.839,3.8506,3.8821,3.8838,3.897,3.9282,3.9299,3.9299,3.9299,3.9299,3.9299,3.9299,3.9299,3.9299,3.9299,3.9299,3.9299,3.9299,3.9299,3.9299,3.9299,3.9299,3.9531,3.9945,3.9945,4.0329,4.1011,4.1442,4.204,4.2752,4.335,4.34,4.3232,4.3828,4.3861,4.3598,4.3598,4.3598,4.3598,4.3598,4.3598,4.3598,4.3598,4.3598,4.3598,4.3598,4.3598,4.3598,4.3598,4.3598,4.3598,4.3598,4.3598,4.3598,4.3598,4.3598,4.3598,4.3598,4.3944,4.4473,4.5217,4.5947,4.6692,4.7438,4.7802,4.8001,4.8001,4.8001,4.8001,4.8001,4.8001,4.8001,4.8001,4.8001,4.8001,4.8001,4.8001,4.8001,4.8001,4.8001,4.8001,4.8001,4.8001,4.8001,4.8001,4.8001,4.8001,4.8001,4.8001,4.8001,0.0,0.0,0.0,0.0,3.2406,0.0,3.3222,3.3433,3.3696,3.4416,3.4644,3.4908,3.5556,3.5679,3.5897,3.658,3.6758,3.6996,3.7554,3.7619,3.7492,3.714,3.7089,3.7354,3.8017,3.8083,3.8361,3.9017,3.9133,3.9216,3.9299,3.9299,3.9299,3.9299,3.9299,3.9299,3.9299,3.9299,3.9299,3.9299,3.9299,3.9299,3.9299,3.9299,3.9299,3.9299,3.9299,3.968,4.0293,4.0293,4.0713,4.1527,4.2837,4.3017,4.2653,4.3959,4.4092,4.3598,4.3598,4.3598,4.3598,4.3598,4.3598,4.3598,4.3598,4.3598,4.3598,4.3598,4.3598,4.3598,4.3598,4.3598,4.3598,4.3598,4.3598,4.3598,4.3598,4.3598,4.3598,4.3598,4.3598,4.3828,4.4571,4.525,4.5929,4.6659,4.7404,4.7885,4.7885,4.7951,4.8001,4.8001,4.8001,4.8001,4.8001,4.8001,4.8001,4.8001,4.8001,4.8001,4.8001,4.8001,4.8001,4.8001,4.8001,4.8001,4.8001,4.8001,4.8001,4.8001,4.8001,4.8001,0.0,0.0,0.0,3.2406,3.2406,0.0,3.2581,3.3064,3.3546,3.3704,3.4249,3.4732,3.489,3.4916,3.4884,3.4756,3.5242,3.5986,3.699,3.7191,3.719,3.7102,3.7089,3.7156,3.7305,3.7305,3.7371,3.7516,3.8079,3.8676,3.9265,3.9299,3.9299,3.9299,3.9299,3.9299,3.9299,3.9299,3.9299,3.9299,3.9299,3.9299,3.9299,3.9299,3.9299,3.9299,3.9299,3.9381,3.9514,3.9514,4.0263,4.1428,4.1726,4.2106,4.2537,4.2818,4.3216,4.3598,4.3598,4.3598,4.3598,4.3598,4.3598,4.3598,4.3598,4.3598,4.3598,4.3598,4.3598,4.3598,4.3598,4.3598,4.3598,4.3598,4.3598,4.3598,4.3598,4.3598,4.3598,4.3598,4.3598,4.3828,4.4571,4.4819,4.5167,4.5897,4.6643,4.7106,4.7106,4.7636,4.8001,4.8001,4.8001,4.8001,4.8001,4.8001,4.8001,4.8001,4.8001,4.8001,4.8001,4.8001,4.8001,4.8001,4.8001,4.8001,4.8001,4.8001,4.8001,4.8001,4.8001,4.8001,3.2406,3.2457,3.2482,3.2414,3.2457,0.0,0.0,3.2695,3.2959,3.2959,3.3266,3.3679,3.403,3.41,3.4186,3.4403,3.4623,3.4957,3.5514,3.5982,3.6315,3.6471,3.6223,3.6215,3.676,3.665,3.6692,3.7056,3.7437,3.7814,3.8192,3.8556,3.8742,3.8742,3.9103,3.9299,3.9299,3.9299,3.9299,3.9299,3.9299,3.9299,3.9299,3.9299,3.9299,3.9299,3.9299,3.9299,3.9299,3.9299,3.9716,4.0415,4.1129,4.1411,4.1591,4.2653,4.3035,4.31,4.3466,4.3598,4.3598,4.3598,4.3598,4.3598,4.3598,4.3598,4.3598,4.3598,4.3598,4.3598,4.3598,4.3598,4.3598,4.3598,4.3598,4.3598,4.3598,4.3598,4.3598,4.3598,4.3598,4.3729,4.4077,4.4456,4.4836,4.52,4.588,4.6344,4.6344,4.6676,4.6891,4.6891,4.6891,4.6891,4.6891,4.6891,4.7057,4.7438,4.7454,4.762,4.7984,4.8001,4.8001,4.8001,4.8001,4.8001,4.8001,4.8001,4.8001,4.8001,4.8001,4.8001,3.2406,3.2482,3.2548,3.2456,3.2515,3.2581,0.0,0.0,0.0,3.2499,3.2465,3.2615,3.3222,3.3301,3.3503,3.4153,3.4159,3.4066,3.4073,3.4698,3.5293,3.5653,3.5346,3.5424,3.6302,3.614,3.6222,3.6837,3.6949,3.7028,3.7102,3.7652,3.7983,3.7983,3.8692,3.91,3.91,3.9232,3.9299,3.9299,3.9299,3.9299,3.9299,3.9299,3.9299,3.9299,3.9299,3.9299,3.9299,3.9299,3.9299,3.9415,4.0547,4.0746,4.0611,4.2338,4.2785,4.2587,4.3183,4.3466,4.3598,4.3598,4.3598,4.3598,4.3598,4.3598,4.3598,4.3598,4.3598,4.3598,4.3598,4.3598,4.3598,4.3598,4.3598,4.3598,4.3598,4.3598,4.3598,4.3598,4.3598,4.3598,4.3598,4.4077,4.4488,4.4488,4.5118,4.5598,4.5598,4.5714,4.5813,4.5813,4.5813,4.5813,4.5813,4.5813,4.6046,4.6643,4.6692,4.7023,4.7769,4.7918,4.8001,4.8001,4.8001,4.8001,4.8001,4.8001,4.8001,4.8001,4.8001,4.8001,3.2406,3.2405,3.2457,3.2557,3.2589,3.2647,3.2812,0.0,3.2836,3.2836,0.0,3.259,3.2679,0.0,0.0,3.2651,3.3169,3.359,3.358,3.4015,3.4468,3.4889,3.5428,3.5832,3.5961,3.5928,3.5966,3.6108,3.6391,3.6724,3.7082,3.7172,3.7222,3.7222,3.7934,3.8315,3.8315,3.897,3.9299,3.9299,3.9299,3.9299,3.9299,3.9299,3.9299,3.9299,3.9299,3.9299,3.9299,3.9299,3.9299,3.9315,3.9481,3.9895,4.0428,4.0677,4.1491,4.252,4.2603,4.3035,4.3598,4.3598,4.3598,4.3598,4.3598,4.3598,4.3598,4.3598,4.3598,4.3598,4.3598,4.3598,4.3598,4.3598,4.3598,4.3598,4.3598,4.3598,4.3598,4.3598,4.3598,4.3598,4.3598,4.3664,4.3714,4.3714,4.4357,4.4819,4.4819,4.5399,4.5813,4.5813,4.5813,4.5813,4.5813,4.5813,4.5847,4.5914,4.5914,4.6245,4.699,4.7653,4.8001,4.8001,4.8001,4.8001,4.8001,4.8001,4.8001,4.8001,4.8001,4.8001,3.3046,3.2773,3.2506,3.249,3.2548,3.2622,3.2705,3.2721,3.2753,3.2876,0.0,0.0,0.0,0.0,0.0,0.0,3.2779,3.2948,3.2871,3.3394,3.4062,3.4768,3.5094,3.5338,3.5593,3.5605,3.5542,3.5366,3.5674,3.5855,3.5818,3.6241,3.6456,3.6456,3.7172,3.7553,3.7553,3.8295,3.8659,3.8659,3.9086,3.9299,3.9299,3.9299,3.9299,3.9299,3.9299,3.9299,3.9299,3.9299,3.9299,3.9299,3.9299,3.9497,3.9812,4.023,4.0776,4.1342,4.1726,4.2057,4.2388,4.282,4.3251,4.3598,4.3598,4.3598,4.3598,4.3598,4.3598,4.3598,4.3598,4.3598,4.3598,4.3598,4.3598,4.3598,4.3598,4.3598,4.3598,4.3598,4.3598,4.3598,4.3598,4.3598,4.3598,4.3598,4.3861,4.406,4.406,4.4325,4.4524,4.4524,4.4524,4.4524,4.4524,4.4524,4.4721,4.5134,4.5565,4.593,4.6245,4.656,4.6725,4.6725,4.6725,4.6725,4.6725,4.6725,4.6725,4.6742,4.7603,4.8001,3.3528,3.3178,3.2779,3.2518,3.2523,3.2605,3.2672,3.268,3.2729,3.2924,3.2932,0.0,0.0,0.0,0.0,0.0,0.0,3.264,3.2473,3.2923,3.3574,3.442,3.4671,3.4936,3.5337,3.546,3.5379,3.5066,3.5356,3.5339,3.4923,3.5413,3.5694,3.5694,3.6406,3.6791,3.6791,3.752,3.7901,3.7901,3.844,3.8805,3.9004,3.9004,3.9103,3.9299,3.9299,3.9299,3.9299,3.9299,3.9299,3.9299,3.9299,3.9299,3.9365,3.9912,4.0243,4.0462,4.0961,4.1259,4.1494,4.2024,4.257,4.3019,4.3234,4.33,4.3348,4.3532,4.3598,4.3598,4.3598,4.3598,4.3598,4.3598,4.3598,4.3598,4.3598,4.3598,4.3598,4.3598,4.3598,4.3598,4.3598,4.3598,4.3598,4.3598,4.3598,4.3598,4.3598,4.3598,4.3598,4.3598,4.3598,4.3598,4.3598,4.3598,4.3828,4.4357,4.5086,4.5499,4.5499,4.5697,4.5813,4.5813,4.5813,4.5813,4.5813,4.5813,4.5813,4.583,4.6891,4.7404,3.3615,3.3494,3.3328,3.2733,3.2606,3.2655,3.2852,3.2892,3.294,3.3063,3.2985,3.2948,3.3063,0.0,0.0,0.0,0.0,0.0,0.0,3.2615,3.2866,3.3468,3.4231,3.4853,3.5262,3.5597,3.5674,3.5402,3.5677,3.5605,3.4947,3.4916,3.4932,3.4932,3.5644,3.6042,3.6042,3.6771,3.7152,3.7152,3.7156,3.7536,3.8232,3.8232,3.8626,3.9299,3.9299,3.9299,3.9299,3.9299,3.9299,3.9299,3.9299,3.9299,3.9299,3.9332,3.9796,4.0395,4.0412,4.0862,4.1394,4.1428,4.1444,4.161,4.2322,4.2537,4.2671,4.34,4.3598,4.3598,4.3598,4.3598,4.3598,4.3598,4.3598,4.3598,4.3598,4.3598,4.3598,4.3598,4.3598,4.3598,4.3598,4.3598,4.3598,4.3598,4.3598,4.3598,4.3598,4.3598,4.3598,4.3598,4.3598,4.3598,4.3598,4.3598,4.3615,4.3631,4.4324,4.4736,4.4736,4.5432,4.5813,4.5813,4.5813,4.5813,4.5813,4.5813,4.5813,4.5813,4.5863,4.588,3.4998,3.4275,3.3441,3.3257,3.2826,3.2516,3.2681,3.2696,3.2753,3.2922,3.2993,3.3047,3.3093,0.0,0.0,0.0,0.0,0.0,0.0,3.2688,3.2645,3.2757,3.337,3.3984,3.4528,3.4471,3.4274,3.3965,3.4508,3.4645,3.4205,3.4618,3.4899,3.4899,3.5131,3.5263,3.5263,3.6009,3.6373,3.639,3.687,3.7344,3.7794,3.7794,3.7945,3.8196,3.8698,3.8791,3.8609,3.9086,3.9299,3.9299,3.9299,3.9299,3.9299,3.9299,3.9464,3.968,3.968,4.013,4.0743,4.0743,4.1044,4.1444,4.1692,4.1775,4.1924,4.2669,4.287,4.2969,4.3466,4.3598,4.3598,4.3598,4.3598,4.3598,4.3598,4.3598,4.3598,4.3598,4.3598,4.3598,4.3598,4.3598,4.3598,4.3598,4.3598,4.3598,4.3598,4.3598,4.3598,4.3598,4.3598,4.3598,4.3598,4.3598,4.3598,4.3598,4.3828,4.3961,4.3961,4.4209,4.4342,4.4342,4.4342,4.4342,4.4342,4.4342,4.4342,4.4342,4.4342,4.487,3.5602,3.4971,3.4248,3.3994,3.3345,3.2818,3.2903,3.2726,3.2582,3.2763,3.2866,3.2945,3.3016,0.0,0.0,0.0,0.0,0.0,0.0,3.2721,3.2564,3.2482,3.2766,3.3199,3.3748,3.3703,3.3564,3.3387,3.3935,3.4223,3.4169,3.4616,3.4984,3.5247,3.5137,3.5083,3.5083,3.5435,3.5611,3.5611,3.6092,3.662,3.7213,3.7213,3.7424,3.7802,3.828,3.8442,3.8406,3.8885,3.9169,3.9299,3.9299,3.9299,3.9299,3.9299,3.9299,3.9299,3.9299,3.9613,4.0011,4.0011,4.0296,4.0696,4.0961,4.1044,4.1309,4.2537,4.2702,4.2736,4.3729,4.3795,4.3598,4.3598,4.3598,4.3598,4.3598,4.3598,4.3598,4.3598,4.3598,4.3598,4.3598,4.3598,4.3598,4.3598,4.3598,4.3598,4.3598,4.3598,4.3598,4.3598,4.3598,4.3598,4.3598,4.3598,4.3598,4.3598,4.3598,4.3598,4.3598,4.3598,4.3598,4.3598,4.3598,4.3598,4.3598,4.3598,4.3598,4.3598,4.3598,4.411]},{"header":{"parameterUnit":"m.s-1","parameterCategory":1,"la1":30.6,"la2":29.2853,"lo1":-89.7004,"lo2":-87.6739,"dy":0.0162,"dx":0.0183,"nx":112,"ny":82,"refTime":"2023-09-09T12:00:00:Z","depth":0,"parameterNumber":3,"parameterNumberName":"V-component_of_WINDS"},"data":[0.0,0.0,0.0,0.0,0.0,0.0,0.0,0.0,0.0,0.0,0.0,0.0,0.0,0.0,0.0,0.0,0.0,0.0,0.0,0.0,0.0,0.0,0.0,0.0,0.0,0.0,0.0,0.0,0.0,0.0,0.0,0.0,0.0,0.0,0.0,0.0,0.0,0.0,0.0,0.0,0.0,0.0,0.0,0.0,0.0,0.0,0.0,0.0,0.0,0.0,0.0,0.0,0.0,0.0,0.0,0.0,0.0,0.0,0.0,0.0,0.0,0.0,0.0,0.0,0.0,0.0,0.0,0.0,0.0,0.0,0.0,0.0,0.0,0.0,0.0,0.0,0.0,0.0,0.0,0.0,0.0,0.0,0.0,0.0,0.0,0.0,0.0,0.0,0.0,0.0,1.9108,1.9108,1.9108,1.9108,1.9108,1.9108,1.8925,1.8533,0.0,0.0,0.0,0.0,0.0,0.0,0.0,0.0,0.0,0.0,0.0,0.0,0.0,0.0,0.0,0.0,0.0,0.0,0.0,0.0,0.0,0.0,0.0,0.0,0.0,0.0,0.0,0.0,0.0,0.0,0.0,0.0,0.0,0.0,0.0,0.0,0.0,0.0,0.0,0.0,0.0,0.0,0.0,0.0,0.0,0.0,0.0,0.0,0.0,0.0,0.0,0.0,0.0,0.0,0.0,0.0,0.0,0.0,0.0,0.0,0.0,0.0,0.0,0.0,0.0,0.0,0.0,0.0,0.0,0.0,0.0,0.0,0.0,0.0,0.0,0.0,0.0,0.0,0.0,0.0,0.0,0.0,0.0,0.0,0.0,0.0,0.0,0.0,0.0,0.0,0.0,0.0,0.0,0.0,0.0,0.0,0.0,0.0,0.0,0.0,0.0,0.0,0.0,0.0,1.9108,1.9108,1.9108,1.9108,1.9108,1.9108,1.8925,1.8533,0.0,0.0,0.0,0.0,0.0,0.0,0.0,0.0,0.0,0.0,0.0,0.0,0.0,0.0,0.0,0.0,0.0,0.0,0.0,0.0,0.0,0.0,0.0,0.0,0.0,0.0,0.0,0.0,0.0,0.0,0.0,0.0,0.0,0.0,0.0,0.0,0.0,0.0,0.0,0.0,0.0,0.0,0.0,0.0,0.0,0.0,0.0,0.0,0.0,0.0,0.0,0.0,0.0,0.0,0.0,0.0,0.0,0.0,0.0,0.0,0.0,0.0,0.0,0.0,0.0,0.0,0.0,0.0,0.0,0.0,0.0,0.0,0.0,0.0,0.0,0.0,0.0,0.0,0.0,0.0,0.0,0.0,0.0,0.0,0.0,0.0,0.0,0.0,0.0,0.0,0.0,0.0,0.0,0.0,0.0,0.0,0.0,0.0,0.0,0.0,0.0,0.0,0.0,1.9042,1.9202,1.945,1.9253,1.9202,1.9461,1.9253,1.8965,1.8674,1.8566,0.0,0.0,0.0,0.0,0.0,0.0,0.0,0.0,0.0,0.0,0.0,0.0,0.0,0.0,0.0,0.0,0.0,0.0,0.0,0.0,0.0,0.0,0.0,0.0,0.0,0.0,0.0,0.0,0.0,0.0,0.0,0.0,0.0,0.0,0.0,0.0,0.0,0.0,0.0,0.0,0.0,0.0,0.0,0.0,0.0,0.0,0.0,0.0,0.0,0.0,0.0,0.0,0.0,0.0,0.0,0.0,0.0,0.0,0.0,0.0,0.0,0.0,0.0,0.0,0.0,0.0,0.0,0.0,0.0,0.0,0.0,0.0,0.0,0.0,0.0,0.0,0.0,0.0,0.0,0.0,0.0,0.0,0.0,0.0,0.0,0.0,0.0,0.0,0.0,0.0,0.0,0.0,0.0,0.0,0.0,0.0,0.0,0.0,0.0,0.0,0.0,0.0,1.9202,1.9409,1.9761,1.9558,1.9506,1.9772,1.9471,1.9139,1.8818,1.8667,0.0,0.0,0.0,0.0,0.0,0.0,0.0,0.0,0.0,0.0,0.0,0.0,0.0,0.0,0.0,0.0,0.0,0.0,0.0,0.0,0.0,0.0,0.0,0.0,0.0,0.0,0.0,0.0,0.0,0.0,0.0,0.0,0.0,0.0,0.0,0.0,0.0,0.0,0.0,0.0,0.0,0.0,0.0,0.0,0.0,0.0,0.0,0.0,0.0,0.0,0.0,0.0,0.0,0.0,0.0,0.0,0.0,0.0,0.0,0.0,0.0,0.0,0.0,0.0,0.0,0.0,0.0,0.0,0.0,0.0,0.0,0.0,0.0,0.0,0.0,0.0,0.0,0.0,0.0,0.0,0.0,0.0,0.0,0.0,0.0,0.0,0.0,0.0,0.0,0.0,0.0,0.0,0.0,0.0,0.0,0.0,0.0,0.0,0.0,0.0,0.0,0.0,1.9482,1.9761,1.981,2.01,2.0172,1.9824,1.9761,1.9479,1.8838,1.8791,0.0,0.0,0.0,0.0,0.0,0.0,0.0,0.0,0.0,0.0,0.0,0.0,0.0,0.0,0.0,0.0,0.0,0.0,0.0,0.0,0.0,0.0,0.0,0.0,0.0,0.0,0.0,0.0,0.0,0.0,0.0,0.0,0.0,0.0,0.0,0.0,0.0,0.0,0.0,0.0,0.0,0.0,0.0,0.0,0.0,0.0,0.0,0.0,0.0,0.0,0.0,0.0,0.0,0.0,0.0,0.0,0.0,0.0,0.0,0.0,0.0,0.0,0.0,0.0,0.0,0.0,0.0,0.0,0.0,0.0,0.0,0.0,0.0,0.0,0.0,0.0,0.0,0.0,0.0,0.0,0.0,0.0,0.0,0.0,0.0,0.0,0.0,0.0,0.0,0.0,0.0,0.0,0.0,0.0,0.0,0.0,0.0,0.0,0.0,0.0,0.0,0.0,1.9502,1.9907,2.0151,2.031,2.0454,2.0596,2.0107,1.9634,1.9264,0.0,0.0,0.0,0.0,0.0,0.0,0.0,0.0,0.0,0.0,0.0,0.0,0.0,0.0,0.0,0.0,0.0,0.0,0.0,0.0,0.0,0.0,0.0,0.0,0.0,0.0,0.0,0.0,0.0,0.0,0.0,0.0,0.0,0.0,0.0,0.0,0.0,0.0,0.0,0.0,0.0,0.0,0.0,0.0,0.0,0.0,0.0,0.0,0.0,0.0,0.0,0.0,0.0,0.0,0.0,0.0,0.0,0.0,0.0,0.0,0.0,0.0,0.0,0.0,0.0,0.0,0.0,0.0,0.0,0.0,0.0,0.0,0.0,0.0,0.0,0.0,0.0,0.0,0.0,0.0,0.0,0.0,0.0,0.0,0.0,0.0,0.0,0.0,0.0,0.0,0.0,0.0,0.0,0.0,0.0,0.0,0.0,0.0,0.0,0.0,0.0,0.0,1.9305,1.9703,2.0141,2.0578,2.0754,2.0909,2.1085,2.041,1.9879,1.9606,0.0,0.0,0.0,0.0,0.0,0.0,0.0,0.0,0.0,0.0,0.0,0.0,0.0,0.0,0.0,0.0,0.0,0.0,0.0,0.0,0.0,0.0,0.0,0.0,0.0,0.0,0.0,0.0,0.0,0.0,0.0,0.0,0.0,0.0,0.0,0.0,0.0,0.0,0.0,0.0,0.0,0.0,0.0,0.0,0.0,0.0,0.0,0.0,0.0,0.0,0.0,0.0,0.0,0.0,0.0,0.0,0.0,0.0,0.0,0.0,0.0,0.0,0.0,0.0,0.0,0.0,0.0,0.0,0.0,0.0,0.0,0.0,0.0,0.0,0.0,0.0,0.0,0.0,0.0,0.0,0.0,0.0,0.0,0.0,0.0,0.0,0.0,0.0,0.0,0.0,0.0,0.0,0.0,0.0,0.0,0.0,0.0,0.0,0.0,0.0,0.0,0.0,1.9741,2.0151,2.0589,2.1044,2.1528,2.1621,2.1137,2.0682,2.0245,0.0,0.0,0.0,0.0,0.0,0.0,0.0,0.0,0.0,0.0,0.0,0.0,0.0,0.0,0.0,0.0,0.0,0.0,0.0,0.0,0.0,0.0,0.0,0.0,0.0,0.0,0.0,0.0,0.0,0.0,0.0,0.0,0.0,0.0,0.0,0.0,0.0,0.0,0.0,0.0,0.0,0.0,0.0,0.0,0.0,0.0,0.0,0.0,0.0,0.0,0.0,0.0,0.0,0.0,0.0,0.0,0.0,0.0,0.0,0.0,0.0,0.0,0.0,0.0,0.0,0.0,0.0,0.0,0.0,0.0,0.0,0.0,0.0,0.0,0.0,0.0,0.0,0.0,0.0,0.0,0.0,0.0,0.0,0.0,0.0,0.0,0.0,0.0,0.0,0.0,0.0,0.0,0.0,0.0,0.0,0.0,0.0,0.0,0.0,0.0,0.0,0.0,0.0,1.9772,2.0431,2.0951,2.1085,2.1528,2.1745,2.1611,2.1158,2.0666,2.0126,0.0,0.0,0.0,0.0,0.0,0.0,0.0,0.0,0.0,0.0,0.0,0.0,0.0,0.0,0.0,0.0,0.0,0.0,0.0,0.0,0.0,0.0,0.0,0.0,0.0,0.0,0.0,0.0,0.0,0.0,0.0,0.0,0.0,0.0,0.0,0.0,0.0,0.0,0.0,0.0,0.0,0.0,0.0,0.0,0.0,0.0,0.0,0.0,0.0,0.0,0.0,0.0,0.0,0.0,0.0,0.0,0.0,0.0,0.0,0.0,0.0,0.0,0.0,0.0,0.0,0.0,0.0,0.0,0.0,0.0,0.0,0.0,0.0,0.0,0.0,0.0,0.0,0.0,0.0,0.0,0.0,0.0,0.0,0.0,0.0,0.0,0.0,0.0,0.0,0.0,0.0,0.0,0.0,0.0,0.0,0.0,0.0,0.0,0.0,0.0,0.0,0.0,2.0273,2.0783,2.1168,2.1354,2.1623,2.1807,2.1807,2.1364,2.0955,2.0568,0.0,0.0,0.0,0.0,0.0,0.0,0.0,0.0,0.0,0.0,0.0,0.0,0.0,0.0,0.0,0.0,0.0,0.0,0.0,0.0,0.0,0.0,0.0,0.0,0.0,0.0,0.0,0.0,0.0,0.0,0.0,0.0,0.0,0.0,0.0,0.0,0.0,0.0,0.0,0.0,0.0,0.0,0.0,0.0,0.0,0.0,0.0,0.0,0.0,0.0,0.0,0.0,0.0,0.0,0.0,0.0,0.0,0.0,0.0,0.0,0.0,0.0,0.0,0.0,0.0,0.0,0.0,0.0,0.0,0.0,0.0,0.0,0.0,0.0,0.0,0.0,0.0,0.0,0.0,0.0,0.0,0.0,0.0,0.0,0.0,0.0,0.0,0.0,0.0,0.0,0.0,0.0,0.0,0.0,0.0,0.0,0.0,0.0,0.0,0.0,0.0,0.0,2.0992,2.1168,2.1385,2.1828,2.1869,2.1869,2.1869,2.1426,2.1137,2.1095,0.0,0.0,0.0,0.0,0.0,0.0,0.0,0.0,0.0,0.0,0.0,0.0,0.0,0.0,0.0,0.0,0.0,0.0,0.0,0.0,0.0,0.0,0.0,0.0,0.0,0.0,0.0,0.0,0.0,0.0,0.0,0.0,0.0,0.0,0.0,0.0,0.0,0.0,0.0,0.0,0.0,0.0,0.0,0.0,0.0,0.0,0.0,0.0,0.0,0.0,0.0,0.0,0.0,0.0,0.0,0.0,0.0,0.0,0.0,0.0,2.3955,2.3143,0.0,0.0,0.0,0.0,0.0,0.0,0.0,0.0,0.0,0.0,0.0,0.0,0.0,0.0,0.0,0.0,0.0,0.0,0.0,0.0,0.0,0.0,0.0,0.0,0.0,0.0,0.0,0.0,0.0,0.0,0.0,0.0,0.0,0.0,0.0,0.0,0.0,0.0,0.0,0.0,2.1075,2.1745,2.2242,2.2335,2.2356,2.2356,2.2356,2.1921,2.1488,2.1116,2.0928,0.0,0.0,0.0,0.0,0.0,0.0,0.0,0.0,0.0,0.0,0.0,0.0,0.0,0.0,0.0,0.0,0.0,0.0,0.0,0.0,0.0,0.0,0.0,0.0,0.0,0.0,0.0,0.0,0.0,0.0,0.0,0.0,0.0,0.0,0.0,0.0,0.0,0.0,0.0,0.0,0.0,0.0,0.0,0.0,0.0,0.0,0.0,0.0,0.0,0.0,0.0,0.0,0.0,0.0,0.0,0.0,0.0,0.0,0.0,2.4769,2.4055,0.0,0.0,0.0,0.0,0.0,0.0,0.0,0.0,0.0,0.0,0.0,0.0,0.0,0.0,0.0,0.0,0.0,0.0,0.0,0.0,0.0,0.0,0.0,0.0,0.0,0.0,0.0,0.0,0.0,0.0,0.0,0.0,0.0,0.0,0.0,0.0,0.0,0.0,0.0,0.0,2.1745,2.2397,2.2832,2.2832,2.2832,2.2832,2.2832,2.2408,2.2035,2.1797,2.1344,0.0,0.0,0.0,0.0,0.0,0.0,0.0,0.0,0.0,0.0,0.0,0.0,0.0,0.0,0.0,0.0,0.0,0.0,0.0,0.0,0.0,0.0,0.0,0.0,0.0,0.0,0.0,0.0,0.0,0.0,0.0,0.0,0.0,0.0,0.0,0.0,0.0,0.0,0.0,0.0,0.0,0.0,0.0,0.0,0.0,0.0,0.0,0.0,0.0,0.0,0.0,0.0,0.0,2.7389,2.741,2.7182,2.7305,2.719,2.686,2.5802,2.5266,2.5118,2.4651,0.0,0.0,0.0,0.0,0.0,0.0,0.0,0.0,0.0,0.0,0.0,0.0,0.0,0.0,0.0,0.0,0.0,0.0,0.0,0.0,0.0,0.0,2.3187,2.3482,2.3642,2.3517,2.2655,0.0,0.0,0.0,0.0,0.0,0.0,0.0,0.0,0.0,0.0,0.0,2.2563,2.3018,2.3328,2.3328,2.3328,2.3328,2.3328,2.2884,2.2584,2.2501,2.1776,2.1261,0.0,0.0,0.0,0.0,0.0,0.0,0.0,0.0,0.0,0.0,0.0,0.0,0.0,0.0,0.0,0.0,0.0,0.0,0.0,0.0,0.0,0.0,0.0,0.0,0.0,0.0,0.0,0.0,0.0,0.0,0.0,0.0,2.5893,2.5893,0.0,0.0,0.0,0.0,0.0,0.0,0.0,0.0,0.0,0.0,0.0,0.0,0.0,2.7231,2.7606,2.7587,2.7691,2.7953,2.8602,2.897,2.9059,2.9413,2.9503,2.9335,2.915,0.0,2.5691,2.5613,0.0,0.0,0.0,0.0,0.0,0.0,0.0,0.0,0.0,0.0,0.0,0.0,0.0,0.0,0.0,0.0,0.0,0.0,0.0,0.0,0.0,0.0,2.5078,2.6586,2.5805,2.4932,2.5753,2.4277,2.2571,2.1694,2.152,2.1652,0.0,0.0,0.0,0.0,0.0,0.0,2.3111,2.3525,2.3805,2.3805,2.3805,2.3805,2.3805,2.338,2.2925,2.2522,2.2387,2.1952,2.1127,2.1,0.0,0.0,0.0,0.0,0.0,0.0,0.0,0.0,0.0,0.0,0.0,0.0,0.0,0.0,0.0,0.0,0.0,0.0,0.0,0.0,0.0,0.0,0.0,0.0,0.0,0.0,0.0,0.0,0.0,2.5893,2.5893,2.5893,2.5893,2.5893,0.0,0.0,0.0,0.0,0.0,0.0,0.0,0.0,0.0,2.8297,2.8454,2.8803,2.9306,2.9293,2.9603,3.0243,3.0555,3.0831,3.1045,3.1406,3.1286,3.0824,3.1003,3.0197,2.8647,2.7667,2.7049,2.673,0.0,0.0,0.0,0.0,2.5409,2.5042,2.5561,2.5757,2.5757,2.5757,0.0,0.0,0.0,0.0,0.0,0.0,0.0,2.5726,2.599,2.5986,2.6094,2.6858,2.6693,2.64,2.6571,2.6305,2.5551,2.389,2.3842,2.3891,2.3288,2.3498,0.0,0.0,0.0,2.3598,2.3598,2.3971,2.4229,2.4229,2.4229,2.4229,2.4229,2.3836,2.3515,2.3308,2.3029,2.2584,2.1921,2.1623,2.1372,0.0,0.0,0.0,0.0,0.0,0.0,0.0,0.0,0.0,0.0,0.0,0.0,0.0,0.0,0.0,0.0,0.0,0.0,0.0,0.0,0.0,0.0,0.0,0.0,0.0,0.0,0.0,0.0,2.5893,2.595,2.6104,2.6132,2.6188,0.0,0.0,0.0,0.0,0.0,0.0,2.8464,2.8685,2.899,2.9406,2.9931,3.0447,3.0991,3.1217,3.1613,3.2166,3.2437,3.2557,3.2575,3.2923,3.269,3.2046,3.2405,3.2126,3.1319,2.9724,2.8712,2.8169,2.8169,2.7773,2.7231,2.7387,2.7127,2.6762,2.7266,2.7438,2.7438,2.7438,2.7335,2.7056,2.6266,0.0,0.0,0.0,0.0,2.7236,2.7404,2.7453,2.7555,2.786,2.8127,2.8276,2.7989,2.8364,2.8109,2.5908,2.585,2.5758,2.4514,2.4726,0.0,2.3853,2.4002,2.419,2.4064,2.4312,2.4497,2.4497,2.4497,2.4497,2.4497,2.4218,2.4023,2.3909,2.3577,2.3173,2.2687,2.2232,2.1951,2.1914,0.0,0.0,0.0,0.0,0.0,0.0,0.0,0.0,0.0,0.0,0.0,0.0,0.0,0.0,0.0,0.0,0.0,0.0,0.0,0.0,0.0,0.0,0.0,0.0,0.0,0.0,0.0,0.0,0.0,2.668,2.675,0.0,0.0,0.0,0.0,2.8549,2.8619,2.9138,3.0303,3.0385,3.068,3.1331,3.1644,3.1947,3.2297,3.3129,3.3331,3.2947,3.3902,3.3976,3.3261,3.3654,3.3615,3.3228,3.3632,3.3349,3.2515,3.1358,3.0516,2.997,2.997,2.9292,2.8389,2.897,2.8797,2.8359,2.897,2.9165,2.9165,2.9165,2.8779,2.8305,2.8261,2.7886,0.0,0.0,2.7912,2.8451,2.904,2.9492,3.0126,3.1267,3.1081,3.0798,3.1418,3.0589,2.9078,2.6935,2.6555,2.6385,2.5799,0.0,2.561,2.5167,2.5126,2.4978,2.453,2.4487,2.4497,2.4497,2.4497,2.4497,2.4497,2.4476,2.4312,2.3919,2.3877,2.365,2.3174,2.2708,2.2469,2.2468,2.1932,0.0,0.0,0.0,0.0,0.0,0.0,0.0,0.0,0.0,0.0,0.0,0.0,0.0,0.0,0.0,0.0,0.0,0.0,0.0,0.0,0.0,0.0,0.0,0.0,0.0,0.0,0.0,0.0,2.7022,2.7394,0.0,2.8323,2.8839,2.935,2.9824,3.0027,3.058,3.1679,3.1883,3.2368,3.3206,3.3752,3.4078,3.4205,3.4513,3.4771,3.4997,3.5366,3.5577,3.5695,3.5831,3.5519,3.4847,3.4993,3.4574,3.3757,3.3352,3.2633,3.1784,3.1784,3.1505,3.1189,3.1413,3.1355,3.1189,3.1413,3.1502,3.1502,3.1502,3.1089,3.0653,3.1047,3.0758,3.0381,3.0759,3.1016,3.1222,3.1435,3.133,3.1278,3.1701,3.1243,3.0795,3.1034,3.0695,2.9967,2.8823,2.8322,2.7696,2.6456,2.6606,2.6622,2.5779,2.539,2.5137,2.4967,2.469,2.4497,2.4497,2.4497,2.4497,2.4497,2.4497,2.4435,2.4291,2.4291,2.4084,2.367,2.3739,2.3622,2.3281,2.3137,2.2855,0.0,0.0,0.0,0.0,0.0,0.0,0.0,0.0,0.0,0.0,0.0,0.0,0.0,0.0,0.0,0.0,0.0,0.0,0.0,0.0,0.0,0.0,0.0,0.0,0.0,0.0,2.7252,2.774,2.8236,2.88,2.9485,3.0154,3.0823,3.1503,3.1853,3.2392,3.3297,3.3362,3.3729,3.4516,3.5008,3.5349,3.5498,3.5709,3.5943,3.6196,3.6196,3.6328,3.6567,3.6567,3.6171,3.5521,3.5642,3.5202,3.4418,3.4564,3.4097,3.3247,3.3064,3.2868,3.2685,3.2685,3.2685,3.2685,3.2685,3.2685,3.2685,3.2685,3.2437,3.2182,3.2581,3.2424,3.2195,3.2594,3.2685,3.2685,3.2685,3.2563,3.2415,3.2415,3.2171,3.1955,3.1955,3.1538,3.1006,3.0459,2.9717,2.8751,2.7455,2.7616,2.7554,2.6525,2.6258,2.6001,2.5495,2.5301,2.5159,2.4995,2.4817,2.4735,2.4735,2.459,2.4497,2.4497,2.4497,2.4448,2.4336,2.4304,2.4191,2.3958,2.3847,2.3707,2.3571,0.0,0.0,0.0,0.0,0.0,0.0,0.0,0.0,0.0,0.0,0.0,0.0,0.0,0.0,0.0,0.0,0.0,0.0,0.0,0.0,0.0,0.0,0.0,2.6833,2.7332,2.8006,2.8938,2.9296,2.9954,3.1144,3.1609,3.2333,3.3514,3.3977,3.4479,3.5152,3.477,3.4728,3.5208,3.5367,3.5653,3.6093,3.6683,3.6792,3.6405,3.6385,3.6138,3.569,3.569,3.548,3.5127,3.5541,3.5202,3.4439,3.4908,3.4825,3.4345,3.3822,3.326,3.2738,3.2738,3.2738,3.2738,3.2738,3.2738,3.2738,3.2738,3.2738,3.2738,3.2738,3.2738,3.2738,3.2738,3.2738,3.2738,3.2738,3.3202,3.3613,3.3613,3.4018,3.4377,3.4377,3.3262,3.2145,3.1684,3.0577,2.9508,2.882,2.87,2.8398,2.7481,2.7788,0.0,2.6145,2.6359,2.6438,2.5965,2.5525,2.5222,2.5211,2.4776,2.4518,2.4497,2.4497,2.47,2.5158,2.4388,2.4148,2.4549,2.4048,2.4145,2.4916,0.0,0.0,0.0,0.0,0.0,0.0,0.0,0.0,0.0,0.0,0.0,0.0,0.0,0.0,0.0,0.0,0.0,0.0,0.0,0.0,0.0,2.7123,2.7458,2.7952,2.854,2.9224,3.006,3.0601,3.1311,3.2338,3.2713,3.316,3.377,3.391,3.4246,3.4887,3.4778,3.4983,3.5544,3.5928,3.6202,3.6319,3.6472,3.651,3.6405,3.6058,3.5824,3.569,3.569,3.548,3.5127,3.5541,3.5202,3.4439,3.4908,3.4825,3.4384,3.4241,3.4071,3.3927,3.3927,3.3927,3.3927,3.3927,3.3927,3.3927,3.3927,3.3927,3.3927,3.3927,3.3927,3.3927,3.3927,3.3927,3.3927,3.3927,3.4058,3.4175,3.4175,3.3917,3.3662,3.3662,3.2578,3.1534,3.1412,3.0674,2.9772,2.887,2.87,2.8614,2.8355,2.8192,2.7942,2.7547,2.7304,2.6984,2.6461,2.6288,2.5932,2.5254,2.5065,2.4859,2.4518,2.4497,2.4561,2.469,2.5125,2.5545,2.5931,2.541,2.5267,0.0,0.0,0.0,0.0,0.0,0.0,0.0,0.0,0.0,0.0,0.0,0.0,0.0,0.0,0.0,0.0,0.0,0.0,0.0,0.0,0.0,0.0,2.8276,2.8873,2.965,2.9933,3.0304,3.0897,3.1577,3.2318,3.3114,3.35,3.3886,3.4364,3.4555,3.4802,3.5161,3.5028,3.5157,3.5676,3.5797,3.6061,3.6468,3.6468,3.6605,3.6811,3.6538,3.6415,3.6415,3.6415,3.6201,3.5826,3.6055,3.5771,3.5124,3.5163,3.5008,3.475,0.0,0.0,0.0,0.0,3.4397,3.4397,3.4397,3.4397,3.4397,3.4397,3.4397,3.4397,3.4397,3.4397,3.4397,3.4397,3.4397,3.4397,3.4397,3.4397,3.4397,3.4397,3.4105,3.381,3.381,3.2708,3.1725,3.1725,3.0903,0.0,2.9435,2.9332,2.9266,2.9067,2.899,2.8846,2.8444,2.8343,2.8074,2.7555,2.7123,2.6674,2.6139,2.5529,0.0,0.0,0.0,2.4583,2.4786,2.5675,0.0,0.0,0.0,2.583,2.6026,2.5819,0.0,0.0,2.4675,2.4652,0.0,0.0,0.0,0.0,0.0,0.0,0.0,0.0,0.0,0.0,0.0,0.0,0.0,0.0,0.0,0.0,2.9732,3.0543,3.1508,3.1429,3.1406,3.1694,3.2357,3.3045,3.3626,3.4011,3.4432,3.4984,3.5358,3.5548,3.5548,3.5216,0.0,0.0,0.0,3.5652,3.6617,3.6617,3.6867,3.7339,3.7275,3.7253,3.7253,3.7253,3.7061,3.6731,3.6774,3.6523,3.607,3.5651,3.5394,3.5234,3.4633,3.4397,3.4397,3.4397,3.4397,3.4397,3.4397,0.0,0.0,3.4397,3.4397,3.4397,3.4397,3.4397,3.4397,3.4397,3.4397,3.4397,3.4397,3.4397,3.4397,3.4397,3.4397,3.4397,3.4397,3.336,3.2423,3.2423,3.1293,3.0329,3.0329,3.0261,3.0057,2.9646,2.9943,2.9897,2.9082,2.9324,2.9336,2.8771,2.7951,0.0,2.7216,2.6081,2.5357,2.5372,2.4914,2.487,2.5327,2.6051,2.6487,2.6569,2.6165,2.6173,2.6593,2.6106,2.5868,2.5857,2.5742,2.5696,0.0,0.0,0.0,0.0,0.0,0.0,0.0,0.0,0.0,0.0,0.0,0.0,0.0,0.0,0.0,3.0307,3.0728,3.122,3.2312,3.2836,3.3131,3.3191,3.3327,3.3639,3.4188,3.4323,3.4404,3.4522,3.4605,3.4647,3.4647,3.4585,3.4787,3.5358,3.5624,3.6058,3.6751,3.6751,3.6804,3.6903,3.6545,0.0,3.6336,3.6336,3.6306,3.6262,3.6645,3.6523,3.6118,3.6396,3.6028,3.5234,3.4633,3.4397,3.4397,3.4397,3.4397,3.4397,3.4397,3.4397,3.4397,3.4397,3.4397,3.4397,3.4397,3.4397,0.0,3.4397,3.4397,3.4397,3.4397,3.4397,3.4397,3.4397,3.4397,3.4397,3.4397,3.3768,3.3193,3.3193,3.2045,3.1094,3.1094,3.06,3.017,3.008,3.0148,3.0125,2.9943,3.0011,2.9703,2.8794,2.8544,2.7968,2.6821,2.6495,2.6326,2.6343,2.5931,2.5873,2.6228,2.6114,2.6354,2.7056,2.6985,2.698,2.7061,2.697,2.6912,2.6901,2.6075,2.5696,0.0,0.0,0.0,0.0,0.0,0.0,0.0,0.0,0.0,0.0,0.0,2.8351,0.0,0.0,3.049,3.1672,3.2104,3.2509,3.3064,3.3639,3.3901,3.3626,3.3835,3.411,3.4371,3.4397,3.4397,3.4397,3.4397,3.4528,3.4829,3.4842,3.5103,3.5678,3.5885,3.6291,3.6885,3.6898,3.7043,3.7346,3.711,3.6998,3.6998,3.6998,3.6998,3.6998,3.7257,3.7213,3.7007,3.6928,3.6446,3.5639,3.5064,3.4672,3.4397,3.4397,3.4397,3.4397,3.4397,3.4397,3.4397,3.4397,3.4397,3.4397,3.4397,3.4397,3.4397,3.4397,3.4397,3.4397,3.4397,3.4397,3.4397,3.4397,3.4397,3.4397,3.4397,3.3573,3.2846,3.2846,3.1713,3.0758,3.0758,3.0442,3.0193,3.0193,3.0193,3.0193,3.0193,3.0193,3.0011,2.9486,2.9036,2.8555,2.8085,2.7618,2.7253,2.7016,2.7031,2.7006,2.6888,2.6941,2.7028,2.719,2.721,2.721,2.721,2.721,2.721,2.7199,2.6683,2.6453,0.0,0.0,0.0,0.0,0.0,0.0,0.0,0.0,2.753,2.8664,2.9384,3.0103,3.1149,3.1673,3.2182,3.2777,3.3273,3.3647,3.3731,3.4123,3.4241,3.3796,3.4136,3.4397,3.4397,3.4397,3.4397,3.4397,3.4502,3.4789,3.5273,3.5391,3.5704,3.6253,3.6279,3.6567,3.7168,3.7168,3.7429,3.79,3.79,3.79,3.79,3.79,3.79,3.79,3.79,3.79,3.7861,3.7377,3.6828,3.624,3.5796,3.5195,3.4554,3.4437,3.4397,3.4397,3.4397,3.4397,3.4397,3.4397,3.4397,3.4397,3.4397,3.4397,3.4397,3.4397,3.4397,3.4397,3.4397,3.4397,3.4397,3.4397,3.4397,3.4397,3.4397,3.3509,3.2726,3.2726,3.1569,3.0611,3.0611,3.0385,3.0193,3.0193,3.0193,3.0193,3.0193,3.0193,3.017,3.008,2.9393,2.9047,2.9347,2.866,2.8073,2.7668,2.8032,2.8026,2.7595,2.7861,2.7847,2.7497,2.7497,2.7497,2.7497,2.7497,2.7497,2.7497,2.7497,2.744,2.4741,2.5249,2.5756,2.6363,2.6578,2.6922,0.0,0.0,2.9331,3.0469,3.1137,3.1725,3.2385,3.2555,3.279,3.3391,3.3568,3.3757,3.4241,3.4358,3.4371,3.4319,3.4358,3.4397,3.4397,3.4397,3.4397,3.4397,3.4894,3.5221,3.5299,3.5757,3.6279,3.6881,3.6907,3.7194,3.7795,3.7808,3.7835,3.79,3.79,3.79,3.79,3.79,3.79,3.79,3.79,3.79,3.79,3.7835,3.7442,3.6894,3.6828,3.6149,3.5129,3.4593,3.4397,3.4397,3.4397,3.4397,3.4397,3.4397,3.4397,3.4397,3.4397,3.4397,3.4397,3.4397,3.4397,3.4397,3.4397,3.4397,3.4397,3.4397,3.4397,3.4397,3.4397,3.4293,3.4155,3.4155,3.3027,3.2074,3.2074,3.1025,3.0193,3.0193,3.0193,3.0193,3.0193,3.0193,3.0034,2.9623,2.9485,2.9278,2.8919,2.8772,2.8669,2.8567,2.8668,2.8653,2.8545,2.8243,2.8221,2.854,2.854,2.854,2.854,2.854,2.854,2.854,2.854,2.831,2.5827,2.6638,2.7461,2.8063,2.8438,2.8987,3.0119,3.0576,3.0981,3.1829,3.245,3.2934,3.3169,3.347,3.377,0.0,3.4058,3.4136,3.4358,3.4397,3.4397,3.4397,3.4397,3.4397,3.4397,3.4397,3.4541,3.4894,3.5155,3.5587,3.6253,3.6502,3.6907,3.7508,3.7521,3.7652,3.79,3.79,3.79,3.79,3.79,3.79,3.79,3.79,3.79,3.79,3.79,3.79,3.79,3.79,3.7756,3.7495,3.7142,3.6711,3.6175,3.526,3.4698,3.4397,3.4397,3.4397,3.4397,3.4397,3.4397,3.4397,3.4397,3.4397,3.4397,3.4397,3.4397,3.4397,3.4397,3.4397,3.4397,3.4397,3.4397,3.4397,3.4397,3.4084,3.381,3.381,3.2997,3.2183,3.1779,3.1215,3.069,3.0261,3.0193,3.0193,3.0193,3.0193,3.0011,2.9554,2.9737,2.9589,2.8805,2.9267,2.9487,2.9171,2.9444,2.9475,2.9183,2.8996,2.8847,2.87,2.87,2.87,2.87,2.87,2.87,2.87,2.87,2.8758,2.7004,2.7998,2.9,2.9619,3.0158,3.0831,3.181,3.2182,3.2417,3.2855,3.3404,3.3809,3.3809,3.4136,3.4397,3.4397,3.4397,3.4397,3.4397,3.4397,3.4463,3.462,3.4646,3.4711,3.4855,3.4737,3.4894,3.5482,3.5678,3.6136,3.6959,3.7168,3.7456,3.7887,3.79,3.79,3.79,3.79,3.79,3.79,3.79,3.79,3.79,3.79,3.79,3.79,3.79,3.79,3.79,3.79,3.79,3.7861,3.7429,3.7155,3.6907,3.607,3.5286,3.462,3.445,3.4397,3.4397,3.4397,3.4397,3.4397,3.4397,3.4397,3.4397,3.4397,3.4397,3.4397,3.4397,3.4397,3.4397,3.4397,3.4397,3.4397,3.4397,3.4021,3.3696,3.3696,3.2932,3.214,3.1659,3.125,3.0825,3.0284,3.0193,3.0193,3.0193,3.0193,3.008,2.9737,2.9875,2.9749,2.9164,2.9658,2.992,2.9715,2.9897,2.9852,2.951,2.9498,2.9316,2.8928,2.906,2.9114,2.9114,2.9114,2.9114,2.9114,2.9114,2.9332,2.8177,2.9183,3.0197,3.079,3.1346,3.1902,3.2529,3.3117,3.3548,3.3561,3.3992,3.4371,3.4371,3.4384,3.4397,3.4397,3.4397,3.4397,3.4397,3.4397,3.462,3.5195,3.5273,3.5482,0.0,3.5574,3.5495,3.6044,3.6619,3.6972,3.6998,3.756,3.7887,3.79,3.79,3.79,3.79,3.79,3.79,3.79,3.79,3.79,3.79,3.79,3.79,3.79,3.79,3.79,3.79,3.79,3.79,3.79,3.7887,3.7521,3.6998,3.6972,3.624,3.5195,3.4607,3.4397,3.4397,3.4397,3.4397,3.4397,3.4397,3.4397,3.4397,3.4397,3.4397,3.4397,3.4397,3.4397,3.4397,3.4397,3.4397,3.4397,3.4397,3.4377,3.4377,3.4377,3.3241,3.228,3.2258,3.1137,3.0238,3.0193,3.0193,3.0193,3.0193,3.0193,3.0193,3.0193,2.9783,2.9692,3.0125,2.976,2.9715,3.0148,2.976,2.9497,2.9486,2.9509,2.9498,2.9486,2.992,3.0147,3.0147,3.0147,3.0147,3.0147,3.0147,3.0159,3.0077,3.0947,3.1967,3.2568,3.2855,3.3143,3.3692,3.3979,3.4123,3.4123,3.4267,3.4272,3.381,3.4105,3.4251,3.381,3.4105,3.4397,3.4397,3.4737,3.5064,3.5273,3.5613,0.0,0.0,0.0,3.607,3.6658,3.6894,3.7168,3.7586,3.7795,3.79,3.79,3.79,3.79,3.79,3.79,3.79,3.79,3.79,3.79,3.79,3.79,3.79,3.79,3.79,3.79,3.79,3.79,3.79,3.79,3.79,3.7782,3.7547,3.7155,3.6763,3.6292,3.5325,3.4999,3.4933,3.4528,3.4397,3.4397,3.4397,3.4397,3.4397,3.4397,3.4397,3.4397,3.4397,3.4397,3.4397,3.4397,3.4397,3.4397,3.4397,3.4397,3.4397,3.4397,3.4029,3.339,3.2454,3.1921,3.1281,3.0352,3.0193,3.0193,3.0193,3.0193,3.0193,3.0193,3.0057,2.9897,2.976,2.9875,2.9897,2.976,2.9875,2.9966,2.9966,2.9966,2.9966,2.9966,3.0125,3.0193,3.0193,3.0193,3.0193,3.0193,3.0193,3.0193,3.1502,3.2313,3.3104,3.3496,3.3731,3.3966,3.4319,3.4397,3.4335,3.4084,3.4042,3.3831,3.3138,3.3564,3.3894,3.3462,3.3768,3.4126,3.4377,3.4682,3.5081,3.5539,3.6083,3.6658,0.0,0.0,3.6907,3.7299,3.7325,3.7495,3.7887,3.79,3.79,3.79,3.79,3.79,3.79,3.79,3.79,3.79,3.79,3.79,3.79,3.79,3.79,3.79,3.79,3.79,3.79,3.79,3.79,3.79,3.79,3.79,3.7861,3.7469,3.7325,3.7155,3.5992,3.5587,3.5495,3.4907,3.4724,3.4672,3.4463,3.4397,3.4397,3.4397,3.4397,3.4397,3.4397,3.4397,3.4397,3.4397,3.4397,3.4397,3.4397,3.4397,3.4397,3.4397,3.4209,3.367,3.2497,3.1877,3.1236,3.0352,3.0193,3.0193,3.0193,3.0193,3.0193,3.0193,3.0193,3.008,2.9783,3.0034,3.008,2.976,2.9875,2.9943,2.9943,2.9943,2.9943,2.9943,3.0102,3.0193,3.0193,3.0193,3.0102,2.9943,2.9943,2.9943,3.2437,3.3169,3.3639,3.3639,3.4018,3.4397,3.4397,3.4397,3.4209,3.3547,3.3398,3.3172,0.0,0.0,3.3398,3.3356,3.3386,3.3662,3.4314,3.4341,3.4754,0.0,0.0,0.0,0.0,0.0,3.79,3.79,3.79,3.79,3.79,3.79,3.79,3.79,3.79,3.79,3.79,3.79,3.79,3.79,3.79,3.79,3.79,3.79,3.79,3.79,3.79,3.79,3.79,3.79,3.79,3.79,3.79,3.79,3.79,3.79,3.79,3.7743,3.6593,3.6175,3.6057,3.5521,3.5338,3.5221,3.462,3.445,3.4437,3.441,3.4397,3.4397,3.4397,3.4397,3.4397,3.4397,3.4397,3.4397,3.4397,3.4397,3.4397,3.4356,3.3768,3.3065,3.2379,3.1114,3.0193,3.0193,3.0193,3.0193,3.0193,3.0193,3.0193,3.0193,3.0193,3.0193,3.0193,3.0193,3.0193,3.0193,2.9783,2.9531,2.9531,2.9531,2.9531,2.9531,2.9943,3.017,3.017,3.0148,2.9886,2.9462,2.9485,2.9508,3.3156,3.377,3.4188,3.4188,3.4293,3.4397,3.4397,3.4397,3.4209,3.3547,3.3398,3.3022,3.1769,3.2568,3.3215,3.2673,3.3467,0.0,3.4377,3.5097,0.0,3.6061,0.0,3.773,3.7887,3.79,0.0,3.79,3.79,3.79,3.79,3.79,3.79,3.79,3.79,3.79,3.79,3.79,3.79,3.79,3.79,3.79,3.79,3.79,3.79,3.79,3.79,3.79,3.79,3.79,3.79,3.79,3.79,3.79,3.79,3.79,3.79,3.7861,3.7547,3.7155,3.6671,3.6083,3.59,3.5796,3.5234,3.5064,3.4972,3.4528,3.4397,3.4397,3.4397,3.4397,3.4397,3.4397,3.4397,3.4397,3.4397,3.4397,3.4251,3.3747,3.2677,3.1781,3.1582,3.0791,3.0193,3.0193,3.0193,3.0193,3.0193,3.0193,3.0193,3.0193,3.0193,3.0193,3.0193,3.0193,3.0193,3.0193,3.008,3.0011,3.0011,3.0011,3.0011,3.0011,2.9806,2.9692,2.9692,2.929,2.9025,2.891,2.9324,2.9508,3.3796,3.4162,3.4397,3.4397,3.4397,3.4397,3.4397,3.4168,3.3691,3.2793,3.2347,3.1724,3.04,3.124,3.2099,3.2013,3.2834,0.0,3.3915,3.463,3.5267,0.0,3.6667,0.0,3.7854,3.79,3.79,3.79,3.79,3.79,3.79,3.79,3.79,3.79,3.79,3.79,3.79,3.79,3.79,3.79,3.79,3.79,3.79,3.79,3.79,3.79,3.79,3.79,3.79,3.79,3.79,3.79,3.79,3.79,3.79,3.79,3.79,3.79,3.79,3.7678,3.7299,3.6698,3.6502,3.6397,3.5822,3.5652,3.5587,3.5247,3.4972,3.4789,3.4789,3.4593,3.4463,3.4724,3.4789,3.4855,3.5103,3.5142,3.4885,3.393,3.2871,3.197,3.1386,3.069,3.0193,3.0193,3.0193,3.0193,3.0193,3.0193,3.0125,2.992,2.9897,2.9806,2.9566,2.9543,2.9543,2.9543,2.9543,2.9543,2.9543,2.9543,2.9543,2.9543,2.929,2.9152,2.9152,2.884,2.8585,2.8398,2.8689,2.8828,3.4254,3.4397,3.4397,3.4397,3.4397,3.4364,3.4189,3.3715,3.2928,3.1625,3.0863,3.0064,2.891,2.963,3.0639,3.1345,3.1887,3.2457,3.3159,3.364,3.4152,3.4855,3.5991,3.6956,3.768,3.7726,3.7726,3.7726,3.7726,3.7785,3.79,3.79,3.79,3.79,3.79,3.79,3.79,3.79,3.79,3.79,3.79,3.79,3.79,3.79,3.79,3.79,3.79,3.79,3.79,3.79,3.79,3.79,3.79,3.79,3.79,3.79,3.79,3.79,3.79,3.79,3.7808,3.7299,3.7116,3.7011,3.641,3.6227,3.6201,3.6123,3.5757,3.5404,3.5404,3.5012,3.4763,3.5273,3.5404,3.5534,3.6005,3.6031,3.5603,3.441,3.3615,3.2777,3.1557,3.0774,3.0308,3.0308,3.0239,3.017,3.0125,3.017,3.0034,2.9646,2.96,2.9405,2.8933,2.884,2.8817,2.8817,2.8747,2.8701,2.8701,2.8701,2.8701,2.8701,2.8631,2.8608,2.8608,2.8538,2.8305,2.7904,2.7974,2.7998,3.4254,3.4397,3.4397,3.4397,3.4397,3.4142,3.3152,3.2808,3.224,3.0483,3.0016,2.9662,2.8841,2.9371,3.0083,3.0608,3.1259,3.1908,3.2426,3.3303,3.3947,0.0,3.5642,3.6745,3.6886,3.6909,3.6909,3.6909,3.6909,3.7191,3.7854,3.79,3.79,3.79,3.79,3.79,3.79,3.79,3.79,3.79,3.79,3.79,3.79,3.79,3.79,3.79,3.79,3.79,3.79,3.79,3.79,3.79,3.79,3.79,3.79,3.79,3.79,3.79,3.79,3.79,3.7887,3.7782,3.7743,3.7639,3.7037,3.6841,3.6737,3.624,3.6031,3.5966,3.5966,3.5887,3.5835,3.594,3.5966,3.5992,3.6083,3.5657,3.5009,3.4119,3.3413,3.2674,3.1785,3.1204,3.0858,3.0858,3.048,3.0057,2.9669,2.9966,3.017,3.008,3.008,3.0034,2.9966,2.9566,2.937,2.937,2.8944,2.8701,2.8701,2.8701,2.8701,2.8701,2.8315,2.8128,2.8128,2.7739,2.7489,2.7418,2.7809,2.7998,3.4254,3.4397,3.4397,3.4397,3.4188,3.3744,3.2815,3.2075,3.1187,2.9699,2.9102,2.8675,2.8052,2.8444,2.9141,2.9989,3.0641,3.1196,3.1707,3.2675,3.3351,3.3374,3.4636,3.5679,3.6096,3.6119,3.6119,3.6119,3.6119,3.645,3.7237,3.7953,3.8331,3.8331,3.8632,3.8789,3.8789,3.8789,3.8789,3.8789,3.8789,3.8789,3.8789,3.8789,3.8619,3.8331,3.8331,3.8161,3.79,3.79,3.79,3.79,3.79,3.79,3.79,3.79,3.79,3.79,3.79,3.79,3.79,3.79,3.79,3.7848,3.756,3.7469,3.7416,3.7116,3.6815,3.6567,3.6567,3.6345,3.6188,3.6502,3.6815,3.7037,3.7037,3.646,3.5615,3.4578,3.3797,3.2972,3.1932,3.1559,3.1433,3.1433,3.1192,3.0833,3.0293,3.0692,3.0535,2.9207,2.9059,2.8967,2.8712,2.849,2.835,2.835,2.8115,2.7974,2.7974,2.7974,2.7974,2.7974,2.7739,2.7655,2.7655,2.7418,2.7309,2.7309,2.7536,2.7655,3.4071,3.4123,3.4071,3.4188,3.3809,3.317,3.2247,3.1273,3.0179,2.8872,2.82,2.7702,2.7279,2.7532,2.82,2.9376,2.9865,3.0349,3.0966,3.184,3.2476,3.2641,3.36,0.0,3.5259,3.5343,3.5343,3.5343,3.5343,3.5704,3.6579,3.7792,3.8503,3.862,3.9268,3.9612,3.9612,3.9612,3.9612,3.9612,3.9612,3.9612,3.9612,3.9612,3.9351,3.8893,3.8893,3.8634,3.8266,3.8266,3.8187,3.807,3.807,3.8004,3.79,3.79,3.79,3.79,3.79,3.79,3.79,3.79,3.79,3.79,3.79,3.79,3.79,3.79,3.756,3.7194,3.7194,3.6841,3.6606,3.709,3.756,3.79,3.79,3.74,3.6571,3.523,3.4495,3.3684,3.2349,3.2019,3.1939,3.1939,3.1847,3.1563,3.0999,3.1227,3.066,2.8524,2.8389,2.8246,2.7665,2.7513,2.7441,2.7441,2.7357,2.7309,2.7309,2.7309,2.7309,2.7309,2.7309,2.7309,2.7309,2.7309,2.7309,2.7309,2.7309,2.7309,3.3496,3.326,3.2986,3.3535,3.3208,3.2336,3.0633,3.0161,2.9541,2.774,2.732,2.7268,2.7222,2.7245,2.761,0.0,0.0,2.919,3.0168,3.0802,3.1343,3.1827,3.2994,3.3958,3.446,3.4508,3.4508,3.4508,3.4508,3.504,3.6284,3.7196,3.7895,3.8306,3.9151,3.9612,3.9612,3.9612,3.9612,3.9612,3.9612,3.9612,3.9612,3.9612,3.9586,3.9534,3.9534,3.9494,3.9431,3.9431,3.9128,3.8645,3.8645,3.8331,3.79,3.79,3.79,3.79,3.79,3.79,3.79,3.79,3.79,3.79,3.79,3.79,3.79,3.79,3.7861,3.7821,3.7821,3.7782,3.7756,3.7808,3.7861,3.79,3.79,3.7854,3.733,3.582,3.5474,3.4933,3.3416,3.2766,3.2444,3.2444,3.203,3.154,3.1036,3.0612,3.0079,2.9345,2.9711,2.9627,2.8743,2.8209,2.7951,2.7951,2.7536,2.7309,2.7309,2.7309,2.7309,2.7309,2.7309,2.7309,2.7309,2.7309,2.7309,2.7309,2.7309,2.7309,3.225,3.2622,3.2579,3.2059,3.1751,3.1151,2.9381,2.8698,2.8028,2.6594,2.6304,2.6396,2.6714,2.6772,2.7113,0.0,0.0,0.0,2.924,3.0285,3.1074,3.128,3.23,3.3173,3.3697,3.3744,3.3744,3.3744,3.3744,3.423,3.5353,3.711,3.8551,3.9531,4.0264,4.0607,4.0607,4.0607,4.0607,4.0607,4.0607,4.0607,4.0607,4.0607,4.0435,4.0071,4.0071,3.9888,3.9612,3.9612,3.9468,3.9246,3.9246,3.8893,3.8383,3.8383,3.8187,3.79,3.79,3.79,3.79,3.79,3.79,3.79,3.79,3.79,3.79,3.79,3.79,3.79,3.79,3.79,3.79,3.79,3.79,3.79,3.79,3.7505,3.6769,3.5319,3.4969,3.4422,3.301,3.2887,3.286,3.2479,3.2259,3.1838,3.0989,3.0975,3.0601,2.9467,2.9278,2.91,2.8714,2.8484,2.8362,2.8362,2.8191,2.8069,2.8069,2.8069,2.7945,2.7665,2.7655,2.7545,2.7309,2.7309,2.7309,2.7309,2.7309,2.7309,3.0532,3.0986,3.1015,3.0271,3.0022,2.9542,2.8129,2.7387,2.6741,2.5881,2.5619,2.5729,2.637,2.6501,2.6835,0.0,0.0,2.8525,2.8679,2.9623,3.0437,3.0743,3.1406,3.216,3.2969,3.3214,3.3306,3.3306,3.3306,3.3786,3.4897,3.6682,3.839,3.9888,4.0601,4.106,4.1286,4.1286,4.1286,4.1286,4.1286,4.1286,4.1286,4.1286,4.1064,4.0659,4.0659,4.0437,4.0109,4.0109,3.9993,3.9847,3.9847,3.9494,3.8985,3.8985,3.8619,3.8148,3.8148,3.8031,3.79,3.79,3.79,3.79,3.79,3.79,3.79,3.79,3.79,3.79,3.79,3.79,3.79,3.79,3.79,3.79,3.79,3.7261,3.6296,3.4957,3.4422,3.3747,3.2384,3.2519,3.2656,3.2218,3.2167,3.1888,3.112,3.1234,3.0951,2.9863,2.932,2.8907,2.8613,2.8593,2.8593,2.8593,2.8593,2.8593,2.8593,2.8593,2.8438,2.8107,2.8107,2.7976,2.7679,2.7679,2.7679,2.7679,2.7679,2.7679,2.8292,2.8057,2.778,2.8304,2.8026,2.7458,2.6774,2.6297,2.5954,2.5743,2.5375,2.5385,2.633,2.6501,2.6835,0.0,0.0,0.0,2.8634,2.8715,2.9073,3.0086,3.0228,3.0823,3.2345,3.2996,3.3306,3.3306,3.3306,3.3889,3.5232,3.5757,3.6883,3.8755,3.9673,4.0491,4.1286,4.1286,4.1286,4.1286,4.1286,4.1286,4.1286,4.1286,4.1286,4.1286,4.1286,4.1286,4.1273,4.1273,4.092,4.0385,4.0385,4.0045,3.9599,3.9599,3.922,3.8697,3.8697,3.8344,3.79,3.79,3.79,3.79,3.79,3.79,3.79,3.79,3.79,3.79,3.79,3.79,3.79,3.79,3.79,3.79,3.79,3.7261,3.6296,3.4957,3.4117,3.3176,3.1848,3.1618,3.1629,3.1618,3.1618,3.1593,3.1593,3.112,3.0811,3.0785,3.0302,2.9611,2.869,2.8593,2.8593,2.8593,2.8593,2.8593,2.8593,2.8593,2.8593,2.8582,2.8582,2.8597,2.8597,2.8597,2.8597,2.8597,2.8597,2.8597,2.6264,2.6966,2.7434,2.6723,2.6533,2.6316,2.5599,2.516,2.4854,2.4703,2.4578,2.4671,2.5295,2.5704,2.6065,0.0,0.0,0.0,2.78,2.8891,2.9849,3.0215,3.1168,3.2112,3.2946,3.3203,3.3306,3.3306,3.3306,3.3613,3.4376,3.4539,3.5766,3.8188,3.8867,3.9621,4.0466,4.0491,4.077,4.1286,4.1286,4.1286,4.1286,4.1286,4.1286,4.1286,4.1286,4.1286,4.1286,4.1286,4.1206,4.1036,4.1036,4.0646,4.0136,4.0136,3.9523,3.871,3.871,3.8357,3.79,3.79,3.79,3.79,3.79,3.79,3.79,3.79,3.79,3.79,3.79,3.79,3.79,3.79,3.79,3.7749,3.7191,3.6886,3.606,3.3834,3.3524,3.3076,3.1351,3.1362,3.1465,3.1105,3.1043,3.0925,3.0557,3.0375,3.0245,3.0245,3.0088,2.988,2.958,2.9559,2.9559,2.9559,2.9559,2.9559,2.9559,2.9559,2.9415,2.9094,2.9083,2.8928,2.8593,2.8593,2.8593,2.8593,2.8593,2.8593,2.43,2.4977,2.5438,2.4768,2.4857,2.4929,2.4333,2.4146,2.4067,2.4002,2.397,2.4118,2.4626,2.5119,2.5475,2.5563,2.7033,0.0,2.737,2.8655,2.9778,3.0211,3.1427,3.244,3.2914,3.317,3.3306,3.3306,3.3306,3.3444,3.3717,3.3901,3.4767,3.6441,3.751,3.8445,3.9307,3.9521,4.0045,4.0858,4.0858,4.101,4.1286,4.1286,4.1286,4.1286,4.1286,4.1286,0.0,4.1286,4.1286,4.1286,4.1286,4.1064,4.0737,4.0737,4.003,3.905,3.905,3.847,3.7749,3.7749,3.768,3.7611,3.7611,3.768,3.7749,3.7749,3.7749,3.7726,3.7634,3.768,3.7726,3.7634,3.7611,3.7353,3.6438,3.6036,3.5174,3.2939,3.2513,3.212,3.0744,3.078,3.0884,3.0536,3.0495,3.0365,3.0047,2.9994,2.9994,2.9994,2.9994,2.9994,2.9994,2.9994,2.9994,2.9994,2.9994,2.9994,2.9994,2.9994,2.986,2.957,2.957,2.9425,2.9135,2.9135,2.9135,2.9135,2.9135,2.9135,0.0,2.2458,2.2351,2.2648,2.3106,2.3419,2.3076,2.3294,0.0,2.3641,2.3593,2.372,2.4254,2.4683,2.499,2.5084,2.6333,2.7293,2.7315,2.8169,2.9155,3.0094,3.1157,3.194,3.2325,3.2935,3.3306,3.3306,3.3306,3.3306,3.3306,3.3706,3.3947,3.3947,3.5669,3.7006,3.7855,3.8345,3.9095,4.0045,4.0045,4.0478,4.1286,4.1286,4.1286,4.1286,4.1286,4.1286,4.1286,4.1286,4.1286,4.1286,4.1286,4.1286,4.1286,4.1247,4.0528,3.9599,3.9536,3.865,3.7505,3.7482,3.7307,3.7108,3.7108,3.7261,3.7482,3.7482,3.7482,3.74,3.7155,3.7284,3.7413,3.7168,3.7108,3.6792,3.5654,3.4884,3.3907,3.2249,3.1304,3.064,3.0099,2.9994,2.9994,2.9994,2.9994,2.9994,2.9994,2.9994,2.9994,2.9994,2.9994,2.9994,2.9994,2.9994,2.9994,2.9994,2.9994,2.9994,2.9994,2.9994,2.9994,2.9994,2.9994,2.9994,2.9994,2.9994,2.9994,2.9994,2.9994,2.9994,2.1431,0.0,2.2165,2.1934,2.2244,2.2661,0.0,0.0,0.0,0.0,0.0,2.3275,2.3713,2.4199,2.4445,2.4167,2.5903,2.7304,2.737,2.8802,2.994,3.0171,3.1145,3.1827,3.1928,3.2766,3.3306,3.3306,3.3306,3.3306,3.3306,3.3384,3.3453,3.3453,3.4243,3.5242,3.6466,3.6586,3.7606,3.9486,3.9486,4.0118,4.1286,4.1286,4.1286,4.1286,4.1286,4.1286,4.1286,4.1286,4.1286,4.1286,4.1286,4.1286,4.1234,4.0763,4.0163,3.9523,3.9076,3.8298,3.7459,3.7261,3.7155,3.7108,3.7108,3.7132,3.7178,3.7178,3.7178,3.7191,3.7108,3.7155,3.7191,3.7108,3.7108,3.6651,3.5017,3.4532,3.3735,3.1509,3.094,3.064,3.0099,2.9994,2.9994,2.9994,2.9994,2.9994,2.9994,2.9994,2.9994,2.9994,2.9994,2.9994,2.9994,2.9994,2.9994,2.9994,2.9994,2.9994,2.9994,2.9994,2.9994,2.9994,2.9994,2.9994,2.9994,2.9994,2.9994,2.9994,2.9994,2.9994,2.0683,2.1124,2.1357,2.1437,2.1581,2.1854,2.2441,0.0,0.0,0.0,0.0,2.329,2.3371,2.3919,2.4279,0.0,2.6,2.7822,2.831,2.9024,2.9688,3.0191,3.0732,3.1347,3.2041,3.2601,3.3008,3.3281,3.3306,3.3306,3.3306,3.3306,3.3306,3.3306,3.3559,3.413,3.5065,3.5322,3.6238,3.7789,3.8154,3.8905,3.9983,4.0602,4.0881,4.0894,4.1168,4.1286,4.1286,4.1286,4.1286,4.126,4.101,4.0881,4.0803,4.0106,3.9581,3.9107,3.8581,3.783,3.7085,3.6851,3.6781,3.6781,3.6781,3.6781,3.6805,3.6886,3.6922,3.6898,3.6805,3.6851,3.6886,3.6805,3.6781,3.6369,3.4896,3.419,3.3314,3.1509,3.0759,3.0339,3.0047,2.9994,2.9994,2.9994,2.9994,2.9994,2.9994,2.9994,2.9994,2.9994,2.9994,2.9994,2.9994,2.9994,2.9994,2.9994,2.9994,2.9994,2.9994,2.9994,2.9994,2.9994,2.9994,2.9994,2.9994,2.9994,2.9994,2.9994,2.9994,2.9994,2.0302,2.044,2.0347,2.0958,2.1056,2.1185,2.1937,0.0,0.0,0.0,0.0,0.0,2.3223,2.3817,0.0,0.0,0.0,2.8332,2.9259,2.9129,2.9237,3.0067,3.0256,3.0827,3.2134,3.2359,3.2659,3.3256,3.3306,3.3306,3.3306,3.3306,3.3306,3.3306,3.3206,3.3339,3.3751,3.4311,3.5018,3.59,3.657,3.7419,3.8432,3.9593,4.0156,4.0318,4.0827,4.1038,4.0975,4.0975,4.095,4.0873,4.0414,4.0194,4.0067,3.9386,3.8904,3.8522,3.7996,3.733,3.6675,3.6476,3.6405,3.6405,3.6405,3.6405,3.6428,3.6604,3.6651,3.6604,3.6428,3.6534,3.6604,3.6428,3.6405,3.6061,3.4824,3.3845,3.2814,3.1611,3.0614,2.9994,2.9994,2.9994,2.9994,2.9994,2.9994,2.9994,2.9994,2.9994,2.9994,2.9994,2.9994,2.9994,2.9994,2.9994,2.9994,2.9994,2.9994,2.9994,2.9994,2.9994,2.9994,2.9994,2.9994,2.9994,2.9994,2.9994,2.9994,2.9994,2.9994,2.9994,2.0683,2.0416,1.9794,2.0183,2.0604,2.1039,2.1564,0.0,0.0,0.0,0.0,0.0,0.0,2.3848,2.4064,0.0,0.0,2.781,2.8709,2.9474,2.9874,2.9643,3.0331,3.0912,3.1186,3.1932,3.2659,3.3256,3.3306,3.3306,3.3306,3.3306,3.3306,3.3306,3.2796,3.258,3.2634,3.3227,3.416,3.5413,3.5538,3.659,3.8395,3.8607,3.9086,3.9743,3.981,3.9739,3.9508,3.9508,3.9386,3.9214,3.9332,3.9244,3.9008,3.8837,3.8495,3.7987,3.7191,3.6809,3.6675,3.6476,3.6405,3.6405,3.6405,3.6405,3.6405,3.6428,3.6452,3.6428,3.6405,3.6428,3.6428,3.6405,3.6405,3.587,3.3858,3.3325,3.26,3.0625,3.0125,2.9994,2.9994,2.9994,2.9994,2.9994,2.9994,2.9994,2.9994,2.9994,2.9994,2.9994,2.9994,2.9994,2.9994,2.9994,2.9994,2.9994,2.9994,2.9994,2.9994,2.9994,2.9994,2.9994,2.9994,2.9994,2.9994,2.9994,2.9994,2.9994,2.9994,2.9994,1.9327,1.9299,1.9021,1.9748,2.0418,2.1127,2.2007,2.2267,0.0,0.0,0.0,0.0,0.0,0.0,2.5075,2.6538,2.7097,2.7655,2.8579,2.8665,2.8642,2.8689,2.9262,2.9905,3.0515,3.1151,3.1761,3.2353,3.2378,3.2378,3.2378,3.2378,3.2378,3.2378,3.2395,3.2384,3.2384,3.3008,3.3459,3.3744,3.4158,3.5268,3.6905,3.7642,3.8398,3.9141,3.9468,3.9527,3.9407,3.9249,3.9139,3.9004,3.8827,3.8591,3.8311,3.797,3.7553,3.7102,3.681,3.6628,3.6523,3.6428,3.6405,3.6405,3.6405,3.6405,3.6405,3.6405,3.6405,3.6405,3.6405,3.6405,3.6405,3.6405,3.6405,3.5966,3.441,3.3623,3.275,3.1161,3.0391,2.9994,2.9994,2.9994,2.9994,2.9994,2.9994,2.9994,2.9994,2.9994,2.9994,2.9994,2.9994,2.9994,2.9994,2.9994,2.9994,2.9994,2.9994,2.9994,2.9994,2.9994,2.9994,2.9994,2.9994,2.9994,2.9994,2.9994,2.9994,2.9994,2.9994,2.9994,1.8159,1.8455,1.8563,1.9464,0.0,2.1184,2.2304,0.0,0.0,0.0,0.0,0.0,0.0,2.4884,0.0,2.7923,2.7888,2.7904,2.8612,2.8198,2.7904,2.8128,2.8442,2.9039,3.0101,3.0586,3.1079,3.1735,3.1797,3.1797,3.1797,3.1669,3.1593,3.1593,3.1888,3.2029,3.2029,3.2367,3.2555,3.2633,3.3087,3.3968,3.5162,3.6074,3.6875,3.7629,3.8317,3.8643,3.8643,3.8704,3.8704,3.8676,3.8321,3.8058,3.7807,3.7158,3.6734,3.6499,3.6581,3.6534,3.6405,3.6405,3.6405,3.6405,3.6405,3.6405,3.6405,3.6405,3.6405,3.6405,3.6405,3.6405,3.6405,3.6405,3.6405,3.6108,3.503,3.3968,3.2876,3.1804,3.0733,2.9994,2.9994,2.9994,2.9994,2.9994,2.9994,2.9994,2.9994,2.9994,2.9994,2.9994,2.9994,2.9994,2.9994,2.9994,2.9994,2.9994,2.9994,2.9994,2.9994,2.9994,2.9994,2.9994,2.9994,2.9994,2.9994,2.9994,2.9994,2.9994,2.9994,2.9994,1.8331,1.8767,1.8852,1.9243,2.0117,0.0,2.1951,2.2249,0.0,2.3547,0.0,0.0,0.0,2.5874,2.6552,2.6731,2.7843,2.8677,2.8705,2.9083,2.9175,2.8701,2.8672,2.9093,3.0093,3.0608,3.1303,3.2275,3.2333,3.2333,3.2333,3.1874,3.1593,3.1593,3.1146,3.0914,3.0914,3.0443,3.1255,3.3231,3.2734,3.2926,3.3722,3.3335,3.3547,3.4313,3.5344,3.5801,3.5873,3.6859,3.726,3.727,3.749,3.7547,3.7454,3.6713,3.6546,3.6651,3.6476,3.6405,3.6405,3.6405,3.6405,3.6405,3.6405,3.6405,3.6405,3.6405,3.6405,3.6405,3.6405,3.6405,3.6405,3.6405,3.6405,3.6108,3.503,3.3968,3.2876,3.1804,3.0733,2.9994,2.9994,2.9994,2.9994,2.9994,2.9994,2.9994,2.9994,2.9994,2.9994,2.9994,2.9994,2.9994,2.9994,2.9994,2.9994,2.9994,2.9994,2.9994,2.9994,2.9994,2.9994,2.9994,2.9994,2.9994,2.9994,2.9994,2.9994,2.9994,2.9994,2.9994,1.6967,1.7755,1.8441,1.8479,1.991,0.0,0.0,2.2495,2.3131,2.3626,2.4561,0.0,0.0,0.0,2.748,2.7474,2.7951,2.8296,2.826,2.8186,2.8045,2.7857,2.8316,2.8677,2.8757,2.9458,3.0052,3.044,3.0461,3.0589,3.0888,3.0728,3.0609,3.0609,3.0744,3.0785,3.0785,3.0925,3.1399,3.2252,3.1659,3.2004,3.3101,3.2876,3.3191,3.3924,3.4338,3.4509,3.4594,3.5547,3.5929,3.5977,3.657,3.6898,3.6945,3.6546,3.6452,3.6499,3.6428,3.6405,3.6405,3.6405,3.6405,3.6405,3.6405,3.6405,3.6405,3.6405,3.6405,3.6405,3.6405,3.6405,3.6405,3.6405,3.6405,3.6108,3.503,3.3968,3.2876,3.1804,3.0733,2.9994,2.9994,2.9994,2.9994,2.9994,2.9994,2.9994,2.9994,2.9994,2.9994,2.9994,2.9994,2.9994,2.9994,2.9994,2.9994,2.9994,2.9994,2.9994,2.9994,2.9994,2.9994,2.9994,2.9994,2.9994,2.9994,2.9994,2.9994,2.9994,2.9994,2.9994,1.6533,1.7508,1.8565,0.0,0.0,0.0,2.2026,2.2964,2.3884,2.4465,2.5256,2.6027,2.6698,0.0,0.0,2.8005,2.8268,2.8362,2.8034,2.7715,2.7465,2.7309,2.7935,2.8303,2.8127,2.8986,2.9608,2.9754,2.9765,2.9901,3.025,3.0099,2.9994,2.9994,3.0365,3.0536,3.0536,3.0909,3.109,3.109,3.0718,3.112,3.2156,3.2004,3.2185,3.2682,3.3032,3.3231,3.338,3.4301,3.4739,3.4872,3.5715,3.6108,3.6238,3.6358,3.6405,3.6405,3.6405,3.6405,3.6405,3.6405,3.6405,3.6405,3.6405,3.6405,3.6405,3.6405,3.6405,3.6405,3.6405,3.6405,3.631,3.5989,3.5894,3.5595,3.4532,3.3438,3.2474,3.1728,3.0733,2.9994,2.9994,2.9994,2.9994,2.9994,2.9994,2.9994,2.9994,2.9994,2.9994,2.9994,2.9994,2.9994,2.9994,2.9994,2.9994,2.9994,2.9994,2.9994,2.9994,2.9994,2.9994,2.9994,2.9994,2.9994,2.9994,2.9994,2.9994,2.9994,2.9994,2.9994,1.7387,1.8321,1.9429,0.0,0.0,0.0,2.2387,2.3574,2.4796,2.6196,2.6185,2.6185,2.7135,2.7346,0.0,2.8027,2.8864,2.914,2.8128,2.7987,2.7809,2.7357,2.7655,2.8076,2.8541,2.9505,3.0264,3.0742,3.0785,3.0785,3.0785,3.0287,2.9994,2.9994,2.9994,2.9994,2.9994,2.9994,2.9994,2.9994,2.9994,3.0271,3.0759,3.0245,2.9994,3.0073,3.1109,3.1728,3.2072,3.313,3.3701,3.3973,3.4836,3.5186,3.5283,3.6072,3.6369,3.6392,3.6392,3.6405,3.6405,3.6405,3.6405,3.6405,3.6405,3.6405,3.6405,3.6405,3.6405,3.6405,3.6405,3.6405,3.6132,3.5054,3.4799,3.4508,3.3425,3.2362,3.16,3.16,3.0733,2.9994,2.9994,2.9994,2.9994,2.9994,2.9994,2.9994,2.9994,2.9994,2.9994,2.9994,2.9994,2.9994,2.9994,2.9994,2.9994,2.9994,2.9994,2.9994,2.9994,2.9994,2.9994,2.9994,2.9994,2.9994,2.9994,2.9994,2.9994,2.9994,2.9994,2.9994,1.6455,1.7622,0.0,1.9064,0.0,0.0,0.0,2.3522,0.0,0.0,2.5921,2.5786,2.7009,2.7008,0.0,2.7459,2.7772,2.7833,2.756,2.7513,2.7465,2.7309,2.7655,2.7952,2.8086,2.8695,2.9253,2.9713,2.9729,2.989,3.0224,3.0099,2.9994,2.9994,2.9994,2.9994,2.9994,2.9994,2.9994,2.9994,2.9994,3.0073,3.0219,3.0073,2.9994,3.002,3.0349,3.051,3.066,3.138,3.198,3.2435,3.2721,3.3256,3.3903,3.4137,3.4649,3.5203,3.5203,3.5466,3.5769,3.5769,3.6044,3.6405,3.6405,3.6405,3.6405,3.6405,3.6405,3.6405,3.6405,3.6405,3.6132,3.5054,3.4799,3.4508,3.3425,3.2362,3.16,3.16,3.0733,2.9994,2.9994,2.9994,2.9994,2.9994,2.9994,2.9994,2.9994,2.9994,2.9994,2.9994,2.9994,2.9994,2.9994,2.9994,2.9994,2.9994,2.9994,2.9994,2.9994,2.9994,2.9994,2.9994,2.9994,2.9994,2.9994,2.9994,2.9994,2.9994,2.9994,2.9994,1.7234,1.8289,0.0,1.977,2.0932,2.2295,2.3378,0.0,0.0,0.0,2.5706,2.5616,2.6987,2.6883,0.0,2.7484,2.7584,2.7513,2.7333,2.7309,2.7309,2.7309,2.7655,2.79,2.79,2.8479,2.9001,2.929,2.9477,2.9704,2.9984,2.9994,2.9994,2.9994,2.9994,2.9994,2.9994,2.9994,2.9994,2.9994,2.9994,2.9994,2.9994,2.9994,2.9994,2.9984,2.9798,2.9715,2.9735,2.9922,3.0209,3.057,3.0993,3.1781,3.2676,3.2687,3.3546,3.4658,3.427,3.4608,3.5169,3.5169,3.5418,3.5766,3.5968,3.6031,3.6081,3.6318,3.6405,3.6405,3.6405,3.6085,3.5595,3.4945,3.4483,3.3858,3.2789,3.1713,3.0966,3.0966,3.0443,2.9994,2.9994,2.9994,2.9994,2.9994,2.9994,2.9994,2.9994,2.9994,2.9994,2.9994,2.9994,2.9994,2.9994,2.9994,2.9994,2.9994,2.9994,2.9994,2.9994,2.9994,2.9994,2.9994,2.9994,2.9994,2.9994,2.9994,2.9994,2.9994,2.9994,2.9994,1.8834,1.9619,0.0,2.1263,2.1689,0.0,2.351,2.4819,2.577,2.5833,0.0,2.5552,2.6921,2.6786,2.6783,2.7728,2.7864,2.7744,2.7347,2.7309,2.7309,2.7309,2.7614,2.7858,2.7889,2.8655,2.9197,2.9239,2.9673,2.9932,2.9932,2.9973,2.9994,2.9994,2.9994,2.9994,2.9994,2.9994,2.9994,2.9994,2.9994,2.9994,2.9994,2.9994,2.9994,2.9973,2.9508,2.928,2.9208,2.8742,2.85,2.8582,2.9575,3.0558,3.1429,3.1489,3.2697,3.4166,3.3309,3.3656,3.4502,3.4502,3.4585,3.4791,3.527,3.542,3.5545,3.6155,3.6306,3.6318,3.6405,3.5595,3.4799,3.4799,3.3919,3.2789,3.1804,3.0759,2.9994,2.9994,2.9994,2.9994,2.9994,2.9994,2.9994,2.9994,2.9994,2.9994,2.9994,2.9994,2.9994,2.9994,2.9994,2.9994,2.9994,2.9994,2.9994,2.9994,2.9994,2.9994,2.9994,2.9994,2.9994,2.9994,2.9994,2.9994,2.9994,2.9994,2.9994,2.9994,2.9994,2.9994,1.7131,1.8447,0.0,0.0,2.1947,2.3425,2.3733,2.4324,2.4924,2.5264,2.4977,2.4985,2.6021,2.5821,2.5814,2.6754,2.69,2.6978,2.7258,2.7309,2.7309,2.7309,2.7368,2.7565,2.7858,2.8076,2.8344,2.8706,2.9197,2.9456,2.9456,2.9798,2.9994,2.9994,2.9994,2.9994,2.9994,2.9994,2.9994,2.9994,2.9994,2.9994,2.9994,2.9994,2.9994,2.9973,2.9508,2.9094,2.8696,2.8241,2.7862,2.76,2.7819,2.8498,2.9358,2.9347,3.0135,3.1129,3.0947,3.175,3.289,3.289,3.3705,3.4728,3.4841,3.4879,3.4992,3.5544,3.5694,3.5794,3.6281,3.5595,3.4799,3.4799,3.3338,3.188,3.1651,3.0759,2.9994,2.9994,2.9994,2.9994,2.9994,2.9994,2.9994,2.9994,2.9994,2.9994,2.9994,2.9994,2.9994,2.9994,2.9994,2.9994,2.9994,2.9994,2.9994,2.9994,2.9994,2.9994,2.9994,2.9994,2.9994,2.9994,2.9994,2.9994,2.9994,2.9994,2.9994,2.9994,2.9994,2.9994,1.7465,0.0,0.0,2.0749,0.0,2.2981,2.2981,2.325,2.3669,2.4262,2.4444,2.4717,2.5425,2.5355,2.5428,2.6146,2.626,2.6426,2.6915,2.6954,2.7061,2.7278,2.7309,2.7368,2.7583,2.78,2.8003,2.8241,2.8686,2.897,2.897,2.9415,2.9663,2.9663,2.988,2.9994,2.9994,2.9994,2.9994,2.9994,2.9994,2.9994,2.9994,2.9994,2.9994,2.9953,2.927,2.8835,2.8541,2.7883,2.7493,2.7309,2.7309,2.788,2.8654,2.8198,2.8945,3.0125,2.9647,3.0308,3.1346,3.1346,3.2179,3.3258,3.3527,3.3941,3.4427,3.4979,3.513,3.5255,3.583,3.5214,3.4487,3.4739,3.3153,3.16,3.16,3.0759,2.9994,2.9994,2.9994,2.9994,2.9994,2.9994,2.9994,2.9994,2.9994,2.9994,2.9994,2.9994,2.9994,2.9994,2.9994,2.9994,2.9994,2.9994,2.9994,2.9994,2.9994,2.9994,2.9994,2.9994,2.9994,2.9994,2.9994,2.9994,2.9994,2.9994,2.9994,2.9994,2.9994,2.9994,1.8094,0.0,1.9921,2.1326,2.1837,0.0,2.2083,2.2208,2.2494,2.3169,2.3841,2.4481,2.5003,2.5065,2.5232,2.5699,2.5794,2.5949,2.6405,2.6478,2.6643,2.7133,2.7185,2.7216,2.7299,2.7593,2.781,2.781,2.821,2.8469,2.8469,2.8903,2.9187,2.9187,2.9559,2.9798,2.988,2.988,2.9911,2.9994,2.9994,2.9994,2.9994,2.9994,2.9994,2.9942,2.9021,2.8593,2.852,2.7659,2.7309,2.7309,2.7309,2.7762,2.8351,2.7584,2.8328,2.9578,2.8747,2.9107,2.9943,2.9943,3.0576,3.1431,3.1881,3.2711,3.3617,3.4153,3.444,3.4645,3.5023,3.4368,3.3672,3.3932,3.2517,3.1175,3.1516,3.0759,2.9994,2.9994,2.9994,2.9994,2.9994,2.9994,2.9994,2.9994,2.9994,2.9994,2.9994,2.9994,2.9994,2.9994,2.9994,2.9994,2.9994,2.9994,2.9994,2.9994,2.9994,2.9994,2.9994,2.9994,2.9994,2.9994,2.9994,2.9994,2.9994,2.9994,2.9994,2.9994,2.9994,2.9994,0.0,0.0,1.9851,0.0,2.14,2.1669,0.0,0.0,2.2073,0.0,2.3125,2.3817,2.4472,2.459,2.4745,2.5222,2.5294,2.5449,2.5929,2.5991,2.6167,2.6633,2.6685,2.684,2.7268,2.7337,2.7368,2.7368,2.7759,2.7993,2.7993,2.8427,2.8686,2.8686,2.8737,2.899,2.9394,2.9394,2.9601,2.9994,2.9994,2.9994,2.9994,2.9994,2.9994,2.9942,2.9021,2.8593,2.852,2.7659,2.7309,2.7309,2.7309,2.7381,2.7465,2.7357,2.7465,2.7668,2.7536,2.8105,2.8899,2.8899,2.9578,3.0407,3.0465,3.1153,3.2019,3.2572,3.3338,3.3945,3.366,3.2806,3.18,3.1003,2.9897,2.9469,3.1222,3.0759,2.9994,2.9994,2.9994,2.9994,2.9994,2.9994,2.9994,2.9994,2.9994,2.9994,2.9994,2.9994,2.9994,2.9994,2.9994,2.9994,2.9994,2.9994,2.9994,2.9994,2.9994,2.9994,2.9994,2.9994,2.9994,2.9994,2.9994,2.9994,2.9994,2.9994,2.9994,2.9994,2.9994,2.9994,1.7209,1.8504,1.9841,0.0,2.1271,2.1401,2.1233,2.1228,2.1293,2.1468,2.1932,2.2652,2.3732,2.3937,2.4128,2.47,2.4797,2.4984,2.5428,2.5513,2.5678,2.6146,2.6208,2.6281,2.6488,2.6747,2.6915,2.6915,2.7317,2.7552,2.7552,2.7976,2.82,2.82,2.8448,2.8686,2.8918,2.8918,2.9145,2.9611,2.9611,2.9746,2.9994,2.9994,2.9994,2.9942,2.9021,2.8593,2.852,2.7659,2.7309,2.7309,2.7309,2.7309,2.7309,2.7309,2.7309,2.7309,2.7309,2.756,2.7927,2.7927,2.8561,2.936,2.936,3.0034,3.0959,3.1733,3.2285,3.2641,3.2758,3.2456,3.1775,3.0506,2.984,2.9575,2.9852,2.9763,2.9684,2.9942,2.9994,2.9994,2.9994,2.9994,2.9994,2.9994,2.9994,2.9994,2.9994,2.9994,2.9994,2.9994,2.9994,2.9994,2.9994,2.9994,2.9994,2.9994,2.9994,2.9994,2.9994,2.9994,2.9994,2.9994,2.9994,2.9994,2.9994,2.9994,2.9994,2.9994,2.9994,2.9994,0.0,0.0,1.9281,2.0441,2.0676,2.0611,0.0,0.0,2.0237,0.0,2.0771,2.1372,2.2721,2.3123,2.345,2.4131,2.4261,2.4427,2.494,2.5013,2.5201,2.5658,2.572,2.5784,2.5887,2.6219,2.6415,2.6415,2.676,2.6933,2.6933,2.7334,2.7583,2.7583,2.8028,2.8328,2.8417,2.8531,2.8794,2.9125,2.9011,2.9197,2.9642,2.9528,2.9601,2.9777,2.897,2.8593,2.852,2.7659,2.7309,2.7309,2.7309,2.7309,2.7309,2.7309,2.7309,2.7309,2.7309,2.7309,2.7309,2.7309,2.7762,2.8328,2.8328,2.9037,2.9966,3.0678,3.1058,3.1275,3.1416,3.1453,3.1124,2.977,2.9459,2.9316,2.873,2.8887,2.927,2.9735,2.9818,2.986,2.9973,2.9994,2.9994,2.9994,2.9994,2.9994,2.9994,2.9994,2.9994,2.9994,2.9994,2.9994,2.9994,2.9994,2.9994,2.9994,2.9994,2.9994,2.9994,2.9994,2.9994,2.9994,2.9994,2.9994,2.9994,2.9994,2.9994,2.9994,2.9994,2.9994,0.0,1.7034,0.0,1.9308,1.9117,1.8895,0.0,0.0,1.8917,1.9612,1.9774,2.0138,2.1293,2.2028,2.2689,2.3428,2.3547,2.3774,2.4442,2.4538,2.4704,2.519,2.5242,2.5408,2.5866,2.5918,2.5939,2.5939,2.596,2.597,2.597,2.6405,2.6664,2.6664,2.7109,2.7555,2.7931,2.8365,2.8603,2.8624,2.8179,2.821,2.8669,2.821,2.8479,2.9311,2.8799,2.8593,2.852,2.7659,2.7309,2.7309,2.7309,2.7309,2.7309,2.7309,2.7309,2.7309,2.7309,2.7309,2.7309,2.7309,2.7333,2.7381,2.7381,2.8034,2.8794,2.884,2.9543,3.0068,2.914,2.8896,2.8651,2.7694,2.7443,2.7658,2.8431,2.8603,2.8794,2.9249,2.9342,2.9477,2.9922,2.9994,2.9994,2.9994,2.9994,2.9994,2.9994,2.9994,2.9994,2.9994,2.9994,2.9994,2.9994,2.9994,2.9994,2.9994,2.9994,2.9994,2.9994,2.9994,2.9994,2.9994,2.9994,2.9994,2.9994,2.9994,2.9994,2.9994,2.9994,2.9994,0.0,0.0,0.0,1.8407,1.8842,1.9058,1.9132,1.916,1.9126,1.9024,1.9204,1.9574,2.0196,2.1096,2.1993,2.2677,2.2787,2.3038,2.3764,2.3851,2.4084,2.4681,2.4745,2.4829,2.4984,2.5263,2.5439,2.5439,2.572,2.5897,2.5897,2.6063,2.6146,2.6146,2.6312,2.6467,2.661,2.6775,2.7027,2.7303,2.7151,2.7317,2.7762,2.7596,2.7831,2.8365,2.7945,2.8079,2.852,2.7659,2.7309,2.7309,2.7309,2.7309,2.7309,2.7309,2.7309,2.7309,2.7309,2.7309,2.7309,2.7309,2.7309,2.7309,2.7309,2.7536,2.7927,2.8538,2.8945,2.9153,2.8794,2.8701,2.8445,2.7513,2.7309,2.7392,2.77,2.7966,2.8282,2.8773,2.9104,2.9352,2.9528,2.9798,2.9994,2.9994,2.9994,2.9994,2.9994,2.9994,2.9994,2.9994,2.9994,2.9994,2.9994,2.9994,2.9994,2.9994,2.9994,2.9994,2.9994,2.9994,2.9994,2.9994,2.9994,2.9994,2.9994,2.9994,2.9994,2.9994,2.9994,2.9994,1.6237,0.0,0.0,0.0,1.8109,1.8385,1.8402,1.8608,1.878,1.864,1.8814,1.9114,1.9457,2.014,2.0983,2.1915,2.2072,2.2391,2.3363,2.3503,2.3742,2.4411,2.4497,2.4497,2.4497,2.4776,2.4984,2.4984,2.5242,2.543,2.543,2.5575,2.573,2.5897,2.5897,2.5897,2.5897,2.5897,2.6063,2.6353,2.6208,2.6384,2.6809,2.6674,2.69,2.7448,2.7016,2.7396,2.8303,2.7596,2.7309,2.7309,2.7309,2.7309,2.7309,2.7309,2.7309,2.7309,2.7309,2.7309,2.7309,2.7309,2.7309,2.7309,2.7309,2.7309,2.7418,2.8058,2.8222,2.8222,2.8222,2.8222,2.8058,2.7441,2.7309,2.7309,2.7309,2.7513,2.7831,2.8272,2.8603,2.8938,2.9249,2.9559,2.9818,2.9973,2.9994,2.9994,2.9994,2.9994,2.9994,2.9994,2.9994,2.9994,2.9994,2.9994,2.9994,2.9994,2.9994,2.9994,2.9994,2.9994,2.9994,2.9994,2.9994,2.9994,2.9994,2.9994,2.9994,2.9994,2.9994,2.9994,0.0,0.0,0.0,0.0,0.0,0.0,1.8039,0.0,1.7692,1.842,1.8583,1.8712,1.9106,1.9174,1.9653,2.1127,2.1373,2.1872,2.3256,2.3472,2.3742,2.4411,2.4497,2.4497,2.4497,2.4497,2.4497,2.4497,2.4497,2.4497,2.4497,2.4921,2.5387,2.5846,2.5866,2.5866,2.5866,2.5866,2.5866,2.5856,2.5387,2.5408,2.5846,2.5377,2.5689,2.6529,2.6074,2.662,2.7807,2.7431,2.7299,2.7309,2.7309,2.7309,2.7309,2.7309,2.7309,2.7309,2.7309,2.7309,2.7309,2.7309,2.7309,2.7309,2.7309,2.7309,2.7309,2.7309,2.7309,2.7309,2.7309,2.7309,2.7309,2.7309,2.7309,2.7309,2.7309,2.7309,2.741,2.7821,2.7889,2.8189,2.9125,2.9301,2.9466,2.9922,2.9994,2.9994,2.9994,2.9994,2.9994,2.9994,2.9994,2.9994,2.9994,2.9994,2.9994,2.9994,2.9994,2.9994,2.9994,2.9994,2.9994,2.9994,2.9994,2.9994,2.9994,2.9994,2.9994,2.9994,2.9994,2.9994,1.5805,0.0,0.0,0.0,0.0,0.0,1.6861,0.0,1.7565,1.7752,1.7997,1.8285,1.8703,1.8772,1.9137,2.0268,2.0752,2.1282,2.2203,2.3014,2.3742,2.4411,2.4497,2.4497,2.4497,2.4497,2.4497,2.4497,2.4497,2.4497,2.4497,2.4621,2.4745,2.4891,2.4891,2.4891,2.4891,2.4891,2.4891,2.4891,2.4767,2.4755,2.488,2.4745,2.5025,2.5573,2.5449,2.5802,2.6465,2.6695,2.6985,2.7309,2.7309,2.7309,2.7309,2.7309,2.7309,2.7309,2.7309,2.7309,2.7309,2.7309,2.7309,2.7309,2.7309,2.7309,2.7309,2.7309,2.7309,2.7309,2.7309,2.7309,2.7309,2.7309,2.7309,2.7309,2.7309,2.7309,2.7317,2.7441,2.7707,2.8086,2.87,2.9083,2.9466,2.9922,2.9994,2.9994,2.9994,2.9994,2.9994,2.9994,2.9994,2.9994,2.9994,2.9994,2.9994,2.9994,2.9994,2.9994,2.9994,2.9994,2.9994,2.9994,2.9994,2.9994,2.9994,2.9994,2.9994,2.9994,2.9994,2.9994,0.0,0.0,0.0,0.0,0.0,0.0,1.6329,1.6679,1.7047,1.7229,1.7415,1.7661,1.8069,1.8137,1.8388,1.91,2.0054,2.1006,2.1861,2.2526,2.3182,2.3866,2.396,2.4032,2.4229,2.4239,2.4322,2.4487,2.4497,2.4497,2.4497,2.4497,2.4497,2.4497,2.4497,2.4497,2.4497,2.4497,2.4497,2.4497,2.4497,2.4497,2.4497,2.4497,2.4642,2.49,2.49,2.517,2.5627,2.5896,2.6301,2.6747,2.7154,2.7185,2.7047,2.742,2.7441,2.7309,2.7309,2.7309,2.7309,2.7309,2.7309,2.7309,2.7309,2.7309,2.7309,2.7309,2.7309,2.7309,2.7309,2.7309,2.7309,2.7309,2.7309,2.7309,2.7309,2.7309,2.7309,2.7309,2.7493,2.779,2.822,2.8711,2.9177,2.9642,2.987,2.9994,2.9994,2.9994,2.9994,2.9994,2.9994,2.9994,2.9994,2.9994,2.9994,2.9994,2.9994,2.9994,2.9994,2.9994,2.9994,2.9994,2.9994,2.9994,2.9994,2.9994,2.9994,2.9994,2.9994,2.9994,0.0,0.0,0.0,0.0,1.5805,0.0,1.6181,1.6284,1.6412,1.6763,1.6874,1.7002,1.7366,1.7426,1.7557,1.794,1.9314,2.0719,2.1791,2.2104,2.2472,2.3123,2.3204,2.337,2.3784,2.3826,2.3971,2.4321,2.4394,2.4445,2.4497,2.4497,2.4497,2.4497,2.4497,2.4497,2.4497,2.4497,2.4497,2.4497,2.4497,2.4497,2.4497,2.4497,2.4497,2.4497,2.4497,2.4735,2.5117,2.5117,2.544,2.598,2.6832,2.6913,2.6685,2.7469,2.7552,2.7309,2.7309,2.7309,2.7309,2.7309,2.7309,2.7309,2.7309,2.7309,2.7309,2.7309,2.7309,2.7309,2.7309,2.7309,2.7309,2.7309,2.7309,2.7309,2.7309,2.7309,2.7309,2.7309,2.7309,2.742,2.7817,2.8241,2.8665,2.9156,2.9622,2.9922,2.9922,2.9963,2.9994,2.9994,2.9994,2.9994,2.9994,2.9994,2.9994,2.9994,2.9994,2.9994,2.9994,2.9994,2.9994,2.9994,2.9994,2.9994,2.9994,2.9994,2.9994,2.9994,2.9994,2.9994,0.0,0.0,0.0,1.5805,1.5805,0.0,1.5891,1.6149,1.6407,1.6484,1.6704,1.6917,1.6994,1.703,1.7227,1.7829,1.8419,1.9311,2.0689,2.2099,2.3042,2.3184,2.3204,2.3246,2.3339,2.3339,2.338,2.3443,2.3795,2.4167,2.4476,2.4497,2.4497,2.4497,2.4497,2.4497,2.4497,2.4497,2.4497,2.4497,2.4497,2.4497,2.4497,2.4497,2.4497,2.4497,2.4497,2.4549,2.4631,2.4631,2.5128,2.5918,2.6105,2.6343,2.6612,2.6788,2.7037,2.7309,2.7309,2.7309,2.7309,2.7309,2.7309,2.7309,2.7309,2.7309,2.7309,2.7309,2.7309,2.7309,2.7309,2.7309,2.7309,2.7309,2.7309,2.7309,2.7309,2.7309,2.7309,2.7309,2.7309,2.742,2.7817,2.7972,2.8189,2.868,2.9145,2.9435,2.9435,2.9766,2.9994,2.9994,2.9994,2.9994,2.9994,2.9994,2.9994,2.9994,2.9994,2.9994,2.9994,2.9994,2.9994,2.9994,2.9994,2.9994,2.9994,2.9994,2.9994,2.9994,2.9994,2.9994,1.5805,1.5655,1.5558,1.5744,1.5655,0.0,0.0,1.5969,1.6097,1.6097,1.6225,1.6403,1.6574,1.6609,1.6789,1.7317,1.7832,1.8416,1.9157,2.0879,2.1928,2.159,2.2116,2.2465,2.2361,2.2652,2.2956,2.3183,2.3422,2.3629,2.3836,2.4063,2.4209,2.4209,2.4405,2.4497,2.4497,2.4497,2.4497,2.4497,2.4497,2.4497,2.4497,2.4497,2.4497,2.4497,2.4497,2.4497,2.4497,2.4497,2.4787,2.5254,2.5732,2.5908,2.5989,2.6685,2.6957,2.6964,2.7226,2.7309,2.7309,2.7309,2.7309,2.7309,2.7309,2.7309,2.7309,2.7309,2.7309,2.7309,2.7309,2.7309,2.7309,2.7309,2.7309,2.7309,2.7309,2.7309,2.7309,2.7309,2.7309,2.7358,2.7576,2.7779,2.7983,2.821,2.8634,2.8959,2.8959,2.9166,2.9301,2.9301,2.9301,2.9301,2.9301,2.9301,2.9404,2.9642,2.9653,2.9756,2.9984,2.9994,2.9994,2.9994,2.9994,2.9994,2.9994,2.9994,2.9994,2.9994,2.9994,2.9994,1.5805,1.5558,1.5373,1.5611,1.5443,1.5258,0.0,0.0,0.0,1.5567,1.5638,1.5776,1.6047,1.6152,1.6318,1.6634,1.7194,1.7592,1.7619,1.9184,2.0197,1.9839,2.0768,2.1364,2.1224,2.1688,2.2306,2.3018,2.2949,2.297,2.3184,2.3556,2.3764,2.3764,2.4178,2.4373,2.4373,2.4456,2.4497,2.4497,2.4497,2.4497,2.4497,2.4497,2.4497,2.4497,2.4497,2.4497,2.4497,2.4497,2.4497,2.4569,2.5337,2.5461,2.5346,2.6488,2.6768,2.6643,2.7016,2.7226,2.7309,2.7309,2.7309,2.7309,2.7309,2.7309,2.7309,2.7309,2.7309,2.7309,2.7309,2.7309,2.7309,2.7309,2.7309,2.7309,2.7309,2.7309,2.7309,2.7309,2.7309,2.7309,2.7309,2.7576,2.7765,2.7765,2.8158,2.8458,2.8458,2.8531,2.8593,2.8593,2.8593,2.8593,2.8593,2.8593,2.8773,2.9145,2.9177,2.9384,2.9849,2.9942,2.9994,2.9994,2.9994,2.9994,2.9994,2.9994,2.9994,2.9994,2.9994,2.9994,1.5805,1.5761,1.5655,1.5355,1.524,1.5115,1.4802,0.0,1.4748,1.4748,0.0,1.5284,1.5325,0.0,0.0,1.5925,1.6245,1.6496,1.656,1.7519,1.8545,1.9364,1.9841,2.0118,2.0088,2.0147,2.0869,2.2453,2.2028,2.212,2.3143,2.3256,2.3287,2.3287,2.3732,2.3971,2.3971,2.4322,2.4497,2.4497,2.4497,2.4497,2.4497,2.4497,2.4497,2.4497,2.4497,2.4497,2.4497,2.4497,2.4497,2.4507,2.4611,2.4869,2.5232,2.5387,2.5927,2.6602,2.6654,2.6957,2.7309,2.7309,2.7309,2.7309,2.7309,2.7309,2.7309,2.7309,2.7309,2.7309,2.7309,2.7309,2.7309,2.7309,2.7309,2.7309,2.7309,2.7309,2.7309,2.7309,2.7309,2.7309,2.7309,2.7351,2.7382,2.7382,2.7717,2.7972,2.7972,2.8334,2.8593,2.8593,2.8593,2.8593,2.8593,2.8593,2.8613,2.869,2.869,2.8897,2.9363,2.9777,2.9994,2.9994,2.9994,2.9994,2.9994,2.9994,2.9994,2.9994,2.9994,2.9994,1.614,1.5808,1.5461,1.5541,1.5373,1.5169,1.4991,1.4955,1.4883,1.4659,0.0,0.0,0.0,0.0,0.0,0.0,1.5569,1.576,1.601,1.6627,1.7169,1.7548,1.8783,1.9841,2.0421,2.0479,2.0936,2.2019,2.1515,2.1517,2.2327,2.2646,2.278,2.278,2.3256,2.3494,2.3494,2.3929,2.4157,2.4157,2.4394,2.4497,2.4497,2.4497,2.4497,2.4497,2.4497,2.4497,2.4497,2.4497,2.4497,2.4497,2.4497,2.4621,2.4817,2.5108,2.5449,2.5834,2.6105,2.6312,2.6519,2.6822,2.7092,2.7309,2.7309,2.7309,2.7309,2.7309,2.7309,2.7309,2.7309,2.7309,2.7309,2.7309,2.7309,2.7309,2.7309,2.7309,2.7309,2.7309,2.7309,2.7309,2.7309,2.7309,2.7309,2.7309,2.7441,2.7565,2.7565,2.7731,2.7855,2.7855,2.7855,2.7855,2.7855,2.7855,2.7945,2.8169,2.8438,2.87,2.8897,2.9094,2.9197,2.9197,2.9197,2.9197,2.9197,2.9197,2.9197,2.9208,2.9746,2.9994,1.6444,1.5958,1.5525,1.5619,1.5426,1.5161,1.5062,1.5044,1.4937,1.4551,1.4533,0.0,0.0,0.0,0.0,0.0,0.0,1.5177,1.5576,1.5902,1.6126,1.6303,1.7738,1.9117,2.012,2.0062,2.0401,2.1462,2.0982,2.0972,2.1769,2.2128,2.2304,2.2304,2.2749,2.3018,2.3018,2.3473,2.3712,2.3712,2.3991,2.4218,2.4343,2.4343,2.4405,2.4497,2.4497,2.4497,2.4497,2.4497,2.4497,2.4497,2.4497,2.4497,2.4538,2.4879,2.5086,2.5253,2.5595,2.5782,2.596,2.6291,2.6633,2.6946,2.7081,2.7123,2.712,2.7268,2.7309,2.7309,2.7309,2.7309,2.7309,2.7309,2.7309,2.7309,2.7309,2.7309,2.7309,2.7309,2.7309,2.7309,2.7309,2.7309,2.7309,2.7309,2.7309,2.7309,2.7309,2.7309,2.7309,2.7309,2.7309,2.7309,2.7309,2.7309,2.742,2.7717,2.8173,2.8396,2.8396,2.852,2.8593,2.8593,2.8593,2.8593,2.8593,2.8593,2.8593,2.8603,2.9301,2.9622,1.6577,1.6291,1.6098,1.5394,1.5204,1.5098,1.4713,1.4623,1.4515,1.4183,1.4364,1.4497,1.4183,0.0,0.0,0.0,0.0,0.0,0.0,1.523,1.5523,1.6301,1.6742,1.7377,1.8381,1.7942,1.8521,2.075,2.0314,2.0479,2.1731,2.1818,2.1828,2.1828,2.2273,2.2522,2.2522,2.2977,2.3215,2.3215,2.3246,2.3484,2.3919,2.3919,2.4136,2.4497,2.4497,2.4497,2.4497,2.4497,2.4497,2.4497,2.4497,2.4497,2.4497,2.4518,2.4807,2.5211,2.5222,2.5533,2.5897,2.5918,2.5929,2.6032,2.6478,2.6612,2.6729,2.7185,2.7309,2.7309,2.7309,2.7309,2.7309,2.7309,2.7309,2.7309,2.7309,2.7309,2.7309,2.7309,2.7309,2.7309,2.7309,2.7309,2.7309,2.7309,2.7309,2.7309,2.7309,2.7309,2.7309,2.7309,2.7309,2.7309,2.7309,2.7309,2.732,2.733,2.7696,2.7921,2.7921,2.8355,2.8593,2.8593,2.8593,2.8593,2.8593,2.8593,2.8593,2.8593,2.8624,2.8634,1.7306,1.674,1.631,1.6064,1.5789,1.5487,1.5088,1.5008,1.4883,1.4507,1.4346,1.422,1.4111,0.0,0.0,0.0,0.0,0.0,0.0,1.5026,1.5396,1.5932,1.6456,1.7106,1.7974,1.8208,1.8779,1.9957,2.0074,2.0458,2.1296,2.1631,2.1807,2.1807,2.1952,2.2035,2.2035,2.2501,2.2729,2.2739,2.3039,2.3053,2.2765,2.2765,2.2856,2.3007,2.3309,2.3684,2.4126,2.4394,2.4497,2.4497,2.4497,2.4497,2.4497,2.4497,2.46,2.4735,2.4735,2.5046,2.5428,2.5428,2.5647,2.5929,2.6084,2.6136,2.6229,2.6695,2.6853,2.6915,2.7226,2.7309,2.7309,2.7309,2.7309,2.7309,2.7309,2.7309,2.7309,2.7309,2.7309,2.7309,2.7309,2.7309,2.7309,2.7309,2.7309,2.7309,2.7309,2.7309,2.7309,2.7309,2.7309,2.7309,2.7309,2.7309,2.7309,2.7309,2.742,2.7503,2.7503,2.7659,2.7741,2.7741,2.7741,2.7741,2.7741,2.7741,2.7741,2.7741,2.7741,2.8038,1.8018,1.7317,1.675,1.6603,1.6286,1.594,1.5672,1.55,1.5301,1.4909,1.4633,1.4453,1.4292,0.0,0.0,0.0,0.0,0.0,0.0,1.4955,1.5293,1.5558,1.6047,1.6711,1.7568,1.7779,1.8247,1.9203,1.9346,1.9709,2.0455,2.0774,2.0995,2.1126,2.1348,2.1473,2.1473,2.1981,2.2252,2.2252,2.2553,2.2441,2.1947,2.1947,2.1935,2.1908,2.2212,2.2785,2.3564,2.3829,2.415,2.4497,2.4497,2.4497,2.4497,2.4497,2.4497,2.4497,2.4497,2.4693,2.4941,2.4941,2.5149,2.543,2.5595,2.5647,2.5813,2.6612,2.6716,2.6737,2.7358,2.74,2.7309,2.7309,2.7309,2.7309,2.7309,2.7309,2.7309,2.7309,2.7309,2.7309,2.7309,2.7309,2.7309,2.7309,2.7309,2.7309,2.7309,2.7309,2.7309,2.7309,2.7309,2.7309,2.7309,2.7309,2.7309,2.7309,2.7309,2.7309,2.7309,2.7309,2.7309,2.7309,2.7309,2.7309,2.7309,2.7309,2.7309,2.7309,2.7309,2.7596]}]]